<?xml version="1.0" encoding="utf-8"?>
<gpx xmlns:xsi="http://www.w3.org/2001/XMLSchema-instance" xmlns:xsd="http://www.w3.org/2001/XMLSchema" version="1.1" creator="Shapelink.com" xmlns="http://www.topografix.com/GPX/1/1" xmlns:gpxtpx="http://www.garmin.com/xmlschemas/TrackPointExtension/v1">
  <metadata>
    <name>Bicicleta de montaña 9.72 km, 2019-08-17</name>
    <desc></desc>
    <author><name>Peter Littke</name></author> 
    <time>2019-08-17T13:42:56Z</time>
  </metadata>
  <trk>
    <name>Bicicleta de montaña 9.72 km, 2019-08-17</name>
    <trkseg>
      <trkpt lat="59.173705" lon="18.142328">
        <ele>116</ele>
        <time>2019-08-17T13:43:33Z</time>
      </trkpt>
      <trkpt lat="59.173635" lon="18.142268">
        <ele>113</ele>
        <time>2019-08-17T13:43:36Z</time>
      </trkpt>
      <trkpt lat="59.173561" lon="18.142239">
        <ele>0</ele>
        <time>2019-08-17T13:43:40Z</time>
      </trkpt>
      <trkpt lat="59.173524" lon="18.142232">
        <ele>108</ele>
        <time>2019-08-17T13:43:40Z</time>
      </trkpt>
      <trkpt lat="59.173412" lon="18.142219">
        <ele>106</ele>
        <time>2019-08-17T13:43:44Z</time>
      </trkpt>
      <trkpt lat="59.173305" lon="18.142221">
        <ele>104</ele>
        <time>2019-08-17T13:43:47Z</time>
      </trkpt>
      <trkpt lat="59.173195" lon="18.142262">
        <ele>101</ele>
        <time>2019-08-17T13:43:49Z</time>
      </trkpt>
      <trkpt lat="59.173088" lon="18.142224">
        <ele>96</ele>
        <time>2019-08-17T13:43:53Z</time>
      </trkpt>
      <trkpt lat="59.172984" lon="18.14217">
        <ele>95</ele>
        <time>2019-08-17T13:43:57Z</time>
      </trkpt>
      <trkpt lat="59.172765" lon="18.142204">
        <ele>96</ele>
        <time>2019-08-17T13:44:00Z</time>
      </trkpt>
      <trkpt lat="59.172651" lon="18.142201">
        <ele>90</ele>
        <time>2019-08-17T13:44:02Z</time>
      </trkpt>
      <trkpt lat="59.172591" lon="18.142186">
        <ele>88</ele>
        <time>2019-08-17T13:44:04Z</time>
      </trkpt>
      <trkpt lat="59.172568" lon="18.142172">
        <ele>87</ele>
        <time>2019-08-17T13:44:05Z</time>
      </trkpt>
      <trkpt lat="59.172541" lon="18.142147">
        <ele>86</ele>
        <time>2019-08-17T13:44:06Z</time>
      </trkpt>
      <trkpt lat="59.172521" lon="18.142124">
        <ele>86</ele>
        <time>2019-08-17T13:44:07Z</time>
      </trkpt>
      <trkpt lat="59.172504" lon="18.142105">
        <ele>85</ele>
        <time>2019-08-17T13:44:08Z</time>
      </trkpt>
      <trkpt lat="59.172488" lon="18.142087">
        <ele>84</ele>
        <time>2019-08-17T13:44:09Z</time>
      </trkpt>
      <trkpt lat="59.172467" lon="18.142051">
        <ele>83</ele>
        <time>2019-08-17T13:44:11Z</time>
      </trkpt>
      <trkpt lat="59.172465" lon="18.142048">
        <ele>81</ele>
        <time>2019-08-17T13:44:16Z</time>
      </trkpt>
      <trkpt lat="59.17242" lon="18.141965">
        <ele>0</ele>
        <time>2019-08-17T13:44:34Z</time>
      </trkpt>
      <trkpt lat="59.172403" lon="18.141912">
        <ele>78</ele>
        <time>2019-08-17T13:44:35Z</time>
      </trkpt>
      <trkpt lat="59.172388" lon="18.14187">
        <ele>78</ele>
        <time>2019-08-17T13:44:37Z</time>
      </trkpt>
      <trkpt lat="59.172372" lon="18.141828">
        <ele>77</ele>
        <time>2019-08-17T13:44:39Z</time>
      </trkpt>
      <trkpt lat="59.172363" lon="18.141797">
        <ele>77</ele>
        <time>2019-08-17T13:44:40Z</time>
      </trkpt>
      <trkpt lat="59.172356" lon="18.141761">
        <ele>77</ele>
        <time>2019-08-17T13:44:41Z</time>
      </trkpt>
      <trkpt lat="59.172352" lon="18.141721">
        <ele>77</ele>
        <time>2019-08-17T13:44:42Z</time>
      </trkpt>
      <trkpt lat="59.172352" lon="18.141677">
        <ele>77</ele>
        <time>2019-08-17T13:44:43Z</time>
      </trkpt>
      <trkpt lat="59.17235" lon="18.141632">
        <ele>76</ele>
        <time>2019-08-17T13:44:44Z</time>
      </trkpt>
      <trkpt lat="59.172347" lon="18.141582">
        <ele>76</ele>
        <time>2019-08-17T13:44:45Z</time>
      </trkpt>
      <trkpt lat="59.172344" lon="18.141533">
        <ele>76</ele>
        <time>2019-08-17T13:44:46Z</time>
      </trkpt>
      <trkpt lat="59.172343" lon="18.141487">
        <ele>76</ele>
        <time>2019-08-17T13:44:47Z</time>
      </trkpt>
      <trkpt lat="59.172345" lon="18.141437">
        <ele>76</ele>
        <time>2019-08-17T13:44:48Z</time>
      </trkpt>
      <trkpt lat="59.172348" lon="18.141386">
        <ele>75</ele>
        <time>2019-08-17T13:44:49Z</time>
      </trkpt>
      <trkpt lat="59.172349" lon="18.141336">
        <ele>75</ele>
        <time>2019-08-17T13:44:50Z</time>
      </trkpt>
      <trkpt lat="59.172353" lon="18.141288">
        <ele>75</ele>
        <time>2019-08-17T13:44:51Z</time>
      </trkpt>
      <trkpt lat="59.172356" lon="18.141242">
        <ele>74</ele>
        <time>2019-08-17T13:44:52Z</time>
      </trkpt>
      <trkpt lat="59.172359" lon="18.141199">
        <ele>74</ele>
        <time>2019-08-17T13:44:53Z</time>
      </trkpt>
      <trkpt lat="59.172362" lon="18.141162">
        <ele>73</ele>
        <time>2019-08-17T13:44:55Z</time>
      </trkpt>
      <trkpt lat="59.172364" lon="18.14112">
        <ele>72</ele>
        <time>2019-08-17T13:44:56Z</time>
      </trkpt>
      <trkpt lat="59.17236" lon="18.141084">
        <ele>71</ele>
        <time>2019-08-17T13:44:59Z</time>
      </trkpt>
      <trkpt lat="59.172352" lon="18.14104">
        <ele>70</ele>
        <time>2019-08-17T13:45:03Z</time>
      </trkpt>
      <trkpt lat="59.17235" lon="18.140988">
        <ele>69</ele>
        <time>2019-08-17T13:45:06Z</time>
      </trkpt>
      <trkpt lat="59.172358" lon="18.140911">
        <ele>68</ele>
        <time>2019-08-17T13:45:08Z</time>
      </trkpt>
      <trkpt lat="59.172366" lon="18.140855">
        <ele>68</ele>
        <time>2019-08-17T13:45:09Z</time>
      </trkpt>
      <trkpt lat="59.172373" lon="18.14079">
        <ele>67</ele>
        <time>2019-08-17T13:45:10Z</time>
      </trkpt>
      <trkpt lat="59.17238" lon="18.140719">
        <ele>67</ele>
        <time>2019-08-17T13:45:11Z</time>
      </trkpt>
      <trkpt lat="59.172383" lon="18.140643">
        <ele>66</ele>
        <time>2019-08-17T13:45:12Z</time>
      </trkpt>
      <trkpt lat="59.172385" lon="18.140561">
        <ele>66</ele>
        <time>2019-08-17T13:45:13Z</time>
      </trkpt>
      <trkpt lat="59.172391" lon="18.140472">
        <ele>65</ele>
        <time>2019-08-17T13:45:14Z</time>
      </trkpt>
      <trkpt lat="59.172402" lon="18.140378">
        <ele>65</ele>
        <time>2019-08-17T13:45:15Z</time>
      </trkpt>
      <trkpt lat="59.172416" lon="18.140279">
        <ele>65</ele>
        <time>2019-08-17T13:45:16Z</time>
      </trkpt>
      <trkpt lat="59.17243" lon="18.140177">
        <ele>64</ele>
        <time>2019-08-17T13:45:17Z</time>
      </trkpt>
      <trkpt lat="59.172445" lon="18.140077">
        <ele>64</ele>
        <time>2019-08-17T13:45:18Z</time>
      </trkpt>
      <trkpt lat="59.172461" lon="18.139982">
        <ele>64</ele>
        <time>2019-08-17T13:45:19Z</time>
      </trkpt>
      <trkpt lat="59.17248" lon="18.139894">
        <ele>63</ele>
        <time>2019-08-17T13:45:20Z</time>
      </trkpt>
      <trkpt lat="59.172502" lon="18.139815">
        <ele>63</ele>
        <time>2019-08-17T13:45:21Z</time>
      </trkpt>
      <trkpt lat="59.172525" lon="18.139741">
        <ele>62</ele>
        <time>2019-08-17T13:45:22Z</time>
      </trkpt>
      <trkpt lat="59.17254" lon="18.139663">
        <ele>62</ele>
        <time>2019-08-17T13:45:23Z</time>
      </trkpt>
      <trkpt lat="59.172546" lon="18.139585">
        <ele>62</ele>
        <time>2019-08-17T13:45:24Z</time>
      </trkpt>
      <trkpt lat="59.172538" lon="18.139509">
        <ele>62</ele>
        <time>2019-08-17T13:45:25Z</time>
      </trkpt>
      <trkpt lat="59.172527" lon="18.139438">
        <ele>61</ele>
        <time>2019-08-17T13:45:26Z</time>
      </trkpt>
      <trkpt lat="59.17251" lon="18.139374">
        <ele>61</ele>
        <time>2019-08-17T13:45:27Z</time>
      </trkpt>
      <trkpt lat="59.172482" lon="18.139339">
        <ele>61</ele>
        <time>2019-08-17T13:45:28Z</time>
      </trkpt>
      <trkpt lat="59.172446" lon="18.13934">
        <ele>60</ele>
        <time>2019-08-17T13:45:29Z</time>
      </trkpt>
      <trkpt lat="59.172411" lon="18.139364">
        <ele>60</ele>
        <time>2019-08-17T13:45:30Z</time>
      </trkpt>
      <trkpt lat="59.172375" lon="18.139385">
        <ele>60</ele>
        <time>2019-08-17T13:45:31Z</time>
      </trkpt>
      <trkpt lat="59.172335" lon="18.13939">
        <ele>59</ele>
        <time>2019-08-17T13:45:32Z</time>
      </trkpt>
      <trkpt lat="59.172296" lon="18.139381">
        <ele>59</ele>
        <time>2019-08-17T13:45:33Z</time>
      </trkpt>
      <trkpt lat="59.172259" lon="18.139369">
        <ele>59</ele>
        <time>2019-08-17T13:45:34Z</time>
      </trkpt>
      <trkpt lat="59.172226" lon="18.13936">
        <ele>59</ele>
        <time>2019-08-17T13:45:35Z</time>
      </trkpt>
      <trkpt lat="59.172195" lon="18.139351">
        <ele>59</ele>
        <time>2019-08-17T13:45:36Z</time>
      </trkpt>
      <trkpt lat="59.172165" lon="18.139342">
        <ele>59</ele>
        <time>2019-08-17T13:45:37Z</time>
      </trkpt>
      <trkpt lat="59.172138" lon="18.139334">
        <ele>59</ele>
        <time>2019-08-17T13:45:38Z</time>
      </trkpt>
      <trkpt lat="59.17211" lon="18.139326">
        <ele>60</ele>
        <time>2019-08-17T13:45:39Z</time>
      </trkpt>
      <trkpt lat="59.172084" lon="18.13932">
        <ele>60</ele>
        <time>2019-08-17T13:45:40Z</time>
      </trkpt>
      <trkpt lat="59.172057" lon="18.139317">
        <ele>60</ele>
        <time>2019-08-17T13:45:41Z</time>
      </trkpt>
      <trkpt lat="59.17203" lon="18.139315">
        <ele>60</ele>
        <time>2019-08-17T13:45:42Z</time>
      </trkpt>
      <trkpt lat="59.172002" lon="18.13931">
        <ele>60</ele>
        <time>2019-08-17T13:45:43Z</time>
      </trkpt>
      <trkpt lat="59.171973" lon="18.139305">
        <ele>60</ele>
        <time>2019-08-17T13:45:44Z</time>
      </trkpt>
      <trkpt lat="59.171942" lon="18.139299">
        <ele>60</ele>
        <time>2019-08-17T13:45:45Z</time>
      </trkpt>
      <trkpt lat="59.171911" lon="18.13929">
        <ele>60</ele>
        <time>2019-08-17T13:45:46Z</time>
      </trkpt>
      <trkpt lat="59.17188" lon="18.139279">
        <ele>60</ele>
        <time>2019-08-17T13:45:47Z</time>
      </trkpt>
      <trkpt lat="59.17185" lon="18.139267">
        <ele>60</ele>
        <time>2019-08-17T13:45:48Z</time>
      </trkpt>
      <trkpt lat="59.171821" lon="18.139255">
        <ele>60</ele>
        <time>2019-08-17T13:45:49Z</time>
      </trkpt>
      <trkpt lat="59.171792" lon="18.139247">
        <ele>60</ele>
        <time>2019-08-17T13:45:50Z</time>
      </trkpt>
      <trkpt lat="59.171765" lon="18.139241">
        <ele>60</ele>
        <time>2019-08-17T13:45:51Z</time>
      </trkpt>
      <trkpt lat="59.171739" lon="18.139236">
        <ele>60</ele>
        <time>2019-08-17T13:45:52Z</time>
      </trkpt>
      <trkpt lat="59.171712" lon="18.13923">
        <ele>61</ele>
        <time>2019-08-17T13:45:53Z</time>
      </trkpt>
      <trkpt lat="59.171684" lon="18.139222">
        <ele>61</ele>
        <time>2019-08-17T13:45:54Z</time>
      </trkpt>
      <trkpt lat="59.171656" lon="18.139214">
        <ele>61</ele>
        <time>2019-08-17T13:45:55Z</time>
      </trkpt>
      <trkpt lat="59.17163" lon="18.139208">
        <ele>61</ele>
        <time>2019-08-17T13:45:56Z</time>
      </trkpt>
      <trkpt lat="59.171604" lon="18.139203">
        <ele>61</ele>
        <time>2019-08-17T13:45:57Z</time>
      </trkpt>
      <trkpt lat="59.171576" lon="18.139197">
        <ele>61</ele>
        <time>2019-08-17T13:45:58Z</time>
      </trkpt>
      <trkpt lat="59.171548" lon="18.139191">
        <ele>60</ele>
        <time>2019-08-17T13:46:00Z</time>
      </trkpt>
      <trkpt lat="59.171519" lon="18.139183">
        <ele>61</ele>
        <time>2019-08-17T13:46:00Z</time>
      </trkpt>
      <trkpt lat="59.17149" lon="18.139176">
        <ele>61</ele>
        <time>2019-08-17T13:46:01Z</time>
      </trkpt>
      <trkpt lat="59.171461" lon="18.13917">
        <ele>61</ele>
        <time>2019-08-17T13:46:02Z</time>
      </trkpt>
      <trkpt lat="59.171432" lon="18.139163">
        <ele>61</ele>
        <time>2019-08-17T13:46:03Z</time>
      </trkpt>
      <trkpt lat="59.171403" lon="18.139155">
        <ele>61</ele>
        <time>2019-08-17T13:46:04Z</time>
      </trkpt>
      <trkpt lat="59.171376" lon="18.139146">
        <ele>61</ele>
        <time>2019-08-17T13:46:05Z</time>
      </trkpt>
      <trkpt lat="59.171349" lon="18.139135">
        <ele>61</ele>
        <time>2019-08-17T13:46:06Z</time>
      </trkpt>
      <trkpt lat="59.171322" lon="18.13912">
        <ele>61</ele>
        <time>2019-08-17T13:46:07Z</time>
      </trkpt>
      <trkpt lat="59.171296" lon="18.139102">
        <ele>62</ele>
        <time>2019-08-17T13:46:08Z</time>
      </trkpt>
      <trkpt lat="59.171271" lon="18.139087">
        <ele>62</ele>
        <time>2019-08-17T13:46:09Z</time>
      </trkpt>
      <trkpt lat="59.171247" lon="18.139073">
        <ele>62</ele>
        <time>2019-08-17T13:46:10Z</time>
      </trkpt>
      <trkpt lat="59.171226" lon="18.13906">
        <ele>62</ele>
        <time>2019-08-17T13:46:11Z</time>
      </trkpt>
      <trkpt lat="59.171204" lon="18.13905">
        <ele>62</ele>
        <time>2019-08-17T13:46:12Z</time>
      </trkpt>
      <trkpt lat="59.171184" lon="18.139043">
        <ele>62</ele>
        <time>2019-08-17T13:46:13Z</time>
      </trkpt>
      <trkpt lat="59.171162" lon="18.139036">
        <ele>62</ele>
        <time>2019-08-17T13:46:14Z</time>
      </trkpt>
      <trkpt lat="59.171141" lon="18.139028">
        <ele>62</ele>
        <time>2019-08-17T13:46:15Z</time>
      </trkpt>
      <trkpt lat="59.17112" lon="18.139018">
        <ele>63</ele>
        <time>2019-08-17T13:46:16Z</time>
      </trkpt>
      <trkpt lat="59.171097" lon="18.13901">
        <ele>63</ele>
        <time>2019-08-17T13:46:17Z</time>
      </trkpt>
      <trkpt lat="59.171072" lon="18.139006">
        <ele>63</ele>
        <time>2019-08-17T13:46:18Z</time>
      </trkpt>
      <trkpt lat="59.171049" lon="18.139011">
        <ele>63</ele>
        <time>2019-08-17T13:46:19Z</time>
      </trkpt>
      <trkpt lat="59.171024" lon="18.139023">
        <ele>63</ele>
        <time>2019-08-17T13:46:20Z</time>
      </trkpt>
      <trkpt lat="59.170999" lon="18.139038">
        <ele>63</ele>
        <time>2019-08-17T13:46:21Z</time>
      </trkpt>
      <trkpt lat="59.170972" lon="18.13905">
        <ele>63</ele>
        <time>2019-08-17T13:46:22Z</time>
      </trkpt>
      <trkpt lat="59.170944" lon="18.139055">
        <ele>63</ele>
        <time>2019-08-17T13:46:23Z</time>
      </trkpt>
      <trkpt lat="59.170915" lon="18.139053">
        <ele>63</ele>
        <time>2019-08-17T13:46:24Z</time>
      </trkpt>
      <trkpt lat="59.170886" lon="18.139048">
        <ele>63</ele>
        <time>2019-08-17T13:46:25Z</time>
      </trkpt>
      <trkpt lat="59.170858" lon="18.139042">
        <ele>63</ele>
        <time>2019-08-17T13:46:26Z</time>
      </trkpt>
      <trkpt lat="59.17083" lon="18.139036">
        <ele>64</ele>
        <time>2019-08-17T13:46:27Z</time>
      </trkpt>
      <trkpt lat="59.170802" lon="18.139027">
        <ele>64</ele>
        <time>2019-08-17T13:46:28Z</time>
      </trkpt>
      <trkpt lat="59.170773" lon="18.139014">
        <ele>64</ele>
        <time>2019-08-17T13:46:29Z</time>
      </trkpt>
      <trkpt lat="59.170744" lon="18.138999">
        <ele>64</ele>
        <time>2019-08-17T13:46:30Z</time>
      </trkpt>
      <trkpt lat="59.170714" lon="18.138985">
        <ele>64</ele>
        <time>2019-08-17T13:46:31Z</time>
      </trkpt>
      <trkpt lat="59.170684" lon="18.138974">
        <ele>64</ele>
        <time>2019-08-17T13:46:32Z</time>
      </trkpt>
      <trkpt lat="59.170655" lon="18.138967">
        <ele>64</ele>
        <time>2019-08-17T13:46:33Z</time>
      </trkpt>
      <trkpt lat="59.170626" lon="18.138962">
        <ele>64</ele>
        <time>2019-08-17T13:46:34Z</time>
      </trkpt>
      <trkpt lat="59.170596" lon="18.138956">
        <ele>65</ele>
        <time>2019-08-17T13:46:35Z</time>
      </trkpt>
      <trkpt lat="59.170567" lon="18.138947">
        <ele>65</ele>
        <time>2019-08-17T13:46:36Z</time>
      </trkpt>
      <trkpt lat="59.170537" lon="18.138937">
        <ele>65</ele>
        <time>2019-08-17T13:46:37Z</time>
      </trkpt>
      <trkpt lat="59.170507" lon="18.138929">
        <ele>65</ele>
        <time>2019-08-17T13:46:38Z</time>
      </trkpt>
      <trkpt lat="59.170476" lon="18.138923">
        <ele>65</ele>
        <time>2019-08-17T13:46:39Z</time>
      </trkpt>
      <trkpt lat="59.170446" lon="18.138917">
        <ele>65</ele>
        <time>2019-08-17T13:46:40Z</time>
      </trkpt>
      <trkpt lat="59.170416" lon="18.138911">
        <ele>65</ele>
        <time>2019-08-17T13:46:41Z</time>
      </trkpt>
      <trkpt lat="59.170387" lon="18.138903">
        <ele>65</ele>
        <time>2019-08-17T13:46:42Z</time>
      </trkpt>
      <trkpt lat="59.170358" lon="18.138894">
        <ele>66</ele>
        <time>2019-08-17T13:46:43Z</time>
      </trkpt>
      <trkpt lat="59.17033" lon="18.138886">
        <ele>66</ele>
        <time>2019-08-17T13:46:44Z</time>
      </trkpt>
      <trkpt lat="59.170302" lon="18.138879">
        <ele>66</ele>
        <time>2019-08-17T13:46:45Z</time>
      </trkpt>
      <trkpt lat="59.170273" lon="18.13887">
        <ele>66</ele>
        <time>2019-08-17T13:46:46Z</time>
      </trkpt>
      <trkpt lat="59.170244" lon="18.138862">
        <ele>66</ele>
        <time>2019-08-17T13:46:47Z</time>
      </trkpt>
      <trkpt lat="59.170214" lon="18.138855">
        <ele>66</ele>
        <time>2019-08-17T13:46:48Z</time>
      </trkpt>
      <trkpt lat="59.170183" lon="18.138849">
        <ele>66</ele>
        <time>2019-08-17T13:46:49Z</time>
      </trkpt>
      <trkpt lat="59.170152" lon="18.138844">
        <ele>66</ele>
        <time>2019-08-17T13:46:50Z</time>
      </trkpt>
      <trkpt lat="59.170121" lon="18.138836">
        <ele>66</ele>
        <time>2019-08-17T13:46:51Z</time>
      </trkpt>
      <trkpt lat="59.170091" lon="18.138827">
        <ele>66</ele>
        <time>2019-08-17T13:46:52Z</time>
      </trkpt>
      <trkpt lat="59.170061" lon="18.138818">
        <ele>67</ele>
        <time>2019-08-17T13:46:53Z</time>
      </trkpt>
      <trkpt lat="59.170032" lon="18.138811">
        <ele>67</ele>
        <time>2019-08-17T13:46:54Z</time>
      </trkpt>
      <trkpt lat="59.170004" lon="18.138804">
        <ele>67</ele>
        <time>2019-08-17T13:46:55Z</time>
      </trkpt>
      <trkpt lat="59.169976" lon="18.138791">
        <ele>67</ele>
        <time>2019-08-17T13:46:56Z</time>
      </trkpt>
      <trkpt lat="59.169949" lon="18.13877">
        <ele>67</ele>
        <time>2019-08-17T13:46:57Z</time>
      </trkpt>
      <trkpt lat="59.169924" lon="18.138737">
        <ele>67</ele>
        <time>2019-08-17T13:46:58Z</time>
      </trkpt>
      <trkpt lat="59.169906" lon="18.138696">
        <ele>67</ele>
        <time>2019-08-17T13:46:59Z</time>
      </trkpt>
      <trkpt lat="59.169886" lon="18.138654">
        <ele>67</ele>
        <time>2019-08-17T13:47:00Z</time>
      </trkpt>
      <trkpt lat="59.169864" lon="18.138618">
        <ele>67</ele>
        <time>2019-08-17T13:47:01Z</time>
      </trkpt>
      <trkpt lat="59.169836" lon="18.138594">
        <ele>67</ele>
        <time>2019-08-17T13:47:02Z</time>
      </trkpt>
      <trkpt lat="59.169808" lon="18.138587">
        <ele>67</ele>
        <time>2019-08-17T13:47:03Z</time>
      </trkpt>
      <trkpt lat="59.169779" lon="18.138601">
        <ele>67</ele>
        <time>2019-08-17T13:47:04Z</time>
      </trkpt>
      <trkpt lat="59.169756" lon="18.13863">
        <ele>67</ele>
        <time>2019-08-17T13:47:05Z</time>
      </trkpt>
      <trkpt lat="59.169734" lon="18.13866">
        <ele>67</ele>
        <time>2019-08-17T13:47:06Z</time>
      </trkpt>
      <trkpt lat="59.16971" lon="18.138683">
        <ele>67</ele>
        <time>2019-08-17T13:47:07Z</time>
      </trkpt>
      <trkpt lat="59.169684" lon="18.138693">
        <ele>67</ele>
        <time>2019-08-17T13:47:08Z</time>
      </trkpt>
      <trkpt lat="59.169658" lon="18.138693">
        <ele>67</ele>
        <time>2019-08-17T13:47:09Z</time>
      </trkpt>
      <trkpt lat="59.16963" lon="18.138686">
        <ele>67</ele>
        <time>2019-08-17T13:47:10Z</time>
      </trkpt>
      <trkpt lat="59.169604" lon="18.138677">
        <ele>67</ele>
        <time>2019-08-17T13:47:11Z</time>
      </trkpt>
      <trkpt lat="59.16958" lon="18.138669">
        <ele>67</ele>
        <time>2019-08-17T13:47:12Z</time>
      </trkpt>
      <trkpt lat="59.169555" lon="18.138661">
        <ele>67</ele>
        <time>2019-08-17T13:47:13Z</time>
      </trkpt>
      <trkpt lat="59.169529" lon="18.138651">
        <ele>68</ele>
        <time>2019-08-17T13:47:14Z</time>
      </trkpt>
      <trkpt lat="59.169501" lon="18.138641">
        <ele>68</ele>
        <time>2019-08-17T13:47:15Z</time>
      </trkpt>
      <trkpt lat="59.16947" lon="18.138632">
        <ele>68</ele>
        <time>2019-08-17T13:47:16Z</time>
      </trkpt>
      <trkpt lat="59.169437" lon="18.138623">
        <ele>68</ele>
        <time>2019-08-17T13:47:17Z</time>
      </trkpt>
      <trkpt lat="59.169402" lon="18.138611">
        <ele>68</ele>
        <time>2019-08-17T13:47:18Z</time>
      </trkpt>
      <trkpt lat="59.169365" lon="18.138604">
        <ele>68</ele>
        <time>2019-08-17T13:47:19Z</time>
      </trkpt>
      <trkpt lat="59.169326" lon="18.138596">
        <ele>69</ele>
        <time>2019-08-17T13:47:20Z</time>
      </trkpt>
      <trkpt lat="59.169287" lon="18.138583">
        <ele>69</ele>
        <time>2019-08-17T13:47:21Z</time>
      </trkpt>
      <trkpt lat="59.169248" lon="18.138567">
        <ele>69</ele>
        <time>2019-08-17T13:47:22Z</time>
      </trkpt>
      <trkpt lat="59.169206" lon="18.13855">
        <ele>70</ele>
        <time>2019-08-17T13:47:23Z</time>
      </trkpt>
      <trkpt lat="59.169166" lon="18.138532">
        <ele>70</ele>
        <time>2019-08-17T13:47:24Z</time>
      </trkpt>
      <trkpt lat="59.169126" lon="18.138512">
        <ele>70</ele>
        <time>2019-08-17T13:47:25Z</time>
      </trkpt>
      <trkpt lat="59.169088" lon="18.138492">
        <ele>70</ele>
        <time>2019-08-17T13:47:26Z</time>
      </trkpt>
      <trkpt lat="59.169048" lon="18.138478">
        <ele>71</ele>
        <time>2019-08-17T13:47:28Z</time>
      </trkpt>
      <trkpt lat="59.16901" lon="18.138465">
        <ele>71</ele>
        <time>2019-08-17T13:47:28Z</time>
      </trkpt>
      <trkpt lat="59.168974" lon="18.13845">
        <ele>71</ele>
        <time>2019-08-17T13:47:29Z</time>
      </trkpt>
      <trkpt lat="59.168938" lon="18.138434">
        <ele>71</ele>
        <time>2019-08-17T13:47:30Z</time>
      </trkpt>
      <trkpt lat="59.168902" lon="18.138416">
        <ele>71</ele>
        <time>2019-08-17T13:47:31Z</time>
      </trkpt>
      <trkpt lat="59.168868" lon="18.138395">
        <ele>71</ele>
        <time>2019-08-17T13:47:32Z</time>
      </trkpt>
      <trkpt lat="59.168834" lon="18.138377">
        <ele>71</ele>
        <time>2019-08-17T13:47:33Z</time>
      </trkpt>
      <trkpt lat="59.1688" lon="18.138361">
        <ele>71</ele>
        <time>2019-08-17T13:47:34Z</time>
      </trkpt>
      <trkpt lat="59.168764" lon="18.138346">
        <ele>71</ele>
        <time>2019-08-17T13:47:35Z</time>
      </trkpt>
      <trkpt lat="59.16873" lon="18.138331">
        <ele>71</ele>
        <time>2019-08-17T13:47:36Z</time>
      </trkpt>
      <trkpt lat="59.168696" lon="18.138315">
        <ele>71</ele>
        <time>2019-08-17T13:47:37Z</time>
      </trkpt>
      <trkpt lat="59.168662" lon="18.138299">
        <ele>71</ele>
        <time>2019-08-17T13:47:38Z</time>
      </trkpt>
      <trkpt lat="59.16863" lon="18.138282">
        <ele>71</ele>
        <time>2019-08-17T13:47:39Z</time>
      </trkpt>
      <trkpt lat="59.168595" lon="18.138267">
        <ele>71</ele>
        <time>2019-08-17T13:47:40Z</time>
      </trkpt>
      <trkpt lat="59.168562" lon="18.138251">
        <ele>71</ele>
        <time>2019-08-17T13:47:41Z</time>
      </trkpt>
      <trkpt lat="59.168529" lon="18.138236">
        <ele>71</ele>
        <time>2019-08-17T13:47:42Z</time>
      </trkpt>
      <trkpt lat="59.168494" lon="18.138222">
        <ele>71</ele>
        <time>2019-08-17T13:47:43Z</time>
      </trkpt>
      <trkpt lat="59.16846" lon="18.138207">
        <ele>71</ele>
        <time>2019-08-17T13:47:44Z</time>
      </trkpt>
      <trkpt lat="59.168426" lon="18.138191">
        <ele>71</ele>
        <time>2019-08-17T13:47:45Z</time>
      </trkpt>
      <trkpt lat="59.168393" lon="18.138178">
        <ele>71</ele>
        <time>2019-08-17T13:47:46Z</time>
      </trkpt>
      <trkpt lat="59.168361" lon="18.138166">
        <ele>71</ele>
        <time>2019-08-17T13:47:47Z</time>
      </trkpt>
      <trkpt lat="59.16833" lon="18.138156">
        <ele>71</ele>
        <time>2019-08-17T13:47:48Z</time>
      </trkpt>
      <trkpt lat="59.168299" lon="18.138138">
        <ele>71</ele>
        <time>2019-08-17T13:47:49Z</time>
      </trkpt>
      <trkpt lat="59.168268" lon="18.13811">
        <ele>71</ele>
        <time>2019-08-17T13:47:50Z</time>
      </trkpt>
      <trkpt lat="59.168238" lon="18.138069">
        <ele>71</ele>
        <time>2019-08-17T13:47:51Z</time>
      </trkpt>
      <trkpt lat="59.168214" lon="18.138013">
        <ele>71</ele>
        <time>2019-08-17T13:47:52Z</time>
      </trkpt>
      <trkpt lat="59.168198" lon="18.137945">
        <ele>71</ele>
        <time>2019-08-17T13:47:53Z</time>
      </trkpt>
      <trkpt lat="59.168189" lon="18.137869">
        <ele>71</ele>
        <time>2019-08-17T13:47:54Z</time>
      </trkpt>
      <trkpt lat="59.168192" lon="18.137789">
        <ele>71</ele>
        <time>2019-08-17T13:47:55Z</time>
      </trkpt>
      <trkpt lat="59.1682" lon="18.137707">
        <ele>70</ele>
        <time>2019-08-17T13:47:56Z</time>
      </trkpt>
      <trkpt lat="59.16821" lon="18.137618">
        <ele>70</ele>
        <time>2019-08-17T13:47:57Z</time>
      </trkpt>
      <trkpt lat="59.168224" lon="18.13752">
        <ele>70</ele>
        <time>2019-08-17T13:47:58Z</time>
      </trkpt>
      <trkpt lat="59.168237" lon="18.137409">
        <ele>70</ele>
        <time>2019-08-17T13:47:59Z</time>
      </trkpt>
      <trkpt lat="59.168251" lon="18.137292">
        <ele>69</ele>
        <time>2019-08-17T13:48:00Z</time>
      </trkpt>
      <trkpt lat="59.168263" lon="18.137181">
        <ele>69</ele>
        <time>2019-08-17T13:48:01Z</time>
      </trkpt>
      <trkpt lat="59.168275" lon="18.137075">
        <ele>69</ele>
        <time>2019-08-17T13:48:02Z</time>
      </trkpt>
      <trkpt lat="59.168286" lon="18.136976">
        <ele>69</ele>
        <time>2019-08-17T13:48:03Z</time>
      </trkpt>
      <trkpt lat="59.168294" lon="18.13688">
        <ele>68</ele>
        <time>2019-08-17T13:48:04Z</time>
      </trkpt>
      <trkpt lat="59.16829" lon="18.136783">
        <ele>68</ele>
        <time>2019-08-17T13:48:06Z</time>
      </trkpt>
      <trkpt lat="59.168274" lon="18.136693">
        <ele>68</ele>
        <time>2019-08-17T13:48:06Z</time>
      </trkpt>
      <trkpt lat="59.168245" lon="18.136611">
        <ele>68</ele>
        <time>2019-08-17T13:48:07Z</time>
      </trkpt>
      <trkpt lat="59.168207" lon="18.136542">
        <ele>69</ele>
        <time>2019-08-17T13:48:08Z</time>
      </trkpt>
      <trkpt lat="59.168168" lon="18.136489">
        <ele>69</ele>
        <time>2019-08-17T13:48:09Z</time>
      </trkpt>
      <trkpt lat="59.16813" lon="18.136445">
        <ele>69</ele>
        <time>2019-08-17T13:48:10Z</time>
      </trkpt>
      <trkpt lat="59.168093" lon="18.136408">
        <ele>69</ele>
        <time>2019-08-17T13:48:11Z</time>
      </trkpt>
      <trkpt lat="59.168057" lon="18.136375">
        <ele>69</ele>
        <time>2019-08-17T13:48:12Z</time>
      </trkpt>
      <trkpt lat="59.168022" lon="18.136351">
        <ele>69</ele>
        <time>2019-08-17T13:48:13Z</time>
      </trkpt>
      <trkpt lat="59.167988" lon="18.136334">
        <ele>69</ele>
        <time>2019-08-17T13:48:14Z</time>
      </trkpt>
      <trkpt lat="59.167952" lon="18.136322">
        <ele>69</ele>
        <time>2019-08-17T13:48:15Z</time>
      </trkpt>
      <trkpt lat="59.167914" lon="18.136305">
        <ele>69</ele>
        <time>2019-08-17T13:48:16Z</time>
      </trkpt>
      <trkpt lat="59.167878" lon="18.136283">
        <ele>69</ele>
        <time>2019-08-17T13:48:17Z</time>
      </trkpt>
      <trkpt lat="59.167845" lon="18.136257">
        <ele>69</ele>
        <time>2019-08-17T13:48:18Z</time>
      </trkpt>
      <trkpt lat="59.167812" lon="18.136235">
        <ele>69</ele>
        <time>2019-08-17T13:48:19Z</time>
      </trkpt>
      <trkpt lat="59.167779" lon="18.136215">
        <ele>69</ele>
        <time>2019-08-17T13:48:20Z</time>
      </trkpt>
      <trkpt lat="59.167745" lon="18.136194">
        <ele>69</ele>
        <time>2019-08-17T13:48:21Z</time>
      </trkpt>
      <trkpt lat="59.167711" lon="18.136175">
        <ele>69</ele>
        <time>2019-08-17T13:48:22Z</time>
      </trkpt>
      <trkpt lat="59.167676" lon="18.136162">
        <ele>69</ele>
        <time>2019-08-17T13:48:23Z</time>
      </trkpt>
      <trkpt lat="59.167638" lon="18.136151">
        <ele>69</ele>
        <time>2019-08-17T13:48:24Z</time>
      </trkpt>
      <trkpt lat="59.167601" lon="18.13613">
        <ele>69</ele>
        <time>2019-08-17T13:48:25Z</time>
      </trkpt>
      <trkpt lat="59.167565" lon="18.136099">
        <ele>69</ele>
        <time>2019-08-17T13:48:26Z</time>
      </trkpt>
      <trkpt lat="59.167528" lon="18.136073">
        <ele>69</ele>
        <time>2019-08-17T13:48:27Z</time>
      </trkpt>
      <trkpt lat="59.16749" lon="18.136053">
        <ele>69</ele>
        <time>2019-08-17T13:48:28Z</time>
      </trkpt>
      <trkpt lat="59.16745" lon="18.136039">
        <ele>69</ele>
        <time>2019-08-17T13:48:29Z</time>
      </trkpt>
      <trkpt lat="59.167411" lon="18.136019">
        <ele>69</ele>
        <time>2019-08-17T13:48:30Z</time>
      </trkpt>
      <trkpt lat="59.167372" lon="18.135999">
        <ele>69</ele>
        <time>2019-08-17T13:48:31Z</time>
      </trkpt>
      <trkpt lat="59.167333" lon="18.135981">
        <ele>68</ele>
        <time>2019-08-17T13:48:32Z</time>
      </trkpt>
      <trkpt lat="59.167295" lon="18.135967">
        <ele>68</ele>
        <time>2019-08-17T13:48:33Z</time>
      </trkpt>
      <trkpt lat="59.167256" lon="18.135947">
        <ele>68</ele>
        <time>2019-08-17T13:48:34Z</time>
      </trkpt>
      <trkpt lat="59.167219" lon="18.135923">
        <ele>68</ele>
        <time>2019-08-17T13:48:35Z</time>
      </trkpt>
      <trkpt lat="59.16718" lon="18.135898">
        <ele>68</ele>
        <time>2019-08-17T13:48:36Z</time>
      </trkpt>
      <trkpt lat="59.167142" lon="18.135877">
        <ele>68</ele>
        <time>2019-08-17T13:48:37Z</time>
      </trkpt>
      <trkpt lat="59.167102" lon="18.135856">
        <ele>67</ele>
        <time>2019-08-17T13:48:38Z</time>
      </trkpt>
      <trkpt lat="59.167062" lon="18.135835">
        <ele>67</ele>
        <time>2019-08-17T13:48:39Z</time>
      </trkpt>
      <trkpt lat="59.167023" lon="18.135814">
        <ele>67</ele>
        <time>2019-08-17T13:48:40Z</time>
      </trkpt>
      <trkpt lat="59.166982" lon="18.135794">
        <ele>67</ele>
        <time>2019-08-17T13:48:41Z</time>
      </trkpt>
      <trkpt lat="59.166942" lon="18.135773">
        <ele>67</ele>
        <time>2019-08-17T13:48:42Z</time>
      </trkpt>
      <trkpt lat="59.166901" lon="18.135748">
        <ele>67</ele>
        <time>2019-08-17T13:48:43Z</time>
      </trkpt>
      <trkpt lat="59.166861" lon="18.135723">
        <ele>67</ele>
        <time>2019-08-17T13:48:44Z</time>
      </trkpt>
      <trkpt lat="59.16682" lon="18.135705">
        <ele>67</ele>
        <time>2019-08-17T13:48:45Z</time>
      </trkpt>
      <trkpt lat="59.166779" lon="18.135694">
        <ele>67</ele>
        <time>2019-08-17T13:48:46Z</time>
      </trkpt>
      <trkpt lat="59.166738" lon="18.135691">
        <ele>66</ele>
        <time>2019-08-17T13:48:47Z</time>
      </trkpt>
      <trkpt lat="59.166697" lon="18.135692">
        <ele>66</ele>
        <time>2019-08-17T13:48:48Z</time>
      </trkpt>
      <trkpt lat="59.166656" lon="18.135693">
        <ele>66</ele>
        <time>2019-08-17T13:48:49Z</time>
      </trkpt>
      <trkpt lat="59.166615" lon="18.135698">
        <ele>66</ele>
        <time>2019-08-17T13:48:50Z</time>
      </trkpt>
      <trkpt lat="59.166576" lon="18.135706">
        <ele>65</ele>
        <time>2019-08-17T13:48:51Z</time>
      </trkpt>
      <trkpt lat="59.166534" lon="18.135724">
        <ele>65</ele>
        <time>2019-08-17T13:48:52Z</time>
      </trkpt>
      <trkpt lat="59.166496" lon="18.135728">
        <ele>66</ele>
        <time>2019-08-17T13:48:53Z</time>
      </trkpt>
      <trkpt lat="59.166459" lon="18.135727">
        <ele>66</ele>
        <time>2019-08-17T13:48:54Z</time>
      </trkpt>
      <trkpt lat="59.166422" lon="18.135726">
        <ele>65</ele>
        <time>2019-08-17T13:48:55Z</time>
      </trkpt>
      <trkpt lat="59.166384" lon="18.135733">
        <ele>65</ele>
        <time>2019-08-17T13:48:56Z</time>
      </trkpt>
      <trkpt lat="59.166343" lon="18.135745">
        <ele>65</ele>
        <time>2019-08-17T13:48:57Z</time>
      </trkpt>
      <trkpt lat="59.166302" lon="18.135753">
        <ele>65</ele>
        <time>2019-08-17T13:48:58Z</time>
      </trkpt>
      <trkpt lat="59.166262" lon="18.135753">
        <ele>65</ele>
        <time>2019-08-17T13:48:59Z</time>
      </trkpt>
      <trkpt lat="59.16622" lon="18.135753">
        <ele>65</ele>
        <time>2019-08-17T13:49:00Z</time>
      </trkpt>
      <trkpt lat="59.166178" lon="18.135745">
        <ele>65</ele>
        <time>2019-08-17T13:49:01Z</time>
      </trkpt>
      <trkpt lat="59.166131" lon="18.135735">
        <ele>65</ele>
        <time>2019-08-17T13:49:02Z</time>
      </trkpt>
      <trkpt lat="59.166087" lon="18.135719">
        <ele>65</ele>
        <time>2019-08-17T13:49:03Z</time>
      </trkpt>
      <trkpt lat="59.166046" lon="18.135696">
        <ele>65</ele>
        <time>2019-08-17T13:49:04Z</time>
      </trkpt>
      <trkpt lat="59.166008" lon="18.135676">
        <ele>65</ele>
        <time>2019-08-17T13:49:05Z</time>
      </trkpt>
      <trkpt lat="59.16597" lon="18.135654">
        <ele>65</ele>
        <time>2019-08-17T13:49:06Z</time>
      </trkpt>
      <trkpt lat="59.165934" lon="18.135632">
        <ele>65</ele>
        <time>2019-08-17T13:49:07Z</time>
      </trkpt>
      <trkpt lat="59.165896" lon="18.135609">
        <ele>65</ele>
        <time>2019-08-17T13:49:08Z</time>
      </trkpt>
      <trkpt lat="59.165856" lon="18.135586">
        <ele>65</ele>
        <time>2019-08-17T13:49:09Z</time>
      </trkpt>
      <trkpt lat="59.165814" lon="18.135561">
        <ele>66</ele>
        <time>2019-08-17T13:49:10Z</time>
      </trkpt>
      <trkpt lat="59.165772" lon="18.135535">
        <ele>66</ele>
        <time>2019-08-17T13:49:11Z</time>
      </trkpt>
      <trkpt lat="59.165729" lon="18.13551">
        <ele>66</ele>
        <time>2019-08-17T13:49:12Z</time>
      </trkpt>
      <trkpt lat="59.165686" lon="18.135485">
        <ele>66</ele>
        <time>2019-08-17T13:49:13Z</time>
      </trkpt>
      <trkpt lat="59.165646" lon="18.13546">
        <ele>66</ele>
        <time>2019-08-17T13:49:14Z</time>
      </trkpt>
      <trkpt lat="59.165606" lon="18.135438">
        <ele>66</ele>
        <time>2019-08-17T13:49:15Z</time>
      </trkpt>
      <trkpt lat="59.165567" lon="18.135414">
        <ele>66</ele>
        <time>2019-08-17T13:49:16Z</time>
      </trkpt>
      <trkpt lat="59.165527" lon="18.135389">
        <ele>66</ele>
        <time>2019-08-17T13:49:17Z</time>
      </trkpt>
      <trkpt lat="59.165489" lon="18.135364">
        <ele>66</ele>
        <time>2019-08-17T13:49:18Z</time>
      </trkpt>
      <trkpt lat="59.165449" lon="18.13534">
        <ele>66</ele>
        <time>2019-08-17T13:49:19Z</time>
      </trkpt>
      <trkpt lat="59.165408" lon="18.135312">
        <ele>66</ele>
        <time>2019-08-17T13:49:20Z</time>
      </trkpt>
      <trkpt lat="59.165366" lon="18.135283">
        <ele>65</ele>
        <time>2019-08-17T13:49:21Z</time>
      </trkpt>
      <trkpt lat="59.165324" lon="18.135253">
        <ele>65</ele>
        <time>2019-08-17T13:49:22Z</time>
      </trkpt>
      <trkpt lat="59.165284" lon="18.135225">
        <ele>65</ele>
        <time>2019-08-17T13:49:23Z</time>
      </trkpt>
      <trkpt lat="59.165246" lon="18.135199">
        <ele>65</ele>
        <time>2019-08-17T13:49:24Z</time>
      </trkpt>
      <trkpt lat="59.165206" lon="18.135174">
        <ele>65</ele>
        <time>2019-08-17T13:49:25Z</time>
      </trkpt>
      <trkpt lat="59.165166" lon="18.135147">
        <ele>65</ele>
        <time>2019-08-17T13:49:26Z</time>
      </trkpt>
      <trkpt lat="59.165125" lon="18.135126">
        <ele>65</ele>
        <time>2019-08-17T13:49:27Z</time>
      </trkpt>
      <trkpt lat="59.165082" lon="18.135105">
        <ele>64</ele>
        <time>2019-08-17T13:49:28Z</time>
      </trkpt>
      <trkpt lat="59.165042" lon="18.135082">
        <ele>64</ele>
        <time>2019-08-17T13:49:29Z</time>
      </trkpt>
      <trkpt lat="59.165001" lon="18.135058">
        <ele>64</ele>
        <time>2019-08-17T13:49:30Z</time>
      </trkpt>
      <trkpt lat="59.16496" lon="18.135032">
        <ele>64</ele>
        <time>2019-08-17T13:49:31Z</time>
      </trkpt>
      <trkpt lat="59.164922" lon="18.135009">
        <ele>64</ele>
        <time>2019-08-17T13:49:32Z</time>
      </trkpt>
      <trkpt lat="59.164883" lon="18.13499">
        <ele>64</ele>
        <time>2019-08-17T13:49:33Z</time>
      </trkpt>
      <trkpt lat="59.164846" lon="18.134972">
        <ele>63</ele>
        <time>2019-08-17T13:49:34Z</time>
      </trkpt>
      <trkpt lat="59.164808" lon="18.134957">
        <ele>63</ele>
        <time>2019-08-17T13:49:35Z</time>
      </trkpt>
      <trkpt lat="59.164772" lon="18.134951">
        <ele>63</ele>
        <time>2019-08-17T13:49:36Z</time>
      </trkpt>
      <trkpt lat="59.164734" lon="18.134943">
        <ele>63</ele>
        <time>2019-08-17T13:49:37Z</time>
      </trkpt>
      <trkpt lat="59.164694" lon="18.134933">
        <ele>63</ele>
        <time>2019-08-17T13:49:38Z</time>
      </trkpt>
      <trkpt lat="59.164656" lon="18.134926">
        <ele>63</ele>
        <time>2019-08-17T13:49:39Z</time>
      </trkpt>
      <trkpt lat="59.164622" lon="18.134918">
        <ele>63</ele>
        <time>2019-08-17T13:49:40Z</time>
      </trkpt>
      <trkpt lat="59.16459" lon="18.134917">
        <ele>63</ele>
        <time>2019-08-17T13:49:41Z</time>
      </trkpt>
      <trkpt lat="59.164562" lon="18.134913">
        <ele>63</ele>
        <time>2019-08-17T13:49:42Z</time>
      </trkpt>
      <trkpt lat="59.164533" lon="18.134891">
        <ele>62</ele>
        <time>2019-08-17T13:49:43Z</time>
      </trkpt>
      <trkpt lat="59.164514" lon="18.134842">
        <ele>62</ele>
        <time>2019-08-17T13:49:44Z</time>
      </trkpt>
      <trkpt lat="59.164506" lon="18.134786">
        <ele>62</ele>
        <time>2019-08-17T13:49:45Z</time>
      </trkpt>
      <trkpt lat="59.164506" lon="18.134719">
        <ele>63</ele>
        <time>2019-08-17T13:49:46Z</time>
      </trkpt>
      <trkpt lat="59.16451" lon="18.134645">
        <ele>63</ele>
        <time>2019-08-17T13:49:47Z</time>
      </trkpt>
      <trkpt lat="59.164519" lon="18.134563">
        <ele>63</ele>
        <time>2019-08-17T13:49:48Z</time>
      </trkpt>
      <trkpt lat="59.164536" lon="18.134482">
        <ele>63</ele>
        <time>2019-08-17T13:49:49Z</time>
      </trkpt>
      <trkpt lat="59.16456" lon="18.134405">
        <ele>62</ele>
        <time>2019-08-17T13:49:50Z</time>
      </trkpt>
      <trkpt lat="59.164586" lon="18.134326">
        <ele>62</ele>
        <time>2019-08-17T13:49:51Z</time>
      </trkpt>
      <trkpt lat="59.16461" lon="18.134244">
        <ele>62</ele>
        <time>2019-08-17T13:49:52Z</time>
      </trkpt>
      <trkpt lat="59.164628" lon="18.134163">
        <ele>62</ele>
        <time>2019-08-17T13:49:53Z</time>
      </trkpt>
      <trkpt lat="59.164641" lon="18.134094">
        <ele>61</ele>
        <time>2019-08-17T13:49:54Z</time>
      </trkpt>
      <trkpt lat="59.164654" lon="18.134037">
        <ele>61</ele>
        <time>2019-08-17T13:49:55Z</time>
      </trkpt>
      <trkpt lat="59.164668" lon="18.133985">
        <ele>61</ele>
        <time>2019-08-17T13:49:56Z</time>
      </trkpt>
      <trkpt lat="59.164673" lon="18.133948">
        <ele>61</ele>
        <time>2019-08-17T13:49:57Z</time>
      </trkpt>
      <trkpt lat="59.164736" lon="18.1338">
        <ele>61</ele>
        <time>2019-08-17T13:50:05Z</time>
      </trkpt>
      <trkpt lat="59.164749" lon="18.133626">
        <ele>60</ele>
        <time>2019-08-17T13:50:09Z</time>
      </trkpt>
      <trkpt lat="59.164786" lon="18.133436">
        <ele>59</ele>
        <time>2019-08-17T13:50:13Z</time>
      </trkpt>
      <trkpt lat="59.16484" lon="18.133286">
        <ele>58</ele>
        <time>2019-08-17T13:50:16Z</time>
      </trkpt>
      <trkpt lat="59.164877" lon="18.133098">
        <ele>56</ele>
        <time>2019-08-17T13:50:21Z</time>
      </trkpt>
      <trkpt lat="59.164959" lon="18.132994">
        <ele>56</ele>
        <time>2019-08-17T13:50:27Z</time>
      </trkpt>
      <trkpt lat="59.165003" lon="18.132968">
        <ele>55</ele>
        <time>2019-08-17T13:50:29Z</time>
      </trkpt>
      <trkpt lat="59.165038" lon="18.132978">
        <ele>55</ele>
        <time>2019-08-17T13:50:30Z</time>
      </trkpt>
      <trkpt lat="59.16511" lon="18.132964">
        <ele>55</ele>
        <time>2019-08-17T13:50:32Z</time>
      </trkpt>
      <trkpt lat="59.165135" lon="18.132926">
        <ele>55</ele>
        <time>2019-08-17T13:50:33Z</time>
      </trkpt>
      <trkpt lat="59.165161" lon="18.132816">
        <ele>54</ele>
        <time>2019-08-17T13:50:35Z</time>
      </trkpt>
      <trkpt lat="59.165171" lon="18.132775">
        <ele>54</ele>
        <time>2019-08-17T13:50:36Z</time>
      </trkpt>
      <trkpt lat="59.165145" lon="18.132752">
        <ele>54</ele>
        <time>2019-08-17T13:50:38Z</time>
      </trkpt>
      <trkpt lat="59.165123" lon="18.132758">
        <ele>54</ele>
        <time>2019-08-17T13:50:39Z</time>
      </trkpt>
      <trkpt lat="59.165095" lon="18.132778">
        <ele>53</ele>
        <time>2019-08-17T13:50:40Z</time>
      </trkpt>
      <trkpt lat="59.16507" lon="18.132796">
        <ele>53</ele>
        <time>2019-08-17T13:50:41Z</time>
      </trkpt>
      <trkpt lat="59.165052" lon="18.132814">
        <ele>53</ele>
        <time>2019-08-17T13:50:42Z</time>
      </trkpt>
      <trkpt lat="59.165056" lon="18.132876">
        <ele>53</ele>
        <time>2019-08-17T13:50:44Z</time>
      </trkpt>
      <trkpt lat="59.165142" lon="18.132934">
        <ele>52</ele>
        <time>2019-08-17T13:50:48Z</time>
      </trkpt>
      <trkpt lat="59.165142" lon="18.132898">
        <ele>52</ele>
        <time>2019-08-17T13:50:49Z</time>
      </trkpt>
      <trkpt lat="59.165144" lon="18.132848">
        <ele>52</ele>
        <time>2019-08-17T13:50:50Z</time>
      </trkpt>
      <trkpt lat="59.165144" lon="18.1328">
        <ele>51</ele>
        <time>2019-08-17T13:50:51Z</time>
      </trkpt>
      <trkpt lat="59.165135" lon="18.132757">
        <ele>51</ele>
        <time>2019-08-17T13:50:52Z</time>
      </trkpt>
      <trkpt lat="59.165115" lon="18.13274">
        <ele>51</ele>
        <time>2019-08-17T13:50:53Z</time>
      </trkpt>
      <trkpt lat="59.165037" lon="18.132746">
        <ele>51</ele>
        <time>2019-08-17T13:50:58Z</time>
      </trkpt>
      <trkpt lat="59.165015" lon="18.132757">
        <ele>51</ele>
        <time>2019-08-17T13:50:59Z</time>
      </trkpt>
      <trkpt lat="59.164997" lon="18.132758">
        <ele>51</ele>
        <time>2019-08-17T13:51:01Z</time>
      </trkpt>
      <trkpt lat="59.164964" lon="18.13272">
        <ele>51</ele>
        <time>2019-08-17T13:51:03Z</time>
      </trkpt>
      <trkpt lat="59.164934" lon="18.132721">
        <ele>51</ele>
        <time>2019-08-17T13:51:04Z</time>
      </trkpt>
      <trkpt lat="59.164897" lon="18.132716">
        <ele>50</ele>
        <time>2019-08-17T13:51:05Z</time>
      </trkpt>
      <trkpt lat="59.164857" lon="18.132699">
        <ele>50</ele>
        <time>2019-08-17T13:51:06Z</time>
      </trkpt>
      <trkpt lat="59.164819" lon="18.13268">
        <ele>49</ele>
        <time>2019-08-17T13:51:07Z</time>
      </trkpt>
      <trkpt lat="59.164787" lon="18.132654">
        <ele>49</ele>
        <time>2019-08-17T13:51:08Z</time>
      </trkpt>
      <trkpt lat="59.164769" lon="18.132618">
        <ele>48</ele>
        <time>2019-08-17T13:51:09Z</time>
      </trkpt>
      <trkpt lat="59.164756" lon="18.132569">
        <ele>48</ele>
        <time>2019-08-17T13:51:10Z</time>
      </trkpt>
      <trkpt lat="59.164739" lon="18.132499">
        <ele>48</ele>
        <time>2019-08-17T13:51:11Z</time>
      </trkpt>
      <trkpt lat="59.164722" lon="18.13242">
        <ele>48</ele>
        <time>2019-08-17T13:51:12Z</time>
      </trkpt>
      <trkpt lat="59.164705" lon="18.132348">
        <ele>47</ele>
        <time>2019-08-17T13:51:13Z</time>
      </trkpt>
      <trkpt lat="59.164691" lon="18.132282">
        <ele>47</ele>
        <time>2019-08-17T13:51:14Z</time>
      </trkpt>
      <trkpt lat="59.164678" lon="18.132221">
        <ele>47</ele>
        <time>2019-08-17T13:51:15Z</time>
      </trkpt>
      <trkpt lat="59.164663" lon="18.132158">
        <ele>47</ele>
        <time>2019-08-17T13:51:16Z</time>
      </trkpt>
      <trkpt lat="59.164649" lon="18.132089">
        <ele>47</ele>
        <time>2019-08-17T13:51:17Z</time>
      </trkpt>
      <trkpt lat="59.164636" lon="18.132018">
        <ele>47</ele>
        <time>2019-08-17T13:51:18Z</time>
      </trkpt>
      <trkpt lat="59.164639" lon="18.131946">
        <ele>46</ele>
        <time>2019-08-17T13:51:19Z</time>
      </trkpt>
      <trkpt lat="59.164641" lon="18.13188">
        <ele>47</ele>
        <time>2019-08-17T13:51:20Z</time>
      </trkpt>
      <trkpt lat="59.164646" lon="18.131817">
        <ele>46</ele>
        <time>2019-08-17T13:51:21Z</time>
      </trkpt>
      <trkpt lat="59.164651" lon="18.131749">
        <ele>46</ele>
        <time>2019-08-17T13:51:22Z</time>
      </trkpt>
      <trkpt lat="59.164656" lon="18.131679">
        <ele>46</ele>
        <time>2019-08-17T13:51:23Z</time>
      </trkpt>
      <trkpt lat="59.164662" lon="18.131608">
        <ele>46</ele>
        <time>2019-08-17T13:51:24Z</time>
      </trkpt>
      <trkpt lat="59.164669" lon="18.131536">
        <ele>46</ele>
        <time>2019-08-17T13:51:25Z</time>
      </trkpt>
      <trkpt lat="59.164677" lon="18.131462">
        <ele>45</ele>
        <time>2019-08-17T13:51:26Z</time>
      </trkpt>
      <trkpt lat="59.164687" lon="18.131388">
        <ele>45</ele>
        <time>2019-08-17T13:51:27Z</time>
      </trkpt>
      <trkpt lat="59.164698" lon="18.131314">
        <ele>45</ele>
        <time>2019-08-17T13:51:28Z</time>
      </trkpt>
      <trkpt lat="59.16471" lon="18.131239">
        <ele>45</ele>
        <time>2019-08-17T13:51:29Z</time>
      </trkpt>
      <trkpt lat="59.164723" lon="18.131165">
        <ele>45</ele>
        <time>2019-08-17T13:51:30Z</time>
      </trkpt>
      <trkpt lat="59.164736" lon="18.131091">
        <ele>45</ele>
        <time>2019-08-17T13:51:31Z</time>
      </trkpt>
      <trkpt lat="59.164748" lon="18.131018">
        <ele>45</ele>
        <time>2019-08-17T13:51:32Z</time>
      </trkpt>
      <trkpt lat="59.164758" lon="18.130943">
        <ele>45</ele>
        <time>2019-08-17T13:51:33Z</time>
      </trkpt>
      <trkpt lat="59.164768" lon="18.130868">
        <ele>44</ele>
        <time>2019-08-17T13:51:34Z</time>
      </trkpt>
      <trkpt lat="59.164778" lon="18.130794">
        <ele>44</ele>
        <time>2019-08-17T13:51:35Z</time>
      </trkpt>
      <trkpt lat="59.164788" lon="18.130723">
        <ele>44</ele>
        <time>2019-08-17T13:51:36Z</time>
      </trkpt>
      <trkpt lat="59.164795" lon="18.130658">
        <ele>44</ele>
        <time>2019-08-17T13:51:37Z</time>
      </trkpt>
      <trkpt lat="59.1648" lon="18.130599">
        <ele>44</ele>
        <time>2019-08-17T13:51:38Z</time>
      </trkpt>
      <trkpt lat="59.164803" lon="18.130545">
        <ele>44</ele>
        <time>2019-08-17T13:51:39Z</time>
      </trkpt>
      <trkpt lat="59.164807" lon="18.130491">
        <ele>44</ele>
        <time>2019-08-17T13:51:40Z</time>
      </trkpt>
      <trkpt lat="59.164809" lon="18.130435">
        <ele>44</ele>
        <time>2019-08-17T13:51:41Z</time>
      </trkpt>
      <trkpt lat="59.164813" lon="18.130384">
        <ele>44</ele>
        <time>2019-08-17T13:51:42Z</time>
      </trkpt>
      <trkpt lat="59.164816" lon="18.130341">
        <ele>44</ele>
        <time>2019-08-17T13:51:43Z</time>
      </trkpt>
      <trkpt lat="59.164822" lon="18.130274">
        <ele>44</ele>
        <time>2019-08-17T13:51:45Z</time>
      </trkpt>
      <trkpt lat="59.164812" lon="18.130214">
        <ele>44</ele>
        <time>2019-08-17T13:51:47Z</time>
      </trkpt>
      <trkpt lat="59.164786" lon="18.130176">
        <ele>44</ele>
        <time>2019-08-17T13:51:49Z</time>
      </trkpt>
      <trkpt lat="59.164768" lon="18.130139">
        <ele>44</ele>
        <time>2019-08-17T13:51:51Z</time>
      </trkpt>
      <trkpt lat="59.164753" lon="18.130136">
        <ele>44</ele>
        <time>2019-08-17T13:51:57Z</time>
      </trkpt>
      <trkpt lat="59.164701" lon="18.130113">
        <ele>43</ele>
        <time>2019-08-17T13:52:11Z</time>
      </trkpt>
      <trkpt lat="59.164679" lon="18.130104">
        <ele>43</ele>
        <time>2019-08-17T13:52:11Z</time>
      </trkpt>
      <trkpt lat="59.164656" lon="18.130095">
        <ele>43</ele>
        <time>2019-08-17T13:52:12Z</time>
      </trkpt>
      <trkpt lat="59.164632" lon="18.130088">
        <ele>43</ele>
        <time>2019-08-17T13:52:13Z</time>
      </trkpt>
      <trkpt lat="59.164607" lon="18.130083">
        <ele>43</ele>
        <time>2019-08-17T13:52:14Z</time>
      </trkpt>
      <trkpt lat="59.164583" lon="18.13008">
        <ele>43</ele>
        <time>2019-08-17T13:52:15Z</time>
      </trkpt>
      <trkpt lat="59.16456" lon="18.13008">
        <ele>43</ele>
        <time>2019-08-17T13:52:16Z</time>
      </trkpt>
      <trkpt lat="59.16454" lon="18.13008">
        <ele>43</ele>
        <time>2019-08-17T13:52:17Z</time>
      </trkpt>
      <trkpt lat="59.164522" lon="18.130079">
        <ele>43</ele>
        <time>2019-08-17T13:52:18Z</time>
      </trkpt>
      <trkpt lat="59.1645" lon="18.130078">
        <ele>43</ele>
        <time>2019-08-17T13:52:19Z</time>
      </trkpt>
      <trkpt lat="59.164478" lon="18.130076">
        <ele>43</ele>
        <time>2019-08-17T13:52:20Z</time>
      </trkpt>
      <trkpt lat="59.164456" lon="18.130074">
        <ele>43</ele>
        <time>2019-08-17T13:52:21Z</time>
      </trkpt>
      <trkpt lat="59.164431" lon="18.130072">
        <ele>43</ele>
        <time>2019-08-17T13:52:22Z</time>
      </trkpt>
      <trkpt lat="59.164404" lon="18.130068">
        <ele>43</ele>
        <time>2019-08-17T13:52:23Z</time>
      </trkpt>
      <trkpt lat="59.164377" lon="18.130062">
        <ele>43</ele>
        <time>2019-08-17T13:52:24Z</time>
      </trkpt>
      <trkpt lat="59.16435" lon="18.130057">
        <ele>43</ele>
        <time>2019-08-17T13:52:25Z</time>
      </trkpt>
      <trkpt lat="59.164324" lon="18.130054">
        <ele>43</ele>
        <time>2019-08-17T13:52:26Z</time>
      </trkpt>
      <trkpt lat="59.164298" lon="18.130055">
        <ele>43</ele>
        <time>2019-08-17T13:52:27Z</time>
      </trkpt>
      <trkpt lat="59.16427" lon="18.130062">
        <ele>43</ele>
        <time>2019-08-17T13:52:28Z</time>
      </trkpt>
      <trkpt lat="59.164242" lon="18.130067">
        <ele>43</ele>
        <time>2019-08-17T13:52:29Z</time>
      </trkpt>
      <trkpt lat="59.164214" lon="18.13007">
        <ele>43</ele>
        <time>2019-08-17T13:52:30Z</time>
      </trkpt>
      <trkpt lat="59.164185" lon="18.130072">
        <ele>43</ele>
        <time>2019-08-17T13:52:31Z</time>
      </trkpt>
      <trkpt lat="59.164157" lon="18.130073">
        <ele>43</ele>
        <time>2019-08-17T13:52:32Z</time>
      </trkpt>
      <trkpt lat="59.164131" lon="18.130078">
        <ele>43</ele>
        <time>2019-08-17T13:52:33Z</time>
      </trkpt>
      <trkpt lat="59.164106" lon="18.130087">
        <ele>43</ele>
        <time>2019-08-17T13:52:34Z</time>
      </trkpt>
      <trkpt lat="59.164082" lon="18.130096">
        <ele>43</ele>
        <time>2019-08-17T13:52:35Z</time>
      </trkpt>
      <trkpt lat="59.164058" lon="18.130108">
        <ele>43</ele>
        <time>2019-08-17T13:52:36Z</time>
      </trkpt>
      <trkpt lat="59.164035" lon="18.130125">
        <ele>43</ele>
        <time>2019-08-17T13:52:37Z</time>
      </trkpt>
      <trkpt lat="59.16401" lon="18.130141">
        <ele>43</ele>
        <time>2019-08-17T13:52:38Z</time>
      </trkpt>
      <trkpt lat="59.163984" lon="18.130151">
        <ele>43</ele>
        <time>2019-08-17T13:52:39Z</time>
      </trkpt>
      <trkpt lat="59.163959" lon="18.130157">
        <ele>43</ele>
        <time>2019-08-17T13:52:40Z</time>
      </trkpt>
      <trkpt lat="59.163938" lon="18.130162">
        <ele>43</ele>
        <time>2019-08-17T13:52:41Z</time>
      </trkpt>
      <trkpt lat="59.163929" lon="18.130165">
        <ele>43</ele>
        <time>2019-08-17T13:52:45Z</time>
      </trkpt>
      <trkpt lat="59.163901" lon="18.130172">
        <ele>42</ele>
        <time>2019-08-17T13:53:01Z</time>
      </trkpt>
      <trkpt lat="59.163885" lon="18.130178">
        <ele>42</ele>
        <time>2019-08-17T13:53:01Z</time>
      </trkpt>
      <trkpt lat="59.16385" lon="18.130196">
        <ele>42</ele>
        <time>2019-08-17T13:53:03Z</time>
      </trkpt>
      <trkpt lat="59.163831" lon="18.130208">
        <ele>42</ele>
        <time>2019-08-17T13:53:04Z</time>
      </trkpt>
      <trkpt lat="59.16381" lon="18.130219">
        <ele>42</ele>
        <time>2019-08-17T13:53:05Z</time>
      </trkpt>
      <trkpt lat="59.16379" lon="18.130228">
        <ele>42</ele>
        <time>2019-08-17T13:53:06Z</time>
      </trkpt>
      <trkpt lat="59.163772" lon="18.130234">
        <ele>42</ele>
        <time>2019-08-17T13:53:07Z</time>
      </trkpt>
      <trkpt lat="59.163753" lon="18.13024">
        <ele>42</ele>
        <time>2019-08-17T13:53:08Z</time>
      </trkpt>
      <trkpt lat="59.163732" lon="18.13024">
        <ele>42</ele>
        <time>2019-08-17T13:53:09Z</time>
      </trkpt>
      <trkpt lat="59.163709" lon="18.130243">
        <ele>42</ele>
        <time>2019-08-17T13:53:10Z</time>
      </trkpt>
      <trkpt lat="59.163683" lon="18.130251">
        <ele>42</ele>
        <time>2019-08-17T13:53:11Z</time>
      </trkpt>
      <trkpt lat="59.163657" lon="18.130268">
        <ele>42</ele>
        <time>2019-08-17T13:53:12Z</time>
      </trkpt>
      <trkpt lat="59.163635" lon="18.130293">
        <ele>42</ele>
        <time>2019-08-17T13:53:13Z</time>
      </trkpt>
      <trkpt lat="59.163615" lon="18.130324">
        <ele>42</ele>
        <time>2019-08-17T13:53:14Z</time>
      </trkpt>
      <trkpt lat="59.163593" lon="18.13035">
        <ele>42</ele>
        <time>2019-08-17T13:53:15Z</time>
      </trkpt>
      <trkpt lat="59.163569" lon="18.130368">
        <ele>42</ele>
        <time>2019-08-17T13:53:16Z</time>
      </trkpt>
      <trkpt lat="59.163545" lon="18.130384">
        <ele>41</ele>
        <time>2019-08-17T13:53:17Z</time>
      </trkpt>
      <trkpt lat="59.163519" lon="18.130398">
        <ele>41</ele>
        <time>2019-08-17T13:53:18Z</time>
      </trkpt>
      <trkpt lat="59.163491" lon="18.13041">
        <ele>41</ele>
        <time>2019-08-17T13:53:19Z</time>
      </trkpt>
      <trkpt lat="59.163461" lon="18.130424">
        <ele>41</ele>
        <time>2019-08-17T13:53:20Z</time>
      </trkpt>
      <trkpt lat="59.16343" lon="18.130438">
        <ele>41</ele>
        <time>2019-08-17T13:53:21Z</time>
      </trkpt>
      <trkpt lat="59.163395" lon="18.130452">
        <ele>41</ele>
        <time>2019-08-17T13:53:22Z</time>
      </trkpt>
      <trkpt lat="59.163359" lon="18.130465">
        <ele>41</ele>
        <time>2019-08-17T13:53:23Z</time>
      </trkpt>
      <trkpt lat="59.163322" lon="18.130475">
        <ele>41</ele>
        <time>2019-08-17T13:53:24Z</time>
      </trkpt>
      <trkpt lat="59.163284" lon="18.13048">
        <ele>41</ele>
        <time>2019-08-17T13:53:25Z</time>
      </trkpt>
      <trkpt lat="59.163247" lon="18.130486">
        <ele>41</ele>
        <time>2019-08-17T13:53:26Z</time>
      </trkpt>
      <trkpt lat="59.16321" lon="18.130491">
        <ele>41</ele>
        <time>2019-08-17T13:53:27Z</time>
      </trkpt>
      <trkpt lat="59.163172" lon="18.130493">
        <ele>41</ele>
        <time>2019-08-17T13:53:28Z</time>
      </trkpt>
      <trkpt lat="59.163135" lon="18.130494">
        <ele>41</ele>
        <time>2019-08-17T13:53:29Z</time>
      </trkpt>
      <trkpt lat="59.163098" lon="18.130495">
        <ele>41</ele>
        <time>2019-08-17T13:53:30Z</time>
      </trkpt>
      <trkpt lat="59.163062" lon="18.130494">
        <ele>41</ele>
        <time>2019-08-17T13:53:31Z</time>
      </trkpt>
      <trkpt lat="59.163027" lon="18.130495">
        <ele>41</ele>
        <time>2019-08-17T13:53:32Z</time>
      </trkpt>
      <trkpt lat="59.162991" lon="18.130495">
        <ele>41</ele>
        <time>2019-08-17T13:53:33Z</time>
      </trkpt>
      <trkpt lat="59.162955" lon="18.130494">
        <ele>41</ele>
        <time>2019-08-17T13:53:34Z</time>
      </trkpt>
      <trkpt lat="59.162918" lon="18.130492">
        <ele>41</ele>
        <time>2019-08-17T13:53:35Z</time>
      </trkpt>
      <trkpt lat="59.162881" lon="18.130496">
        <ele>41</ele>
        <time>2019-08-17T13:53:36Z</time>
      </trkpt>
      <trkpt lat="59.162845" lon="18.130505">
        <ele>41</ele>
        <time>2019-08-17T13:53:37Z</time>
      </trkpt>
      <trkpt lat="59.162808" lon="18.130515">
        <ele>41</ele>
        <time>2019-08-17T13:53:38Z</time>
      </trkpt>
      <trkpt lat="59.162773" lon="18.130522">
        <ele>41</ele>
        <time>2019-08-17T13:53:39Z</time>
      </trkpt>
      <trkpt lat="59.162737" lon="18.130527">
        <ele>41</ele>
        <time>2019-08-17T13:53:40Z</time>
      </trkpt>
      <trkpt lat="59.162701" lon="18.13053">
        <ele>41</ele>
        <time>2019-08-17T13:53:41Z</time>
      </trkpt>
      <trkpt lat="59.162666" lon="18.130533">
        <ele>41</ele>
        <time>2019-08-17T13:53:42Z</time>
      </trkpt>
      <trkpt lat="59.162633" lon="18.130534">
        <ele>41</ele>
        <time>2019-08-17T13:53:43Z</time>
      </trkpt>
      <trkpt lat="59.1626" lon="18.130533">
        <ele>41</ele>
        <time>2019-08-17T13:53:44Z</time>
      </trkpt>
      <trkpt lat="59.162568" lon="18.13053">
        <ele>41</ele>
        <time>2019-08-17T13:53:45Z</time>
      </trkpt>
      <trkpt lat="59.16254" lon="18.130525">
        <ele>41</ele>
        <time>2019-08-17T13:53:46Z</time>
      </trkpt>
      <trkpt lat="59.162515" lon="18.130515">
        <ele>41</ele>
        <time>2019-08-17T13:53:47Z</time>
      </trkpt>
      <trkpt lat="59.162492" lon="18.130505">
        <ele>41</ele>
        <time>2019-08-17T13:53:48Z</time>
      </trkpt>
      <trkpt lat="59.162468" lon="18.130499">
        <ele>41</ele>
        <time>2019-08-17T13:53:49Z</time>
      </trkpt>
      <trkpt lat="59.162445" lon="18.130499">
        <ele>41</ele>
        <time>2019-08-17T13:53:50Z</time>
      </trkpt>
      <trkpt lat="59.162422" lon="18.130502">
        <ele>41</ele>
        <time>2019-08-17T13:53:51Z</time>
      </trkpt>
      <trkpt lat="59.162402" lon="18.130501">
        <ele>41</ele>
        <time>2019-08-17T13:53:52Z</time>
      </trkpt>
      <trkpt lat="59.162371" lon="18.130492">
        <ele>41</ele>
        <time>2019-08-17T13:53:54Z</time>
      </trkpt>
      <trkpt lat="59.162365" lon="18.130495">
        <ele>41</ele>
        <time>2019-08-17T13:54:00Z</time>
      </trkpt>
      <trkpt lat="59.162362" lon="18.130532">
        <ele>0</ele>
        <time>2019-08-17T13:54:45Z</time>
      </trkpt>
      <trkpt lat="59.162376" lon="18.130546">
        <ele>41</ele>
        <time>2019-08-17T13:54:45Z</time>
      </trkpt>
      <trkpt lat="59.162411" lon="18.130569">
        <ele>41</ele>
        <time>2019-08-17T13:54:47Z</time>
      </trkpt>
      <trkpt lat="59.162432" lon="18.130586">
        <ele>41</ele>
        <time>2019-08-17T13:54:48Z</time>
      </trkpt>
      <trkpt lat="59.162456" lon="18.130605">
        <ele>41</ele>
        <time>2019-08-17T13:54:49Z</time>
      </trkpt>
      <trkpt lat="59.16248" lon="18.130625">
        <ele>41</ele>
        <time>2019-08-17T13:54:50Z</time>
      </trkpt>
      <trkpt lat="59.162502" lon="18.130644">
        <ele>41</ele>
        <time>2019-08-17T13:54:51Z</time>
      </trkpt>
      <trkpt lat="59.162522" lon="18.130663">
        <ele>41</ele>
        <time>2019-08-17T13:54:52Z</time>
      </trkpt>
      <trkpt lat="59.162544" lon="18.130684">
        <ele>41</ele>
        <time>2019-08-17T13:54:53Z</time>
      </trkpt>
      <trkpt lat="59.162566" lon="18.130708">
        <ele>40</ele>
        <time>2019-08-17T13:54:54Z</time>
      </trkpt>
      <trkpt lat="59.162586" lon="18.130735">
        <ele>40</ele>
        <time>2019-08-17T13:54:55Z</time>
      </trkpt>
      <trkpt lat="59.162605" lon="18.130766">
        <ele>40</ele>
        <time>2019-08-17T13:54:56Z</time>
      </trkpt>
      <trkpt lat="59.162623" lon="18.130802">
        <ele>40</ele>
        <time>2019-08-17T13:54:57Z</time>
      </trkpt>
      <trkpt lat="59.162643" lon="18.13084">
        <ele>41</ele>
        <time>2019-08-17T13:54:58Z</time>
      </trkpt>
      <trkpt lat="59.162663" lon="18.130875">
        <ele>41</ele>
        <time>2019-08-17T13:54:59Z</time>
      </trkpt>
      <trkpt lat="59.162686" lon="18.130903">
        <ele>41</ele>
        <time>2019-08-17T13:55:00Z</time>
      </trkpt>
      <trkpt lat="59.162711" lon="18.130919">
        <ele>41</ele>
        <time>2019-08-17T13:55:01Z</time>
      </trkpt>
      <trkpt lat="59.162737" lon="18.13092">
        <ele>41</ele>
        <time>2019-08-17T13:55:02Z</time>
      </trkpt>
      <trkpt lat="59.162763" lon="18.13091">
        <ele>41</ele>
        <time>2019-08-17T13:55:03Z</time>
      </trkpt>
      <trkpt lat="59.16279" lon="18.130893">
        <ele>41</ele>
        <time>2019-08-17T13:55:04Z</time>
      </trkpt>
      <trkpt lat="59.162812" lon="18.130866">
        <ele>41</ele>
        <time>2019-08-17T13:55:05Z</time>
      </trkpt>
      <trkpt lat="59.162826" lon="18.130826">
        <ele>41</ele>
        <time>2019-08-17T13:55:06Z</time>
      </trkpt>
      <trkpt lat="59.162833" lon="18.130774">
        <ele>41</ele>
        <time>2019-08-17T13:55:07Z</time>
      </trkpt>
      <trkpt lat="59.16283" lon="18.130722">
        <ele>41</ele>
        <time>2019-08-17T13:55:08Z</time>
      </trkpt>
      <trkpt lat="59.162817" lon="18.130677">
        <ele>41</ele>
        <time>2019-08-17T13:55:09Z</time>
      </trkpt>
      <trkpt lat="59.162795" lon="18.130643">
        <ele>41</ele>
        <time>2019-08-17T13:55:10Z</time>
      </trkpt>
      <trkpt lat="59.162766" lon="18.130622">
        <ele>41</ele>
        <time>2019-08-17T13:55:11Z</time>
      </trkpt>
      <trkpt lat="59.162734" lon="18.130613">
        <ele>41</ele>
        <time>2019-08-17T13:55:12Z</time>
      </trkpt>
      <trkpt lat="59.162701" lon="18.13061">
        <ele>41</ele>
        <time>2019-08-17T13:55:13Z</time>
      </trkpt>
      <trkpt lat="59.16267" lon="18.130606">
        <ele>41</ele>
        <time>2019-08-17T13:55:14Z</time>
      </trkpt>
      <trkpt lat="59.16264" lon="18.130598">
        <ele>41</ele>
        <time>2019-08-17T13:55:15Z</time>
      </trkpt>
      <trkpt lat="59.162611" lon="18.130588">
        <ele>41</ele>
        <time>2019-08-17T13:55:16Z</time>
      </trkpt>
      <trkpt lat="59.162582" lon="18.130578">
        <ele>41</ele>
        <time>2019-08-17T13:55:17Z</time>
      </trkpt>
      <trkpt lat="59.162558" lon="18.13057">
        <ele>41</ele>
        <time>2019-08-17T13:55:18Z</time>
      </trkpt>
      <trkpt lat="59.162536" lon="18.130562">
        <ele>41</ele>
        <time>2019-08-17T13:55:19Z</time>
      </trkpt>
      <trkpt lat="59.162515" lon="18.130552">
        <ele>41</ele>
        <time>2019-08-17T13:55:20Z</time>
      </trkpt>
      <trkpt lat="59.162493" lon="18.130539">
        <ele>41</ele>
        <time>2019-08-17T13:55:21Z</time>
      </trkpt>
      <trkpt lat="59.162469" lon="18.130528">
        <ele>41</ele>
        <time>2019-08-17T13:55:22Z</time>
      </trkpt>
      <trkpt lat="59.162446" lon="18.130519">
        <ele>41</ele>
        <time>2019-08-17T13:55:23Z</time>
      </trkpt>
      <trkpt lat="59.162424" lon="18.130509">
        <ele>41</ele>
        <time>2019-08-17T13:55:24Z</time>
      </trkpt>
      <trkpt lat="59.162403" lon="18.130502">
        <ele>41</ele>
        <time>2019-08-17T13:55:25Z</time>
      </trkpt>
      <trkpt lat="59.162385" lon="18.130496">
        <ele>41</ele>
        <time>2019-08-17T13:55:26Z</time>
      </trkpt>
      <trkpt lat="59.162375" lon="18.130493">
        <ele>41</ele>
        <time>2019-08-17T13:55:31Z</time>
      </trkpt>
      <trkpt lat="59.162367" lon="18.130527">
        <ele>41</ele>
        <time>2019-08-17T13:58:25Z</time>
      </trkpt>
      <trkpt lat="59.162379" lon="18.130541">
        <ele>42</ele>
        <time>2019-08-17T13:58:25Z</time>
      </trkpt>
      <trkpt lat="59.162409" lon="18.130563">
        <ele>42</ele>
        <time>2019-08-17T13:58:27Z</time>
      </trkpt>
      <trkpt lat="59.162438" lon="18.130581">
        <ele>42</ele>
        <time>2019-08-17T13:58:29Z</time>
      </trkpt>
      <trkpt lat="59.162456" lon="18.130592">
        <ele>42</ele>
        <time>2019-08-17T13:58:30Z</time>
      </trkpt>
      <trkpt lat="59.162474" lon="18.130605">
        <ele>42</ele>
        <time>2019-08-17T13:58:31Z</time>
      </trkpt>
      <trkpt lat="59.162492" lon="18.130624">
        <ele>42</ele>
        <time>2019-08-17T13:58:32Z</time>
      </trkpt>
      <trkpt lat="59.162509" lon="18.130649">
        <ele>42</ele>
        <time>2019-08-17T13:58:33Z</time>
      </trkpt>
      <trkpt lat="59.162524" lon="18.130679">
        <ele>42</ele>
        <time>2019-08-17T13:58:34Z</time>
      </trkpt>
      <trkpt lat="59.162538" lon="18.13071">
        <ele>42</ele>
        <time>2019-08-17T13:58:35Z</time>
      </trkpt>
      <trkpt lat="59.16255" lon="18.130739">
        <ele>42</ele>
        <time>2019-08-17T13:58:36Z</time>
      </trkpt>
      <trkpt lat="59.162562" lon="18.130767">
        <ele>42</ele>
        <time>2019-08-17T13:58:37Z</time>
      </trkpt>
      <trkpt lat="59.162574" lon="18.130797">
        <ele>42</ele>
        <time>2019-08-17T13:58:38Z</time>
      </trkpt>
      <trkpt lat="59.162598" lon="18.130845">
        <ele>42</ele>
        <time>2019-08-17T13:58:40Z</time>
      </trkpt>
      <trkpt lat="59.162614" lon="18.130865">
        <ele>42</ele>
        <time>2019-08-17T13:58:41Z</time>
      </trkpt>
      <trkpt lat="59.162632" lon="18.130882">
        <ele>42</ele>
        <time>2019-08-17T13:58:42Z</time>
      </trkpt>
      <trkpt lat="59.162651" lon="18.130894">
        <ele>42</ele>
        <time>2019-08-17T13:58:43Z</time>
      </trkpt>
      <trkpt lat="59.162671" lon="18.130901">
        <ele>42</ele>
        <time>2019-08-17T13:58:44Z</time>
      </trkpt>
      <trkpt lat="59.162692" lon="18.130904">
        <ele>42</ele>
        <time>2019-08-17T13:58:45Z</time>
      </trkpt>
      <trkpt lat="59.162713" lon="18.130907">
        <ele>42</ele>
        <time>2019-08-17T13:58:46Z</time>
      </trkpt>
      <trkpt lat="59.162732" lon="18.130909">
        <ele>42</ele>
        <time>2019-08-17T13:58:47Z</time>
      </trkpt>
      <trkpt lat="59.16275" lon="18.130904">
        <ele>42</ele>
        <time>2019-08-17T13:58:48Z</time>
      </trkpt>
      <trkpt lat="59.162768" lon="18.130888">
        <ele>42</ele>
        <time>2019-08-17T13:58:49Z</time>
      </trkpt>
      <trkpt lat="59.162788" lon="18.130865">
        <ele>42</ele>
        <time>2019-08-17T13:58:50Z</time>
      </trkpt>
      <trkpt lat="59.162808" lon="18.130839">
        <ele>42</ele>
        <time>2019-08-17T13:58:51Z</time>
      </trkpt>
      <trkpt lat="59.162828" lon="18.130817">
        <ele>42</ele>
        <time>2019-08-17T13:58:52Z</time>
      </trkpt>
      <trkpt lat="59.162849" lon="18.130801">
        <ele>42</ele>
        <time>2019-08-17T13:58:53Z</time>
      </trkpt>
      <trkpt lat="59.162872" lon="18.130786">
        <ele>42</ele>
        <time>2019-08-17T13:58:54Z</time>
      </trkpt>
      <trkpt lat="59.162894" lon="18.13077">
        <ele>42</ele>
        <time>2019-08-17T13:58:55Z</time>
      </trkpt>
      <trkpt lat="59.162916" lon="18.130758">
        <ele>42</ele>
        <time>2019-08-17T13:58:56Z</time>
      </trkpt>
      <trkpt lat="59.162938" lon="18.130747">
        <ele>42</ele>
        <time>2019-08-17T13:58:57Z</time>
      </trkpt>
      <trkpt lat="59.16296" lon="18.130734">
        <ele>42</ele>
        <time>2019-08-17T13:58:58Z</time>
      </trkpt>
      <trkpt lat="59.162981" lon="18.130719">
        <ele>42</ele>
        <time>2019-08-17T13:58:59Z</time>
      </trkpt>
      <trkpt lat="59.162999" lon="18.130706">
        <ele>42</ele>
        <time>2019-08-17T13:59:00Z</time>
      </trkpt>
      <trkpt lat="59.16302" lon="18.130684">
        <ele>42</ele>
        <time>2019-08-17T13:59:02Z</time>
      </trkpt>
      <trkpt lat="59.163045" lon="18.130654">
        <ele>42</ele>
        <time>2019-08-17T13:59:04Z</time>
      </trkpt>
      <trkpt lat="59.163074" lon="18.130617">
        <ele>42</ele>
        <time>2019-08-17T13:59:06Z</time>
      </trkpt>
      <trkpt lat="59.163099" lon="18.130591">
        <ele>42</ele>
        <time>2019-08-17T13:59:08Z</time>
      </trkpt>
      <trkpt lat="59.163126" lon="18.130575">
        <ele>42</ele>
        <time>2019-08-17T13:59:10Z</time>
      </trkpt>
      <trkpt lat="59.163155" lon="18.130574">
        <ele>42</ele>
        <time>2019-08-17T13:59:12Z</time>
      </trkpt>
      <trkpt lat="59.163183" lon="18.130584">
        <ele>42</ele>
        <time>2019-08-17T13:59:14Z</time>
      </trkpt>
      <trkpt lat="59.163203" lon="18.130599">
        <ele>42</ele>
        <time>2019-08-17T13:59:16Z</time>
      </trkpt>
      <trkpt lat="59.163211" lon="18.130612">
        <ele>42</ele>
        <time>2019-08-17T13:59:21Z</time>
      </trkpt>
      <trkpt lat="59.163231" lon="18.130683">
        <ele>0</ele>
        <time>2019-08-17T13:59:51Z</time>
      </trkpt>
      <trkpt lat="59.163233" lon="18.130712">
        <ele>41</ele>
        <time>2019-08-17T13:59:51Z</time>
      </trkpt>
      <trkpt lat="59.163228" lon="18.130769">
        <ele>42</ele>
        <time>2019-08-17T13:59:53Z</time>
      </trkpt>
      <trkpt lat="59.163201" lon="18.130806">
        <ele>42</ele>
        <time>2019-08-17T13:59:55Z</time>
      </trkpt>
      <trkpt lat="59.163183" lon="18.13081">
        <ele>42</ele>
        <time>2019-08-17T13:59:56Z</time>
      </trkpt>
      <trkpt lat="59.16315" lon="18.130813">
        <ele>42</ele>
        <time>2019-08-17T13:59:58Z</time>
      </trkpt>
      <trkpt lat="59.163115" lon="18.130814">
        <ele>42</ele>
        <time>2019-08-17T14:00:00Z</time>
      </trkpt>
      <trkpt lat="59.163096" lon="18.130816">
        <ele>42</ele>
        <time>2019-08-17T14:00:01Z</time>
      </trkpt>
      <trkpt lat="59.163076" lon="18.130821">
        <ele>42</ele>
        <time>2019-08-17T14:00:02Z</time>
      </trkpt>
      <trkpt lat="59.163053" lon="18.130826">
        <ele>42</ele>
        <time>2019-08-17T14:00:03Z</time>
      </trkpt>
      <trkpt lat="59.163031" lon="18.13083">
        <ele>42</ele>
        <time>2019-08-17T14:00:04Z</time>
      </trkpt>
      <trkpt lat="59.16301" lon="18.130831">
        <ele>42</ele>
        <time>2019-08-17T14:00:05Z</time>
      </trkpt>
      <trkpt lat="59.162991" lon="18.130824">
        <ele>42</ele>
        <time>2019-08-17T14:00:06Z</time>
      </trkpt>
      <trkpt lat="59.162957" lon="18.130816">
        <ele>42</ele>
        <time>2019-08-17T14:00:08Z</time>
      </trkpt>
      <trkpt lat="59.162936" lon="18.13082">
        <ele>42</ele>
        <time>2019-08-17T14:00:09Z</time>
      </trkpt>
      <trkpt lat="59.162911" lon="18.130823">
        <ele>42</ele>
        <time>2019-08-17T14:00:10Z</time>
      </trkpt>
      <trkpt lat="59.162885" lon="18.130826">
        <ele>42</ele>
        <time>2019-08-17T14:00:11Z</time>
      </trkpt>
      <trkpt lat="59.162863" lon="18.130836">
        <ele>42</ele>
        <time>2019-08-17T14:00:12Z</time>
      </trkpt>
      <trkpt lat="59.162844" lon="18.130852">
        <ele>42</ele>
        <time>2019-08-17T14:00:13Z</time>
      </trkpt>
      <trkpt lat="59.162827" lon="18.130867">
        <ele>42</ele>
        <time>2019-08-17T14:00:14Z</time>
      </trkpt>
      <trkpt lat="59.162795" lon="18.13089">
        <ele>42</ele>
        <time>2019-08-17T14:00:16Z</time>
      </trkpt>
      <trkpt lat="59.162762" lon="18.130912">
        <ele>42</ele>
        <time>2019-08-17T14:00:18Z</time>
      </trkpt>
      <trkpt lat="59.162744" lon="18.130917">
        <ele>42</ele>
        <time>2019-08-17T14:00:19Z</time>
      </trkpt>
      <trkpt lat="59.16271" lon="18.13091">
        <ele>42</ele>
        <time>2019-08-17T14:00:21Z</time>
      </trkpt>
      <trkpt lat="59.162678" lon="18.130897">
        <ele>42</ele>
        <time>2019-08-17T14:00:23Z</time>
      </trkpt>
      <trkpt lat="59.162658" lon="18.13089">
        <ele>42</ele>
        <time>2019-08-17T14:00:24Z</time>
      </trkpt>
      <trkpt lat="59.162639" lon="18.130885">
        <ele>42</ele>
        <time>2019-08-17T14:00:25Z</time>
      </trkpt>
      <trkpt lat="59.162618" lon="18.130882">
        <ele>42</ele>
        <time>2019-08-17T14:00:26Z</time>
      </trkpt>
      <trkpt lat="59.162595" lon="18.130886">
        <ele>42</ele>
        <time>2019-08-17T14:00:27Z</time>
      </trkpt>
      <trkpt lat="59.162572" lon="18.130891">
        <ele>42</ele>
        <time>2019-08-17T14:00:28Z</time>
      </trkpt>
      <trkpt lat="59.162551" lon="18.130897">
        <ele>42</ele>
        <time>2019-08-17T14:00:29Z</time>
      </trkpt>
      <trkpt lat="59.162531" lon="18.130906">
        <ele>42</ele>
        <time>2019-08-17T14:00:30Z</time>
      </trkpt>
      <trkpt lat="59.162511" lon="18.13091">
        <ele>42</ele>
        <time>2019-08-17T14:00:31Z</time>
      </trkpt>
      <trkpt lat="59.162493" lon="18.130901">
        <ele>42</ele>
        <time>2019-08-17T14:00:32Z</time>
      </trkpt>
      <trkpt lat="59.162469" lon="18.130853">
        <ele>42</ele>
        <time>2019-08-17T14:00:34Z</time>
      </trkpt>
      <trkpt lat="59.162461" lon="18.13082">
        <ele>42</ele>
        <time>2019-08-17T14:00:35Z</time>
      </trkpt>
      <trkpt lat="59.162454" lon="18.130782">
        <ele>42</ele>
        <time>2019-08-17T14:00:36Z</time>
      </trkpt>
      <trkpt lat="59.162447" lon="18.130742">
        <ele>42</ele>
        <time>2019-08-17T14:00:37Z</time>
      </trkpt>
      <trkpt lat="59.162441" lon="18.130702">
        <ele>42</ele>
        <time>2019-08-17T14:00:38Z</time>
      </trkpt>
      <trkpt lat="59.162437" lon="18.130659">
        <ele>42</ele>
        <time>2019-08-17T14:00:39Z</time>
      </trkpt>
      <trkpt lat="59.162434" lon="18.130618">
        <ele>42</ele>
        <time>2019-08-17T14:00:40Z</time>
      </trkpt>
      <trkpt lat="59.162429" lon="18.130581">
        <ele>42</ele>
        <time>2019-08-17T14:00:41Z</time>
      </trkpt>
      <trkpt lat="59.162409" lon="18.130529">
        <ele>42</ele>
        <time>2019-08-17T14:00:43Z</time>
      </trkpt>
      <trkpt lat="59.162385" lon="18.130519">
        <ele>42</ele>
        <time>2019-08-17T14:00:45Z</time>
      </trkpt>
      <trkpt lat="59.162383" lon="18.130522">
        <ele>42</ele>
        <time>2019-08-17T14:00:49Z</time>
      </trkpt>
      <trkpt lat="59.162418" lon="18.130681">
        <ele>42</ele>
        <time>2019-08-17T14:04:41Z</time>
      </trkpt>
      <trkpt lat="59.162436" lon="18.130715">
        <ele>43</ele>
        <time>2019-08-17T14:04:41Z</time>
      </trkpt>
      <trkpt lat="59.162454" lon="18.130749">
        <ele>43</ele>
        <time>2019-08-17T14:04:42Z</time>
      </trkpt>
      <trkpt lat="59.162472" lon="18.130781">
        <ele>43</ele>
        <time>2019-08-17T14:04:43Z</time>
      </trkpt>
      <trkpt lat="59.162491" lon="18.13081">
        <ele>43</ele>
        <time>2019-08-17T14:04:44Z</time>
      </trkpt>
      <trkpt lat="59.162509" lon="18.130836">
        <ele>43</ele>
        <time>2019-08-17T14:04:45Z</time>
      </trkpt>
      <trkpt lat="59.162527" lon="18.130858">
        <ele>43</ele>
        <time>2019-08-17T14:04:46Z</time>
      </trkpt>
      <trkpt lat="59.162545" lon="18.13088">
        <ele>43</ele>
        <time>2019-08-17T14:04:47Z</time>
      </trkpt>
      <trkpt lat="59.162561" lon="18.130902">
        <ele>43</ele>
        <time>2019-08-17T14:04:48Z</time>
      </trkpt>
      <trkpt lat="59.162586" lon="18.130944">
        <ele>43</ele>
        <time>2019-08-17T14:04:50Z</time>
      </trkpt>
      <trkpt lat="59.162609" lon="18.130985">
        <ele>43</ele>
        <time>2019-08-17T14:04:52Z</time>
      </trkpt>
      <trkpt lat="59.162634" lon="18.131015">
        <ele>43</ele>
        <time>2019-08-17T14:04:54Z</time>
      </trkpt>
      <trkpt lat="59.162663" lon="18.131018">
        <ele>43</ele>
        <time>2019-08-17T14:04:56Z</time>
      </trkpt>
      <trkpt lat="59.162696" lon="18.131017">
        <ele>43</ele>
        <time>2019-08-17T14:04:58Z</time>
      </trkpt>
      <trkpt lat="59.162729" lon="18.131008">
        <ele>43</ele>
        <time>2019-08-17T14:05:00Z</time>
      </trkpt>
      <trkpt lat="59.16275" lon="18.130986">
        <ele>43</ele>
        <time>2019-08-17T14:05:02Z</time>
      </trkpt>
      <trkpt lat="59.162763" lon="18.130949">
        <ele>43</ele>
        <time>2019-08-17T14:05:04Z</time>
      </trkpt>
      <trkpt lat="59.162759" lon="18.130889">
        <ele>43</ele>
        <time>2019-08-17T14:05:06Z</time>
      </trkpt>
      <trkpt lat="59.162749" lon="18.130856">
        <ele>43</ele>
        <time>2019-08-17T14:05:07Z</time>
      </trkpt>
      <trkpt lat="59.162732" lon="18.130829">
        <ele>43</ele>
        <time>2019-08-17T14:05:08Z</time>
      </trkpt>
      <trkpt lat="59.162711" lon="18.130806">
        <ele>43</ele>
        <time>2019-08-17T14:05:09Z</time>
      </trkpt>
      <trkpt lat="59.162688" lon="18.130786">
        <ele>43</ele>
        <time>2019-08-17T14:05:10Z</time>
      </trkpt>
      <trkpt lat="59.162665" lon="18.130767">
        <ele>43</ele>
        <time>2019-08-17T14:05:11Z</time>
      </trkpt>
      <trkpt lat="59.162642" lon="18.130749">
        <ele>43</ele>
        <time>2019-08-17T14:05:12Z</time>
      </trkpt>
      <trkpt lat="59.162617" lon="18.130732">
        <ele>43</ele>
        <time>2019-08-17T14:05:13Z</time>
      </trkpt>
      <trkpt lat="59.162594" lon="18.130716">
        <ele>43</ele>
        <time>2019-08-17T14:05:14Z</time>
      </trkpt>
      <trkpt lat="59.162572" lon="18.130699">
        <ele>43</ele>
        <time>2019-08-17T14:05:15Z</time>
      </trkpt>
      <trkpt lat="59.162553" lon="18.130681">
        <ele>43</ele>
        <time>2019-08-17T14:05:16Z</time>
      </trkpt>
      <trkpt lat="59.162533" lon="18.130665">
        <ele>43</ele>
        <time>2019-08-17T14:05:17Z</time>
      </trkpt>
      <trkpt lat="59.162514" lon="18.130648">
        <ele>43</ele>
        <time>2019-08-17T14:05:18Z</time>
      </trkpt>
      <trkpt lat="59.162496" lon="18.130626">
        <ele>43</ele>
        <time>2019-08-17T14:05:19Z</time>
      </trkpt>
      <trkpt lat="59.162479" lon="18.130605">
        <ele>43</ele>
        <time>2019-08-17T14:05:20Z</time>
      </trkpt>
      <trkpt lat="59.162463" lon="18.130584">
        <ele>43</ele>
        <time>2019-08-17T14:05:21Z</time>
      </trkpt>
      <trkpt lat="59.162437" lon="18.130551">
        <ele>43</ele>
        <time>2019-08-17T14:05:23Z</time>
      </trkpt>
      <trkpt lat="59.162411" lon="18.130558">
        <ele>43</ele>
        <time>2019-08-17T14:05:25Z</time>
      </trkpt>
      <trkpt lat="59.16241" lon="18.130626">
        <ele>43</ele>
        <time>2019-08-17T14:05:27Z</time>
      </trkpt>
      <trkpt lat="59.162417" lon="18.130671">
        <ele>43</ele>
        <time>2019-08-17T14:05:28Z</time>
      </trkpt>
      <trkpt lat="59.162429" lon="18.130718">
        <ele>43</ele>
        <time>2019-08-17T14:05:29Z</time>
      </trkpt>
      <trkpt lat="59.162444" lon="18.130757">
        <ele>43</ele>
        <time>2019-08-17T14:05:30Z</time>
      </trkpt>
      <trkpt lat="59.162461" lon="18.130788">
        <ele>43</ele>
        <time>2019-08-17T14:05:31Z</time>
      </trkpt>
      <trkpt lat="59.162482" lon="18.130819">
        <ele>43</ele>
        <time>2019-08-17T14:05:32Z</time>
      </trkpt>
      <trkpt lat="59.162504" lon="18.130846">
        <ele>43</ele>
        <time>2019-08-17T14:05:33Z</time>
      </trkpt>
      <trkpt lat="59.162526" lon="18.130872">
        <ele>43</ele>
        <time>2019-08-17T14:05:34Z</time>
      </trkpt>
      <trkpt lat="59.162549" lon="18.130897">
        <ele>42</ele>
        <time>2019-08-17T14:05:35Z</time>
      </trkpt>
      <trkpt lat="59.162573" lon="18.130919">
        <ele>42</ele>
        <time>2019-08-17T14:05:36Z</time>
      </trkpt>
      <trkpt lat="59.162597" lon="18.130933">
        <ele>42</ele>
        <time>2019-08-17T14:05:37Z</time>
      </trkpt>
      <trkpt lat="59.162621" lon="18.130936">
        <ele>42</ele>
        <time>2019-08-17T14:05:38Z</time>
      </trkpt>
      <trkpt lat="59.162646" lon="18.130923">
        <ele>42</ele>
        <time>2019-08-17T14:05:39Z</time>
      </trkpt>
      <trkpt lat="59.162666" lon="18.130895">
        <ele>42</ele>
        <time>2019-08-17T14:05:40Z</time>
      </trkpt>
      <trkpt lat="59.162675" lon="18.130857">
        <ele>42</ele>
        <time>2019-08-17T14:05:41Z</time>
      </trkpt>
      <trkpt lat="59.162673" lon="18.130818">
        <ele>42</ele>
        <time>2019-08-17T14:05:42Z</time>
      </trkpt>
      <trkpt lat="59.162662" lon="18.130785">
        <ele>42</ele>
        <time>2019-08-17T14:05:43Z</time>
      </trkpt>
      <trkpt lat="59.162645" lon="18.130761">
        <ele>42</ele>
        <time>2019-08-17T14:05:44Z</time>
      </trkpt>
      <trkpt lat="59.162627" lon="18.130746">
        <ele>42</ele>
        <time>2019-08-17T14:05:45Z</time>
      </trkpt>
      <trkpt lat="59.162592" lon="18.130738">
        <ele>42</ele>
        <time>2019-08-17T14:05:47Z</time>
      </trkpt>
      <trkpt lat="59.16257" lon="18.130732">
        <ele>42</ele>
        <time>2019-08-17T14:05:48Z</time>
      </trkpt>
      <trkpt lat="59.162546" lon="18.130717">
        <ele>42</ele>
        <time>2019-08-17T14:05:49Z</time>
      </trkpt>
      <trkpt lat="59.162523" lon="18.130694">
        <ele>42</ele>
        <time>2019-08-17T14:05:50Z</time>
      </trkpt>
      <trkpt lat="59.162501" lon="18.130667">
        <ele>42</ele>
        <time>2019-08-17T14:05:51Z</time>
      </trkpt>
      <trkpt lat="59.162481" lon="18.130639">
        <ele>42</ele>
        <time>2019-08-17T14:05:52Z</time>
      </trkpt>
      <trkpt lat="59.162462" lon="18.130614">
        <ele>42</ele>
        <time>2019-08-17T14:05:53Z</time>
      </trkpt>
      <trkpt lat="59.162443" lon="18.130593">
        <ele>42</ele>
        <time>2019-08-17T14:05:54Z</time>
      </trkpt>
      <trkpt lat="59.162425" lon="18.130573">
        <ele>42</ele>
        <time>2019-08-17T14:05:55Z</time>
      </trkpt>
      <trkpt lat="59.162409" lon="18.130551">
        <ele>42</ele>
        <time>2019-08-17T14:05:56Z</time>
      </trkpt>
      <trkpt lat="59.162387" lon="18.130511">
        <ele>42</ele>
        <time>2019-08-17T14:05:58Z</time>
      </trkpt>
      <trkpt lat="59.162382" lon="18.130501">
        <ele>42</ele>
        <time>2019-08-17T14:06:03Z</time>
      </trkpt>
      <trkpt lat="59.162355" lon="18.130475">
        <ele>43</ele>
        <time>2019-08-17T14:15:57Z</time>
      </trkpt>
      <trkpt lat="59.162322" lon="18.13046">
        <ele>43</ele>
        <time>2019-08-17T14:15:58Z</time>
      </trkpt>
      <trkpt lat="59.162302" lon="18.130443">
        <ele>43</ele>
        <time>2019-08-17T14:15:59Z</time>
      </trkpt>
      <trkpt lat="59.162281" lon="18.13042">
        <ele>43</ele>
        <time>2019-08-17T14:16:00Z</time>
      </trkpt>
      <trkpt lat="59.162259" lon="18.130398">
        <ele>43</ele>
        <time>2019-08-17T14:16:01Z</time>
      </trkpt>
      <trkpt lat="59.162234" lon="18.130381">
        <ele>43</ele>
        <time>2019-08-17T14:16:02Z</time>
      </trkpt>
      <trkpt lat="59.162209" lon="18.130368">
        <ele>43</ele>
        <time>2019-08-17T14:16:03Z</time>
      </trkpt>
      <trkpt lat="59.162181" lon="18.130359">
        <ele>43</ele>
        <time>2019-08-17T14:16:04Z</time>
      </trkpt>
      <trkpt lat="59.162147" lon="18.130349">
        <ele>43</ele>
        <time>2019-08-17T14:16:05Z</time>
      </trkpt>
      <trkpt lat="59.162111" lon="18.130335">
        <ele>44</ele>
        <time>2019-08-17T14:16:06Z</time>
      </trkpt>
      <trkpt lat="59.162075" lon="18.13032">
        <ele>44</ele>
        <time>2019-08-17T14:16:07Z</time>
      </trkpt>
      <trkpt lat="59.162038" lon="18.13031">
        <ele>44</ele>
        <time>2019-08-17T14:16:08Z</time>
      </trkpt>
      <trkpt lat="59.162" lon="18.130301">
        <ele>44</ele>
        <time>2019-08-17T14:16:09Z</time>
      </trkpt>
      <trkpt lat="59.161961" lon="18.130285">
        <ele>44</ele>
        <time>2019-08-17T14:16:10Z</time>
      </trkpt>
      <trkpt lat="59.161924" lon="18.13026">
        <ele>44</ele>
        <time>2019-08-17T14:16:11Z</time>
      </trkpt>
      <trkpt lat="59.161888" lon="18.130233">
        <ele>44</ele>
        <time>2019-08-17T14:16:12Z</time>
      </trkpt>
      <trkpt lat="59.161851" lon="18.13021">
        <ele>44</ele>
        <time>2019-08-17T14:16:13Z</time>
      </trkpt>
      <trkpt lat="59.161815" lon="18.130194">
        <ele>44</ele>
        <time>2019-08-17T14:16:14Z</time>
      </trkpt>
      <trkpt lat="59.161778" lon="18.130185">
        <ele>44</ele>
        <time>2019-08-17T14:16:15Z</time>
      </trkpt>
      <trkpt lat="59.161739" lon="18.130182">
        <ele>44</ele>
        <time>2019-08-17T14:16:16Z</time>
      </trkpt>
      <trkpt lat="59.161701" lon="18.130182">
        <ele>44</ele>
        <time>2019-08-17T14:16:17Z</time>
      </trkpt>
      <trkpt lat="59.161663" lon="18.130187">
        <ele>44</ele>
        <time>2019-08-17T14:16:18Z</time>
      </trkpt>
      <trkpt lat="59.161627" lon="18.130198">
        <ele>44</ele>
        <time>2019-08-17T14:16:19Z</time>
      </trkpt>
      <trkpt lat="59.161593" lon="18.130209">
        <ele>44</ele>
        <time>2019-08-17T14:16:20Z</time>
      </trkpt>
      <trkpt lat="59.161562" lon="18.130223">
        <ele>44</ele>
        <time>2019-08-17T14:16:21Z</time>
      </trkpt>
      <trkpt lat="59.161531" lon="18.130237">
        <ele>44</ele>
        <time>2019-08-17T14:16:22Z</time>
      </trkpt>
      <trkpt lat="59.161503" lon="18.130249">
        <ele>44</ele>
        <time>2019-08-17T14:16:23Z</time>
      </trkpt>
      <trkpt lat="59.161472" lon="18.130255">
        <ele>44</ele>
        <time>2019-08-17T14:16:24Z</time>
      </trkpt>
      <trkpt lat="59.161441" lon="18.130253">
        <ele>44</ele>
        <time>2019-08-17T14:16:25Z</time>
      </trkpt>
      <trkpt lat="59.16141" lon="18.130252">
        <ele>45</ele>
        <time>2019-08-17T14:16:26Z</time>
      </trkpt>
      <trkpt lat="59.161377" lon="18.130246">
        <ele>45</ele>
        <time>2019-08-17T14:16:27Z</time>
      </trkpt>
      <trkpt lat="59.161346" lon="18.130239">
        <ele>45</ele>
        <time>2019-08-17T14:16:28Z</time>
      </trkpt>
      <trkpt lat="59.161314" lon="18.130227">
        <ele>45</ele>
        <time>2019-08-17T14:16:29Z</time>
      </trkpt>
      <trkpt lat="59.161281" lon="18.130215">
        <ele>45</ele>
        <time>2019-08-17T14:16:30Z</time>
      </trkpt>
      <trkpt lat="59.161248" lon="18.130201">
        <ele>45</ele>
        <time>2019-08-17T14:16:31Z</time>
      </trkpt>
      <trkpt lat="59.161214" lon="18.130181">
        <ele>45</ele>
        <time>2019-08-17T14:16:32Z</time>
      </trkpt>
      <trkpt lat="59.161182" lon="18.130162">
        <ele>45</ele>
        <time>2019-08-17T14:16:33Z</time>
      </trkpt>
      <trkpt lat="59.16115" lon="18.130142">
        <ele>45</ele>
        <time>2019-08-17T14:16:34Z</time>
      </trkpt>
      <trkpt lat="59.161116" lon="18.130119">
        <ele>45</ele>
        <time>2019-08-17T14:16:35Z</time>
      </trkpt>
      <trkpt lat="59.161083" lon="18.130087">
        <ele>45</ele>
        <time>2019-08-17T14:16:36Z</time>
      </trkpt>
      <trkpt lat="59.161052" lon="18.13005">
        <ele>46</ele>
        <time>2019-08-17T14:16:37Z</time>
      </trkpt>
      <trkpt lat="59.161023" lon="18.130008">
        <ele>46</ele>
        <time>2019-08-17T14:16:38Z</time>
      </trkpt>
      <trkpt lat="59.160997" lon="18.129967">
        <ele>46</ele>
        <time>2019-08-17T14:16:39Z</time>
      </trkpt>
      <trkpt lat="59.160972" lon="18.129929">
        <ele>46</ele>
        <time>2019-08-17T14:16:40Z</time>
      </trkpt>
      <trkpt lat="59.160949" lon="18.129895">
        <ele>46</ele>
        <time>2019-08-17T14:16:41Z</time>
      </trkpt>
      <trkpt lat="59.160926" lon="18.12986">
        <ele>46</ele>
        <time>2019-08-17T14:16:42Z</time>
      </trkpt>
      <trkpt lat="59.160902" lon="18.129824">
        <ele>46</ele>
        <time>2019-08-17T14:16:43Z</time>
      </trkpt>
      <trkpt lat="59.160877" lon="18.129791">
        <ele>46</ele>
        <time>2019-08-17T14:16:44Z</time>
      </trkpt>
      <trkpt lat="59.160851" lon="18.129761">
        <ele>46</ele>
        <time>2019-08-17T14:16:45Z</time>
      </trkpt>
      <trkpt lat="59.160822" lon="18.129731">
        <ele>46</ele>
        <time>2019-08-17T14:16:46Z</time>
      </trkpt>
      <trkpt lat="59.160793" lon="18.129702">
        <ele>47</ele>
        <time>2019-08-17T14:16:47Z</time>
      </trkpt>
      <trkpt lat="59.16077" lon="18.129686">
        <ele>47</ele>
        <time>2019-08-17T14:16:48Z</time>
      </trkpt>
      <trkpt lat="59.160743" lon="18.129664">
        <ele>47</ele>
        <time>2019-08-17T14:16:49Z</time>
      </trkpt>
      <trkpt lat="59.160717" lon="18.129645">
        <ele>47</ele>
        <time>2019-08-17T14:16:50Z</time>
      </trkpt>
      <trkpt lat="59.160694" lon="18.129632">
        <ele>47</ele>
        <time>2019-08-17T14:16:51Z</time>
      </trkpt>
      <trkpt lat="59.160674" lon="18.129621">
        <ele>47</ele>
        <time>2019-08-17T14:16:52Z</time>
      </trkpt>
      <trkpt lat="59.160654" lon="18.129599">
        <ele>47</ele>
        <time>2019-08-17T14:16:53Z</time>
      </trkpt>
      <trkpt lat="59.160636" lon="18.129573">
        <ele>47</ele>
        <time>2019-08-17T14:16:54Z</time>
      </trkpt>
      <trkpt lat="59.160617" lon="18.129546">
        <ele>48</ele>
        <time>2019-08-17T14:16:55Z</time>
      </trkpt>
      <trkpt lat="59.160598" lon="18.129525">
        <ele>48</ele>
        <time>2019-08-17T14:16:56Z</time>
      </trkpt>
      <trkpt lat="59.160575" lon="18.129505">
        <ele>48</ele>
        <time>2019-08-17T14:16:57Z</time>
      </trkpt>
      <trkpt lat="59.160552" lon="18.129485">
        <ele>48</ele>
        <time>2019-08-17T14:16:58Z</time>
      </trkpt>
      <trkpt lat="59.160527" lon="18.129466">
        <ele>48</ele>
        <time>2019-08-17T14:16:59Z</time>
      </trkpt>
      <trkpt lat="59.160503" lon="18.129446">
        <ele>49</ele>
        <time>2019-08-17T14:17:00Z</time>
      </trkpt>
      <trkpt lat="59.160479" lon="18.129427">
        <ele>49</ele>
        <time>2019-08-17T14:17:01Z</time>
      </trkpt>
      <trkpt lat="59.160456" lon="18.129409">
        <ele>49</ele>
        <time>2019-08-17T14:17:02Z</time>
      </trkpt>
      <trkpt lat="59.160435" lon="18.12939">
        <ele>49</ele>
        <time>2019-08-17T14:17:03Z</time>
      </trkpt>
      <trkpt lat="59.160416" lon="18.12937">
        <ele>49</ele>
        <time>2019-08-17T14:17:04Z</time>
      </trkpt>
      <trkpt lat="59.1604" lon="18.129352">
        <ele>49</ele>
        <time>2019-08-17T14:17:05Z</time>
      </trkpt>
      <trkpt lat="59.160382" lon="18.129335">
        <ele>50</ele>
        <time>2019-08-17T14:17:06Z</time>
      </trkpt>
      <trkpt lat="59.16036" lon="18.129316">
        <ele>50</ele>
        <time>2019-08-17T14:17:07Z</time>
      </trkpt>
      <trkpt lat="59.160338" lon="18.129304">
        <ele>50</ele>
        <time>2019-08-17T14:17:08Z</time>
      </trkpt>
      <trkpt lat="59.160317" lon="18.129293">
        <ele>50</ele>
        <time>2019-08-17T14:17:09Z</time>
      </trkpt>
      <trkpt lat="59.160297" lon="18.129289">
        <ele>50</ele>
        <time>2019-08-17T14:17:10Z</time>
      </trkpt>
      <trkpt lat="59.160276" lon="18.129285">
        <ele>50</ele>
        <time>2019-08-17T14:17:11Z</time>
      </trkpt>
      <trkpt lat="59.160253" lon="18.129279">
        <ele>51</ele>
        <time>2019-08-17T14:17:12Z</time>
      </trkpt>
      <trkpt lat="59.160228" lon="18.12927">
        <ele>51</ele>
        <time>2019-08-17T14:17:13Z</time>
      </trkpt>
      <trkpt lat="59.160205" lon="18.129263">
        <ele>51</ele>
        <time>2019-08-17T14:17:14Z</time>
      </trkpt>
      <trkpt lat="59.160185" lon="18.129257">
        <ele>51</ele>
        <time>2019-08-17T14:17:15Z</time>
      </trkpt>
      <trkpt lat="59.160157" lon="18.129233">
        <ele>52</ele>
        <time>2019-08-17T14:17:17Z</time>
      </trkpt>
      <trkpt lat="59.160136" lon="18.129204">
        <ele>52</ele>
        <time>2019-08-17T14:17:19Z</time>
      </trkpt>
      <trkpt lat="59.160117" lon="18.129167">
        <ele>52</ele>
        <time>2019-08-17T14:17:21Z</time>
      </trkpt>
      <trkpt lat="59.160101" lon="18.129134">
        <ele>53</ele>
        <time>2019-08-17T14:17:24Z</time>
      </trkpt>
      <trkpt lat="59.16008" lon="18.129107">
        <ele>54</ele>
        <time>2019-08-17T14:17:27Z</time>
      </trkpt>
      <trkpt lat="59.160048" lon="18.129095">
        <ele>54</ele>
        <time>2019-08-17T14:17:29Z</time>
      </trkpt>
      <trkpt lat="59.160029" lon="18.129092">
        <ele>54</ele>
        <time>2019-08-17T14:17:30Z</time>
      </trkpt>
      <trkpt lat="59.160008" lon="18.129091">
        <ele>54</ele>
        <time>2019-08-17T14:17:31Z</time>
      </trkpt>
      <trkpt lat="59.159984" lon="18.129085">
        <ele>54</ele>
        <time>2019-08-17T14:17:32Z</time>
      </trkpt>
      <trkpt lat="59.159959" lon="18.129073">
        <ele>54</ele>
        <time>2019-08-17T14:17:33Z</time>
      </trkpt>
      <trkpt lat="59.159935" lon="18.129068">
        <ele>54</ele>
        <time>2019-08-17T14:17:34Z</time>
      </trkpt>
      <trkpt lat="59.159911" lon="18.129072">
        <ele>54</ele>
        <time>2019-08-17T14:17:35Z</time>
      </trkpt>
      <trkpt lat="59.159885" lon="18.129076">
        <ele>54</ele>
        <time>2019-08-17T14:17:36Z</time>
      </trkpt>
      <trkpt lat="59.15986" lon="18.129077">
        <ele>55</ele>
        <time>2019-08-17T14:17:37Z</time>
      </trkpt>
      <trkpt lat="59.159835" lon="18.129067">
        <ele>55</ele>
        <time>2019-08-17T14:17:38Z</time>
      </trkpt>
      <trkpt lat="59.159812" lon="18.129056">
        <ele>55</ele>
        <time>2019-08-17T14:17:39Z</time>
      </trkpt>
      <trkpt lat="59.159789" lon="18.129051">
        <ele>55</ele>
        <time>2019-08-17T14:17:40Z</time>
      </trkpt>
      <trkpt lat="59.159768" lon="18.129055">
        <ele>55</ele>
        <time>2019-08-17T14:17:41Z</time>
      </trkpt>
      <trkpt lat="59.159749" lon="18.129061">
        <ele>55</ele>
        <time>2019-08-17T14:17:42Z</time>
      </trkpt>
      <trkpt lat="59.159717" lon="18.129063">
        <ele>56</ele>
        <time>2019-08-17T14:17:44Z</time>
      </trkpt>
      <trkpt lat="59.159693" lon="18.129034">
        <ele>56</ele>
        <time>2019-08-17T14:17:46Z</time>
      </trkpt>
      <trkpt lat="59.159657" lon="18.129012">
        <ele>56</ele>
        <time>2019-08-17T14:17:48Z</time>
      </trkpt>
      <trkpt lat="59.159639" lon="18.129005">
        <ele>56</ele>
        <time>2019-08-17T14:17:49Z</time>
      </trkpt>
      <trkpt lat="59.159606" lon="18.128992">
        <ele>57</ele>
        <time>2019-08-17T14:17:51Z</time>
      </trkpt>
      <trkpt lat="59.159588" lon="18.128979">
        <ele>57</ele>
        <time>2019-08-17T14:17:52Z</time>
      </trkpt>
      <trkpt lat="59.159569" lon="18.128968">
        <ele>57</ele>
        <time>2019-08-17T14:17:53Z</time>
      </trkpt>
      <trkpt lat="59.159549" lon="18.128959">
        <ele>57</ele>
        <time>2019-08-17T14:17:54Z</time>
      </trkpt>
      <trkpt lat="59.159516" lon="18.128949">
        <ele>57</ele>
        <time>2019-08-17T14:17:56Z</time>
      </trkpt>
      <trkpt lat="59.159495" lon="18.128929">
        <ele>57</ele>
        <time>2019-08-17T14:17:58Z</time>
      </trkpt>
      <trkpt lat="59.159486" lon="18.128924">
        <ele>57</ele>
        <time>2019-08-17T14:18:03Z</time>
      </trkpt>
      <trkpt lat="59.159447" lon="18.128874">
        <ele>0</ele>
        <time>2019-08-17T14:18:41Z</time>
      </trkpt>
      <trkpt lat="59.159418" lon="18.128865">
        <ele>59</ele>
        <time>2019-08-17T14:18:41Z</time>
      </trkpt>
      <trkpt lat="59.159389" lon="18.128871">
        <ele>59</ele>
        <time>2019-08-17T14:18:42Z</time>
      </trkpt>
      <trkpt lat="59.159362" lon="18.128887">
        <ele>59</ele>
        <time>2019-08-17T14:18:43Z</time>
      </trkpt>
      <trkpt lat="59.159327" lon="18.128874">
        <ele>59</ele>
        <time>2019-08-17T14:18:44Z</time>
      </trkpt>
      <trkpt lat="59.159299" lon="18.12886">
        <ele>59</ele>
        <time>2019-08-17T14:18:45Z</time>
      </trkpt>
      <trkpt lat="59.159271" lon="18.128854">
        <ele>59</ele>
        <time>2019-08-17T14:18:46Z</time>
      </trkpt>
      <trkpt lat="59.159241" lon="18.128848">
        <ele>59</ele>
        <time>2019-08-17T14:18:47Z</time>
      </trkpt>
      <trkpt lat="59.159201" lon="18.128826">
        <ele>59</ele>
        <time>2019-08-17T14:18:48Z</time>
      </trkpt>
      <trkpt lat="59.159168" lon="18.1288">
        <ele>59</ele>
        <time>2019-08-17T14:18:49Z</time>
      </trkpt>
      <trkpt lat="59.159148" lon="18.128778">
        <ele>59</ele>
        <time>2019-08-17T14:18:50Z</time>
      </trkpt>
      <trkpt lat="59.159107" lon="18.128763">
        <ele>59</ele>
        <time>2019-08-17T14:18:52Z</time>
      </trkpt>
      <trkpt lat="59.159086" lon="18.128763">
        <ele>59</ele>
        <time>2019-08-17T14:18:53Z</time>
      </trkpt>
      <trkpt lat="59.159068" lon="18.128761">
        <ele>59</ele>
        <time>2019-08-17T14:18:54Z</time>
      </trkpt>
      <trkpt lat="59.15905" lon="18.128754">
        <ele>60</ele>
        <time>2019-08-17T14:18:55Z</time>
      </trkpt>
      <trkpt lat="59.15903" lon="18.128738">
        <ele>60</ele>
        <time>2019-08-17T14:18:56Z</time>
      </trkpt>
      <trkpt lat="59.159011" lon="18.128711">
        <ele>60</ele>
        <time>2019-08-17T14:18:57Z</time>
      </trkpt>
      <trkpt lat="59.159001" lon="18.128672">
        <ele>60</ele>
        <time>2019-08-17T14:18:58Z</time>
      </trkpt>
      <trkpt lat="59.158996" lon="18.12863">
        <ele>60</ele>
        <time>2019-08-17T14:18:59Z</time>
      </trkpt>
      <trkpt lat="59.158974" lon="18.128623">
        <ele>60</ele>
        <time>2019-08-17T14:19:03Z</time>
      </trkpt>
      <trkpt lat="59.158951" lon="18.128631">
        <ele>60</ele>
        <time>2019-08-17T14:19:04Z</time>
      </trkpt>
      <trkpt lat="59.158929" lon="18.12864">
        <ele>60</ele>
        <time>2019-08-17T14:19:05Z</time>
      </trkpt>
      <trkpt lat="59.158898" lon="18.128661">
        <ele>59</ele>
        <time>2019-08-17T14:19:06Z</time>
      </trkpt>
      <trkpt lat="59.158862" lon="18.128674">
        <ele>59</ele>
        <time>2019-08-17T14:19:07Z</time>
      </trkpt>
      <trkpt lat="59.158822" lon="18.128666">
        <ele>59</ele>
        <time>2019-08-17T14:19:08Z</time>
      </trkpt>
      <trkpt lat="59.158796" lon="18.128663">
        <ele>59</ele>
        <time>2019-08-17T14:19:09Z</time>
      </trkpt>
      <trkpt lat="59.158768" lon="18.128681">
        <ele>59</ele>
        <time>2019-08-17T14:19:11Z</time>
      </trkpt>
      <trkpt lat="59.158786" lon="18.128696">
        <ele>59</ele>
        <time>2019-08-17T14:19:23Z</time>
      </trkpt>
      <trkpt lat="59.15879" lon="18.1287">
        <ele>59</ele>
        <time>2019-08-17T14:19:27Z</time>
      </trkpt>
      <trkpt lat="59.158736" lon="18.128704">
        <ele>57</ele>
        <time>2019-08-17T14:23:19Z</time>
      </trkpt>
      <trkpt lat="59.158734" lon="18.128723">
        <ele>57</ele>
        <time>2019-08-17T14:23:20Z</time>
      </trkpt>
      <trkpt lat="59.15873" lon="18.128779">
        <ele>57</ele>
        <time>2019-08-17T14:23:21Z</time>
      </trkpt>
      <trkpt lat="59.158725" lon="18.128818">
        <ele>57</ele>
        <time>2019-08-17T14:23:22Z</time>
      </trkpt>
      <trkpt lat="59.158716" lon="18.128864">
        <ele>57</ele>
        <time>2019-08-17T14:23:23Z</time>
      </trkpt>
      <trkpt lat="59.158702" lon="18.128917">
        <ele>56</ele>
        <time>2019-08-17T14:23:24Z</time>
      </trkpt>
      <trkpt lat="59.158684" lon="18.128973">
        <ele>56</ele>
        <time>2019-08-17T14:23:25Z</time>
      </trkpt>
      <trkpt lat="59.158664" lon="18.12902">
        <ele>56</ele>
        <time>2019-08-17T14:23:26Z</time>
      </trkpt>
      <trkpt lat="59.158648" lon="18.129068">
        <ele>56</ele>
        <time>2019-08-17T14:23:27Z</time>
      </trkpt>
      <trkpt lat="59.158634" lon="18.129121">
        <ele>56</ele>
        <time>2019-08-17T14:23:28Z</time>
      </trkpt>
      <trkpt lat="59.158615" lon="18.129173">
        <ele>56</ele>
        <time>2019-08-17T14:23:29Z</time>
      </trkpt>
      <trkpt lat="59.158593" lon="18.129217">
        <ele>56</ele>
        <time>2019-08-17T14:23:30Z</time>
      </trkpt>
      <trkpt lat="59.15857" lon="18.129259">
        <ele>56</ele>
        <time>2019-08-17T14:23:31Z</time>
      </trkpt>
      <trkpt lat="59.158551" lon="18.129295">
        <ele>56</ele>
        <time>2019-08-17T14:23:32Z</time>
      </trkpt>
      <trkpt lat="59.158532" lon="18.129329">
        <ele>56</ele>
        <time>2019-08-17T14:23:33Z</time>
      </trkpt>
      <trkpt lat="59.158514" lon="18.129369">
        <ele>56</ele>
        <time>2019-08-17T14:23:34Z</time>
      </trkpt>
      <trkpt lat="59.158499" lon="18.129407">
        <ele>56</ele>
        <time>2019-08-17T14:23:35Z</time>
      </trkpt>
      <trkpt lat="59.158482" lon="18.129437">
        <ele>56</ele>
        <time>2019-08-17T14:23:36Z</time>
      </trkpt>
      <trkpt lat="59.158461" lon="18.129459">
        <ele>56</ele>
        <time>2019-08-17T14:23:37Z</time>
      </trkpt>
      <trkpt lat="59.158435" lon="18.129495">
        <ele>56</ele>
        <time>2019-08-17T14:23:38Z</time>
      </trkpt>
      <trkpt lat="59.158406" lon="18.129537">
        <ele>56</ele>
        <time>2019-08-17T14:23:39Z</time>
      </trkpt>
      <trkpt lat="59.158379" lon="18.12956">
        <ele>56</ele>
        <time>2019-08-17T14:23:40Z</time>
      </trkpt>
      <trkpt lat="59.158354" lon="18.129575">
        <ele>56</ele>
        <time>2019-08-17T14:23:41Z</time>
      </trkpt>
      <trkpt lat="59.158336" lon="18.129594">
        <ele>56</ele>
        <time>2019-08-17T14:23:42Z</time>
      </trkpt>
      <trkpt lat="59.15831" lon="18.12963">
        <ele>56</ele>
        <time>2019-08-17T14:23:44Z</time>
      </trkpt>
      <trkpt lat="59.158292" lon="18.129642">
        <ele>56</ele>
        <time>2019-08-17T14:23:45Z</time>
      </trkpt>
      <trkpt lat="59.158258" lon="18.12964">
        <ele>57</ele>
        <time>2019-08-17T14:23:47Z</time>
      </trkpt>
      <trkpt lat="59.158236" lon="18.129636">
        <ele>57</ele>
        <time>2019-08-17T14:23:48Z</time>
      </trkpt>
      <trkpt lat="59.158213" lon="18.12963">
        <ele>57</ele>
        <time>2019-08-17T14:23:49Z</time>
      </trkpt>
      <trkpt lat="59.158192" lon="18.129627">
        <ele>57</ele>
        <time>2019-08-17T14:23:50Z</time>
      </trkpt>
      <trkpt lat="59.158158" lon="18.129617">
        <ele>57</ele>
        <time>2019-08-17T14:23:52Z</time>
      </trkpt>
      <trkpt lat="59.158128" lon="18.1296">
        <ele>57</ele>
        <time>2019-08-17T14:23:54Z</time>
      </trkpt>
      <trkpt lat="59.158106" lon="18.129595">
        <ele>57</ele>
        <time>2019-08-17T14:24:01Z</time>
      </trkpt>
      <trkpt lat="59.158088" lon="18.129581">
        <ele>57</ele>
        <time>2019-08-17T14:24:02Z</time>
      </trkpt>
      <trkpt lat="59.158068" lon="18.129559">
        <ele>57</ele>
        <time>2019-08-17T14:24:03Z</time>
      </trkpt>
      <trkpt lat="59.158046" lon="18.129526">
        <ele>57</ele>
        <time>2019-08-17T14:24:04Z</time>
      </trkpt>
      <trkpt lat="59.158022" lon="18.129495">
        <ele>57</ele>
        <time>2019-08-17T14:24:05Z</time>
      </trkpt>
      <trkpt lat="59.158" lon="18.129464">
        <ele>57</ele>
        <time>2019-08-17T14:24:06Z</time>
      </trkpt>
      <trkpt lat="59.157978" lon="18.129432">
        <ele>57</ele>
        <time>2019-08-17T14:24:07Z</time>
      </trkpt>
      <trkpt lat="59.157959" lon="18.12941">
        <ele>57</ele>
        <time>2019-08-17T14:24:08Z</time>
      </trkpt>
      <trkpt lat="59.15794" lon="18.129397">
        <ele>57</ele>
        <time>2019-08-17T14:24:09Z</time>
      </trkpt>
      <trkpt lat="59.157918" lon="18.129383">
        <ele>57</ele>
        <time>2019-08-17T14:24:10Z</time>
      </trkpt>
      <trkpt lat="59.157892" lon="18.129366">
        <ele>57</ele>
        <time>2019-08-17T14:24:11Z</time>
      </trkpt>
      <trkpt lat="59.157864" lon="18.129354">
        <ele>57</ele>
        <time>2019-08-17T14:24:12Z</time>
      </trkpt>
      <trkpt lat="59.157836" lon="18.129343">
        <ele>57</ele>
        <time>2019-08-17T14:24:13Z</time>
      </trkpt>
      <trkpt lat="59.157813" lon="18.129333">
        <ele>57</ele>
        <time>2019-08-17T14:24:14Z</time>
      </trkpt>
      <trkpt lat="59.157794" lon="18.129336">
        <ele>57</ele>
        <time>2019-08-17T14:24:15Z</time>
      </trkpt>
      <trkpt lat="59.157774" lon="18.129345">
        <ele>57</ele>
        <time>2019-08-17T14:24:16Z</time>
      </trkpt>
      <trkpt lat="59.15774" lon="18.129361">
        <ele>57</ele>
        <time>2019-08-17T14:24:18Z</time>
      </trkpt>
      <trkpt lat="59.157712" lon="18.12936">
        <ele>57</ele>
        <time>2019-08-17T14:24:20Z</time>
      </trkpt>
      <trkpt lat="59.15769" lon="18.129318">
        <ele>58</ele>
        <time>2019-08-17T14:24:22Z</time>
      </trkpt>
      <trkpt lat="59.157682" lon="18.12928">
        <ele>58</ele>
        <time>2019-08-17T14:24:23Z</time>
      </trkpt>
      <trkpt lat="59.157676" lon="18.129241">
        <ele>58</ele>
        <time>2019-08-17T14:24:24Z</time>
      </trkpt>
      <trkpt lat="59.15768" lon="18.129196">
        <ele>58</ele>
        <time>2019-08-17T14:24:26Z</time>
      </trkpt>
      <trkpt lat="59.157678" lon="18.129192">
        <ele>58</ele>
        <time>2019-08-17T14:24:31Z</time>
      </trkpt>
      <trkpt lat="59.157657" lon="18.129161">
        <ele>0</ele>
        <time>2019-08-17T14:24:37Z</time>
      </trkpt>
      <trkpt lat="59.157646" lon="18.129147">
        <ele>59</ele>
        <time>2019-08-17T14:24:39Z</time>
      </trkpt>
      <trkpt lat="59.157659" lon="18.129179">
        <ele>59</ele>
        <time>2019-08-17T14:24:41Z</time>
      </trkpt>
      <trkpt lat="59.157679" lon="18.129206">
        <ele>59</ele>
        <time>2019-08-17T14:24:49Z</time>
      </trkpt>
      <trkpt lat="59.157701" lon="18.129213">
        <ele>59</ele>
        <time>2019-08-17T14:24:51Z</time>
      </trkpt>
      <trkpt lat="59.157704" lon="18.129203">
        <ele>59</ele>
        <time>2019-08-17T14:24:55Z</time>
      </trkpt>
      <trkpt lat="59.157687" lon="18.129164">
        <ele>58</ele>
        <time>2019-08-17T14:25:17Z</time>
      </trkpt>
      <trkpt lat="59.15769" lon="18.129133">
        <ele>59</ele>
        <time>2019-08-17T14:25:18Z</time>
      </trkpt>
      <trkpt lat="59.1577" lon="18.129103">
        <ele>59</ele>
        <time>2019-08-17T14:25:20Z</time>
      </trkpt>
      <trkpt lat="59.157678" lon="18.129085">
        <ele>59</ele>
        <time>2019-08-17T14:25:24Z</time>
      </trkpt>
      <trkpt lat="59.157668" lon="18.129049">
        <ele>59</ele>
        <time>2019-08-17T14:25:26Z</time>
      </trkpt>
      <trkpt lat="59.157657" lon="18.129018">
        <ele>59</ele>
        <time>2019-08-17T14:25:29Z</time>
      </trkpt>
      <trkpt lat="59.157641" lon="18.128983">
        <ele>59</ele>
        <time>2019-08-17T14:25:32Z</time>
      </trkpt>
      <trkpt lat="59.157662" lon="18.128997">
        <ele>58</ele>
        <time>2019-08-17T14:25:38Z</time>
      </trkpt>
      <trkpt lat="59.15767" lon="18.129012">
        <ele>58</ele>
        <time>2019-08-17T14:25:43Z</time>
      </trkpt>
      <trkpt lat="59.157657" lon="18.129122">
        <ele>58</ele>
        <time>2019-08-17T14:26:21Z</time>
      </trkpt>
      <trkpt lat="59.15765" lon="18.129117">
        <ele>58</ele>
        <time>2019-08-17T14:26:22Z</time>
      </trkpt>
      <trkpt lat="59.157651" lon="18.129111">
        <ele>58</ele>
        <time>2019-08-17T14:26:25Z</time>
      </trkpt>
      <trkpt lat="59.157683" lon="18.12908">
        <ele>0</ele>
        <time>2019-08-17T14:26:37Z</time>
      </trkpt>
      <trkpt lat="59.157668" lon="18.129054">
        <ele>59</ele>
        <time>2019-08-17T14:26:40Z</time>
      </trkpt>
      <trkpt lat="59.157652" lon="18.129028">
        <ele>59</ele>
        <time>2019-08-17T14:26:43Z</time>
      </trkpt>
      <trkpt lat="59.157649" lon="18.129">
        <ele>58</ele>
        <time>2019-08-17T14:26:49Z</time>
      </trkpt>
      <trkpt lat="59.157671" lon="18.129031">
        <ele>0</ele>
        <time>2019-08-17T14:26:53Z</time>
      </trkpt>
      <trkpt lat="59.157684" lon="18.129062">
        <ele>58</ele>
        <time>2019-08-17T14:26:54Z</time>
      </trkpt>
      <trkpt lat="59.157683" lon="18.129105">
        <ele>58</ele>
        <time>2019-08-17T14:26:56Z</time>
      </trkpt>
      <trkpt lat="59.157668" lon="18.129127">
        <ele>58</ele>
        <time>2019-08-17T14:26:58Z</time>
      </trkpt>
      <trkpt lat="59.157655" lon="18.129103">
        <ele>58</ele>
        <time>2019-08-17T14:27:03Z</time>
      </trkpt>
      <trkpt lat="59.157706" lon="18.129114">
        <ele>0</ele>
        <time>2019-08-17T14:27:25Z</time>
      </trkpt>
      <trkpt lat="59.157688" lon="18.129081">
        <ele>59</ele>
        <time>2019-08-17T14:27:26Z</time>
      </trkpt>
      <trkpt lat="59.157667" lon="18.129037">
        <ele>59</ele>
        <time>2019-08-17T14:27:28Z</time>
      </trkpt>
      <trkpt lat="59.157649" lon="18.128983">
        <ele>59</ele>
        <time>2019-08-17T14:27:30Z</time>
      </trkpt>
      <trkpt lat="59.157648" lon="18.128947">
        <ele>59</ele>
        <time>2019-08-17T14:27:31Z</time>
      </trkpt>
      <trkpt lat="59.157655" lon="18.128902">
        <ele>58</ele>
        <time>2019-08-17T14:27:33Z</time>
      </trkpt>
      <trkpt lat="59.157658" lon="18.128878">
        <ele>59</ele>
        <time>2019-08-17T14:27:39Z</time>
      </trkpt>
      <trkpt lat="59.157645" lon="18.12879">
        <ele>58</ele>
        <time>2019-08-17T14:28:25Z</time>
      </trkpt>
      <trkpt lat="59.157639" lon="18.128753">
        <ele>58</ele>
        <time>2019-08-17T14:28:26Z</time>
      </trkpt>
      <trkpt lat="59.157642" lon="18.128772">
        <ele>58</ele>
        <time>2019-08-17T14:28:31Z</time>
      </trkpt>
      <trkpt lat="59.15762" lon="18.128659">
        <ele>59</ele>
        <time>2019-08-17T14:29:23Z</time>
      </trkpt>
      <trkpt lat="59.157616" lon="18.128635">
        <ele>60</ele>
        <time>2019-08-17T14:29:23Z</time>
      </trkpt>
      <trkpt lat="59.157598" lon="18.12859">
        <ele>60</ele>
        <time>2019-08-17T14:29:25Z</time>
      </trkpt>
      <trkpt lat="59.157587" lon="18.128575">
        <ele>60</ele>
        <time>2019-08-17T14:29:31Z</time>
      </trkpt>
      <trkpt lat="59.157575" lon="18.128495">
        <ele>0</ele>
        <time>2019-08-17T14:29:59Z</time>
      </trkpt>
      <trkpt lat="59.157575" lon="18.128495">
        <ele>59</ele>
        <time>2019-08-17T14:30:01Z</time>
      </trkpt>
      <trkpt lat="59.157559" lon="18.128405">
        <ele>0</ele>
        <time>2019-08-17T14:30:09Z</time>
      </trkpt>
      <trkpt lat="59.157558" lon="18.128366">
        <ele>59</ele>
        <time>2019-08-17T14:30:09Z</time>
      </trkpt>
      <trkpt lat="59.157553" lon="18.128329">
        <ele>59</ele>
        <time>2019-08-17T14:30:10Z</time>
      </trkpt>
      <trkpt lat="59.157544" lon="18.128286">
        <ele>59</ele>
        <time>2019-08-17T14:30:11Z</time>
      </trkpt>
      <trkpt lat="59.157537" lon="18.12823">
        <ele>59</ele>
        <time>2019-08-17T14:30:12Z</time>
      </trkpt>
      <trkpt lat="59.15754" lon="18.128167">
        <ele>59</ele>
        <time>2019-08-17T14:30:13Z</time>
      </trkpt>
      <trkpt lat="59.15755" lon="18.128099">
        <ele>59</ele>
        <time>2019-08-17T14:30:14Z</time>
      </trkpt>
      <trkpt lat="59.157564" lon="18.128024">
        <ele>59</ele>
        <time>2019-08-17T14:30:15Z</time>
      </trkpt>
      <trkpt lat="59.157586" lon="18.127968">
        <ele>59</ele>
        <time>2019-08-17T14:30:16Z</time>
      </trkpt>
      <trkpt lat="59.157619" lon="18.127952">
        <ele>59</ele>
        <time>2019-08-17T14:30:17Z</time>
      </trkpt>
      <trkpt lat="59.157651" lon="18.127981">
        <ele>59</ele>
        <time>2019-08-17T14:30:18Z</time>
      </trkpt>
      <trkpt lat="59.157668" lon="18.128047">
        <ele>59</ele>
        <time>2019-08-17T14:30:19Z</time>
      </trkpt>
      <trkpt lat="59.157679" lon="18.12812">
        <ele>59</ele>
        <time>2019-08-17T14:30:20Z</time>
      </trkpt>
      <trkpt lat="59.157691" lon="18.128195">
        <ele>59</ele>
        <time>2019-08-17T14:30:21Z</time>
      </trkpt>
      <trkpt lat="59.157702" lon="18.128274">
        <ele>59</ele>
        <time>2019-08-17T14:30:22Z</time>
      </trkpt>
      <trkpt lat="59.157716" lon="18.128354">
        <ele>59</ele>
        <time>2019-08-17T14:30:23Z</time>
      </trkpt>
      <trkpt lat="59.157733" lon="18.128429">
        <ele>59</ele>
        <time>2019-08-17T14:30:24Z</time>
      </trkpt>
      <trkpt lat="59.157751" lon="18.128499">
        <ele>59</ele>
        <time>2019-08-17T14:30:25Z</time>
      </trkpt>
      <trkpt lat="59.157769" lon="18.128557">
        <ele>59</ele>
        <time>2019-08-17T14:30:26Z</time>
      </trkpt>
      <trkpt lat="59.157792" lon="18.128571">
        <ele>59</ele>
        <time>2019-08-17T14:30:27Z</time>
      </trkpt>
      <trkpt lat="59.15782" lon="18.128559">
        <ele>59</ele>
        <time>2019-08-17T14:30:28Z</time>
      </trkpt>
      <trkpt lat="59.157843" lon="18.128544">
        <ele>59</ele>
        <time>2019-08-17T14:30:29Z</time>
      </trkpt>
      <trkpt lat="59.157868" lon="18.12853">
        <ele>59</ele>
        <time>2019-08-17T14:30:30Z</time>
      </trkpt>
      <trkpt lat="59.157893" lon="18.12851">
        <ele>59</ele>
        <time>2019-08-17T14:30:31Z</time>
      </trkpt>
      <trkpt lat="59.157913" lon="18.12848">
        <ele>59</ele>
        <time>2019-08-17T14:30:32Z</time>
      </trkpt>
      <trkpt lat="59.157929" lon="18.128453">
        <ele>59</ele>
        <time>2019-08-17T14:30:33Z</time>
      </trkpt>
      <trkpt lat="59.157945" lon="18.128407">
        <ele>59</ele>
        <time>2019-08-17T14:30:35Z</time>
      </trkpt>
      <trkpt lat="59.157969" lon="18.128391">
        <ele>59</ele>
        <time>2019-08-17T14:30:37Z</time>
      </trkpt>
      <trkpt lat="59.157987" lon="18.128389">
        <ele>59</ele>
        <time>2019-08-17T14:30:38Z</time>
      </trkpt>
      <trkpt lat="59.158006" lon="18.128382">
        <ele>59</ele>
        <time>2019-08-17T14:30:39Z</time>
      </trkpt>
      <trkpt lat="59.158029" lon="18.128365">
        <ele>59</ele>
        <time>2019-08-17T14:30:40Z</time>
      </trkpt>
      <trkpt lat="59.158053" lon="18.128342">
        <ele>59</ele>
        <time>2019-08-17T14:30:41Z</time>
      </trkpt>
      <trkpt lat="59.158079" lon="18.128319">
        <ele>59</ele>
        <time>2019-08-17T14:30:42Z</time>
      </trkpt>
      <trkpt lat="59.158108" lon="18.128296">
        <ele>59</ele>
        <time>2019-08-17T14:30:43Z</time>
      </trkpt>
      <trkpt lat="59.158128" lon="18.128274">
        <ele>59</ele>
        <time>2019-08-17T14:30:44Z</time>
      </trkpt>
      <trkpt lat="59.158156" lon="18.128262">
        <ele>59</ele>
        <time>2019-08-17T14:30:45Z</time>
      </trkpt>
      <trkpt lat="59.158185" lon="18.128259">
        <ele>59</ele>
        <time>2019-08-17T14:30:46Z</time>
      </trkpt>
      <trkpt lat="59.158204" lon="18.128254">
        <ele>59</ele>
        <time>2019-08-17T14:30:47Z</time>
      </trkpt>
      <trkpt lat="59.158227" lon="18.128244">
        <ele>59</ele>
        <time>2019-08-17T14:30:48Z</time>
      </trkpt>
      <trkpt lat="59.158245" lon="18.128232">
        <ele>59</ele>
        <time>2019-08-17T14:30:49Z</time>
      </trkpt>
      <trkpt lat="59.158265" lon="18.128218">
        <ele>59</ele>
        <time>2019-08-17T14:30:50Z</time>
      </trkpt>
      <trkpt lat="59.158286" lon="18.128207">
        <ele>59</ele>
        <time>2019-08-17T14:30:51Z</time>
      </trkpt>
      <trkpt lat="59.158327" lon="18.128188">
        <ele>59</ele>
        <time>2019-08-17T14:30:53Z</time>
      </trkpt>
      <trkpt lat="59.158347" lon="18.128175">
        <ele>59</ele>
        <time>2019-08-17T14:30:54Z</time>
      </trkpt>
      <trkpt lat="59.158368" lon="18.128164">
        <ele>59</ele>
        <time>2019-08-17T14:30:55Z</time>
      </trkpt>
      <trkpt lat="59.158391" lon="18.128155">
        <ele>59</ele>
        <time>2019-08-17T14:30:56Z</time>
      </trkpt>
      <trkpt lat="59.158418" lon="18.128148">
        <ele>59</ele>
        <time>2019-08-17T14:30:57Z</time>
      </trkpt>
      <trkpt lat="59.158443" lon="18.128136">
        <ele>59</ele>
        <time>2019-08-17T14:30:58Z</time>
      </trkpt>
      <trkpt lat="59.158466" lon="18.128123">
        <ele>59</ele>
        <time>2019-08-17T14:30:59Z</time>
      </trkpt>
      <trkpt lat="59.158486" lon="18.128111">
        <ele>59</ele>
        <time>2019-08-17T14:31:00Z</time>
      </trkpt>
      <trkpt lat="59.158494" lon="18.128081">
        <ele>59</ele>
        <time>2019-08-17T14:31:07Z</time>
      </trkpt>
      <trkpt lat="59.158486" lon="18.127953">
        <ele>0</ele>
        <time>2019-08-17T14:31:45Z</time>
      </trkpt>
      <trkpt lat="59.158488" lon="18.127921">
        <ele>57</ele>
        <time>2019-08-17T14:31:45Z</time>
      </trkpt>
      <trkpt lat="59.158482" lon="18.127861">
        <ele>57</ele>
        <time>2019-08-17T14:31:47Z</time>
      </trkpt>
      <trkpt lat="59.158473" lon="18.127827">
        <ele>57</ele>
        <time>2019-08-17T14:31:48Z</time>
      </trkpt>
      <trkpt lat="59.158462" lon="18.127794">
        <ele>57</ele>
        <time>2019-08-17T14:31:49Z</time>
      </trkpt>
      <trkpt lat="59.158447" lon="18.127768">
        <ele>56</ele>
        <time>2019-08-17T14:31:50Z</time>
      </trkpt>
      <trkpt lat="59.158426" lon="18.127752">
        <ele>56</ele>
        <time>2019-08-17T14:31:51Z</time>
      </trkpt>
      <trkpt lat="59.158394" lon="18.127748">
        <ele>56</ele>
        <time>2019-08-17T14:31:52Z</time>
      </trkpt>
      <trkpt lat="59.158362" lon="18.127754">
        <ele>56</ele>
        <time>2019-08-17T14:31:53Z</time>
      </trkpt>
      <trkpt lat="59.158331" lon="18.127765">
        <ele>56</ele>
        <time>2019-08-17T14:31:54Z</time>
      </trkpt>
      <trkpt lat="59.158298" lon="18.127778">
        <ele>56</ele>
        <time>2019-08-17T14:31:55Z</time>
      </trkpt>
      <trkpt lat="59.158271" lon="18.12779">
        <ele>56</ele>
        <time>2019-08-17T14:31:56Z</time>
      </trkpt>
      <trkpt lat="59.158244" lon="18.127802">
        <ele>56</ele>
        <time>2019-08-17T14:31:57Z</time>
      </trkpt>
      <trkpt lat="59.158216" lon="18.127811">
        <ele>56</ele>
        <time>2019-08-17T14:31:58Z</time>
      </trkpt>
      <trkpt lat="59.158188" lon="18.127818">
        <ele>56</ele>
        <time>2019-08-17T14:31:59Z</time>
      </trkpt>
      <trkpt lat="59.158162" lon="18.127824">
        <ele>56</ele>
        <time>2019-08-17T14:32:00Z</time>
      </trkpt>
      <trkpt lat="59.158138" lon="18.127828">
        <ele>56</ele>
        <time>2019-08-17T14:32:01Z</time>
      </trkpt>
      <trkpt lat="59.158112" lon="18.127832">
        <ele>56</ele>
        <time>2019-08-17T14:32:02Z</time>
      </trkpt>
      <trkpt lat="59.158084" lon="18.127836">
        <ele>56</ele>
        <time>2019-08-17T14:32:03Z</time>
      </trkpt>
      <trkpt lat="59.158055" lon="18.12784">
        <ele>56</ele>
        <time>2019-08-17T14:32:04Z</time>
      </trkpt>
      <trkpt lat="59.158022" lon="18.127842">
        <ele>56</ele>
        <time>2019-08-17T14:32:05Z</time>
      </trkpt>
      <trkpt lat="59.157985" lon="18.12784">
        <ele>56</ele>
        <time>2019-08-17T14:32:06Z</time>
      </trkpt>
      <trkpt lat="59.157948" lon="18.127834">
        <ele>56</ele>
        <time>2019-08-17T14:32:07Z</time>
      </trkpt>
      <trkpt lat="59.157912" lon="18.127828">
        <ele>56</ele>
        <time>2019-08-17T14:32:08Z</time>
      </trkpt>
      <trkpt lat="59.157878" lon="18.12782">
        <ele>56</ele>
        <time>2019-08-17T14:32:09Z</time>
      </trkpt>
      <trkpt lat="59.157839" lon="18.127809">
        <ele>56</ele>
        <time>2019-08-17T14:32:10Z</time>
      </trkpt>
      <trkpt lat="59.157801" lon="18.127797">
        <ele>56</ele>
        <time>2019-08-17T14:32:11Z</time>
      </trkpt>
      <trkpt lat="59.15776" lon="18.127778">
        <ele>56</ele>
        <time>2019-08-17T14:32:12Z</time>
      </trkpt>
      <trkpt lat="59.157722" lon="18.127762">
        <ele>56</ele>
        <time>2019-08-17T14:32:13Z</time>
      </trkpt>
      <trkpt lat="59.157686" lon="18.127733">
        <ele>56</ele>
        <time>2019-08-17T14:32:14Z</time>
      </trkpt>
      <trkpt lat="59.157652" lon="18.127694">
        <ele>56</ele>
        <time>2019-08-17T14:32:15Z</time>
      </trkpt>
      <trkpt lat="59.157616" lon="18.12765">
        <ele>56</ele>
        <time>2019-08-17T14:32:16Z</time>
      </trkpt>
      <trkpt lat="59.157588" lon="18.127608">
        <ele>56</ele>
        <time>2019-08-17T14:32:17Z</time>
      </trkpt>
      <trkpt lat="59.15756" lon="18.127566">
        <ele>56</ele>
        <time>2019-08-17T14:32:18Z</time>
      </trkpt>
      <trkpt lat="59.157532" lon="18.127526">
        <ele>56</ele>
        <time>2019-08-17T14:32:19Z</time>
      </trkpt>
      <trkpt lat="59.157504" lon="18.127484">
        <ele>56</ele>
        <time>2019-08-17T14:32:20Z</time>
      </trkpt>
      <trkpt lat="59.157472" lon="18.127452">
        <ele>56</ele>
        <time>2019-08-17T14:32:21Z</time>
      </trkpt>
      <trkpt lat="59.157439" lon="18.127422">
        <ele>56</ele>
        <time>2019-08-17T14:32:22Z</time>
      </trkpt>
      <trkpt lat="59.157405" lon="18.127396">
        <ele>56</ele>
        <time>2019-08-17T14:32:23Z</time>
      </trkpt>
      <trkpt lat="59.157374" lon="18.127374">
        <ele>55</ele>
        <time>2019-08-17T14:32:24Z</time>
      </trkpt>
      <trkpt lat="59.157346" lon="18.127358">
        <ele>55</ele>
        <time>2019-08-17T14:32:25Z</time>
      </trkpt>
      <trkpt lat="59.157324" lon="18.127348">
        <ele>56</ele>
        <time>2019-08-17T14:32:26Z</time>
      </trkpt>
      <trkpt lat="59.157304" lon="18.127341">
        <ele>56</ele>
        <time>2019-08-17T14:32:27Z</time>
      </trkpt>
      <trkpt lat="59.157284" lon="18.12733">
        <ele>56</ele>
        <time>2019-08-17T14:32:28Z</time>
      </trkpt>
      <trkpt lat="59.157264" lon="18.127316">
        <ele>56</ele>
        <time>2019-08-17T14:32:29Z</time>
      </trkpt>
      <trkpt lat="59.157238" lon="18.127304">
        <ele>55</ele>
        <time>2019-08-17T14:32:31Z</time>
      </trkpt>
      <trkpt lat="59.157217" lon="18.127273">
        <ele>55</ele>
        <time>2019-08-17T14:32:33Z</time>
      </trkpt>
      <trkpt lat="59.157216" lon="18.12723">
        <ele>55</ele>
        <time>2019-08-17T14:32:35Z</time>
      </trkpt>
      <trkpt lat="59.157217" lon="18.127159">
        <ele>55</ele>
        <time>2019-08-17T14:32:37Z</time>
      </trkpt>
      <trkpt lat="59.157212" lon="18.127092">
        <ele>55</ele>
        <time>2019-08-17T14:32:38Z</time>
      </trkpt>
      <trkpt lat="59.157203" lon="18.127024">
        <ele>55</ele>
        <time>2019-08-17T14:32:39Z</time>
      </trkpt>
      <trkpt lat="59.157196" lon="18.126956">
        <ele>55</ele>
        <time>2019-08-17T14:32:40Z</time>
      </trkpt>
      <trkpt lat="59.15719" lon="18.126892">
        <ele>55</ele>
        <time>2019-08-17T14:32:41Z</time>
      </trkpt>
      <trkpt lat="59.157178" lon="18.126834">
        <ele>55</ele>
        <time>2019-08-17T14:32:42Z</time>
      </trkpt>
      <trkpt lat="59.157162" lon="18.126788">
        <ele>55</ele>
        <time>2019-08-17T14:32:43Z</time>
      </trkpt>
      <trkpt lat="59.157136" lon="18.126761">
        <ele>54</ele>
        <time>2019-08-17T14:32:44Z</time>
      </trkpt>
      <trkpt lat="59.157109" lon="18.126752">
        <ele>54</ele>
        <time>2019-08-17T14:32:45Z</time>
      </trkpt>
      <trkpt lat="59.157082" lon="18.126754">
        <ele>54</ele>
        <time>2019-08-17T14:32:46Z</time>
      </trkpt>
      <trkpt lat="59.157058" lon="18.126762">
        <ele>55</ele>
        <time>2019-08-17T14:32:47Z</time>
      </trkpt>
      <trkpt lat="59.157034" lon="18.12679">
        <ele>55</ele>
        <time>2019-08-17T14:32:48Z</time>
      </trkpt>
      <trkpt lat="59.15701" lon="18.126826">
        <ele>54</ele>
        <time>2019-08-17T14:32:49Z</time>
      </trkpt>
      <trkpt lat="59.156986" lon="18.126858">
        <ele>54</ele>
        <time>2019-08-17T14:32:50Z</time>
      </trkpt>
      <trkpt lat="59.15696" lon="18.126888">
        <ele>55</ele>
        <time>2019-08-17T14:32:51Z</time>
      </trkpt>
      <trkpt lat="59.156938" lon="18.126914">
        <ele>54</ele>
        <time>2019-08-17T14:32:52Z</time>
      </trkpt>
      <trkpt lat="59.156912" lon="18.126928">
        <ele>54</ele>
        <time>2019-08-17T14:32:53Z</time>
      </trkpt>
      <trkpt lat="59.156888" lon="18.126944">
        <ele>54</ele>
        <time>2019-08-17T14:32:54Z</time>
      </trkpt>
      <trkpt lat="59.156864" lon="18.126958">
        <ele>54</ele>
        <time>2019-08-17T14:32:55Z</time>
      </trkpt>
      <trkpt lat="59.156844" lon="18.126968">
        <ele>54</ele>
        <time>2019-08-17T14:32:56Z</time>
      </trkpt>
      <trkpt lat="59.156823" lon="18.126972">
        <ele>54</ele>
        <time>2019-08-17T14:32:57Z</time>
      </trkpt>
      <trkpt lat="59.156804" lon="18.126964">
        <ele>55</ele>
        <time>2019-08-17T14:32:58Z</time>
      </trkpt>
      <trkpt lat="59.156784" lon="18.126934">
        <ele>55</ele>
        <time>2019-08-17T14:33:00Z</time>
      </trkpt>
      <trkpt lat="59.156765" lon="18.126906">
        <ele>54</ele>
        <time>2019-08-17T14:33:03Z</time>
      </trkpt>
      <trkpt lat="59.156743" lon="18.126877">
        <ele>54</ele>
        <time>2019-08-17T14:33:04Z</time>
      </trkpt>
      <trkpt lat="59.156716" lon="18.126857">
        <ele>54</ele>
        <time>2019-08-17T14:33:06Z</time>
      </trkpt>
      <trkpt lat="59.1567" lon="18.126835">
        <ele>54</ele>
        <time>2019-08-17T14:33:07Z</time>
      </trkpt>
      <trkpt lat="59.156683" lon="18.126805">
        <ele>53</ele>
        <time>2019-08-17T14:33:08Z</time>
      </trkpt>
      <trkpt lat="59.156667" lon="18.12677">
        <ele>53</ele>
        <time>2019-08-17T14:33:09Z</time>
      </trkpt>
      <trkpt lat="59.156648" lon="18.126727">
        <ele>53</ele>
        <time>2019-08-17T14:33:10Z</time>
      </trkpt>
      <trkpt lat="59.156628" lon="18.126686">
        <ele>52</ele>
        <time>2019-08-17T14:33:11Z</time>
      </trkpt>
      <trkpt lat="59.1566" lon="18.126632">
        <ele>52</ele>
        <time>2019-08-17T14:33:12Z</time>
      </trkpt>
      <trkpt lat="59.156572" lon="18.12657">
        <ele>52</ele>
        <time>2019-08-17T14:33:13Z</time>
      </trkpt>
      <trkpt lat="59.156544" lon="18.126503">
        <ele>52</ele>
        <time>2019-08-17T14:33:14Z</time>
      </trkpt>
      <trkpt lat="59.15652" lon="18.126445">
        <ele>51</ele>
        <time>2019-08-17T14:33:15Z</time>
      </trkpt>
      <trkpt lat="59.156499" lon="18.126376">
        <ele>51</ele>
        <time>2019-08-17T14:33:16Z</time>
      </trkpt>
      <trkpt lat="59.156487" lon="18.126309">
        <ele>51</ele>
        <time>2019-08-17T14:33:17Z</time>
      </trkpt>
      <trkpt lat="59.156475" lon="18.126242">
        <ele>51</ele>
        <time>2019-08-17T14:33:18Z</time>
      </trkpt>
      <trkpt lat="59.156465" lon="18.12618">
        <ele>51</ele>
        <time>2019-08-17T14:33:19Z</time>
      </trkpt>
      <trkpt lat="59.156456" lon="18.1261">
        <ele>51</ele>
        <time>2019-08-17T14:33:20Z</time>
      </trkpt>
      <trkpt lat="59.156443" lon="18.126019">
        <ele>51</ele>
        <time>2019-08-17T14:33:21Z</time>
      </trkpt>
      <trkpt lat="59.156436" lon="18.125935">
        <ele>51</ele>
        <time>2019-08-17T14:33:22Z</time>
      </trkpt>
      <trkpt lat="59.156438" lon="18.125851">
        <ele>51</ele>
        <time>2019-08-17T14:33:23Z</time>
      </trkpt>
      <trkpt lat="59.156441" lon="18.125769">
        <ele>51</ele>
        <time>2019-08-17T14:33:24Z</time>
      </trkpt>
      <trkpt lat="59.15645" lon="18.125693">
        <ele>50</ele>
        <time>2019-08-17T14:33:25Z</time>
      </trkpt>
      <trkpt lat="59.156461" lon="18.125614">
        <ele>50</ele>
        <time>2019-08-17T14:33:26Z</time>
      </trkpt>
      <trkpt lat="59.15647" lon="18.125534">
        <ele>50</ele>
        <time>2019-08-17T14:33:27Z</time>
      </trkpt>
      <trkpt lat="59.156483" lon="18.125454">
        <ele>50</ele>
        <time>2019-08-17T14:33:28Z</time>
      </trkpt>
      <trkpt lat="59.156495" lon="18.125376">
        <ele>50</ele>
        <time>2019-08-17T14:33:29Z</time>
      </trkpt>
      <trkpt lat="59.156508" lon="18.125292">
        <ele>50</ele>
        <time>2019-08-17T14:33:30Z</time>
      </trkpt>
      <trkpt lat="59.156523" lon="18.125207">
        <ele>50</ele>
        <time>2019-08-17T14:33:31Z</time>
      </trkpt>
      <trkpt lat="59.156541" lon="18.125131">
        <ele>50</ele>
        <time>2019-08-17T14:33:32Z</time>
      </trkpt>
      <trkpt lat="59.15656" lon="18.125058">
        <ele>50</ele>
        <time>2019-08-17T14:33:33Z</time>
      </trkpt>
      <trkpt lat="59.15658" lon="18.124984">
        <ele>50</ele>
        <time>2019-08-17T14:33:34Z</time>
      </trkpt>
      <trkpt lat="59.156595" lon="18.124904">
        <ele>50</ele>
        <time>2019-08-17T14:33:35Z</time>
      </trkpt>
      <trkpt lat="59.15661" lon="18.124822">
        <ele>50</ele>
        <time>2019-08-17T14:33:36Z</time>
      </trkpt>
      <trkpt lat="59.156625" lon="18.124734">
        <ele>50</ele>
        <time>2019-08-17T14:33:37Z</time>
      </trkpt>
      <trkpt lat="59.156634" lon="18.12464">
        <ele>50</ele>
        <time>2019-08-17T14:33:38Z</time>
      </trkpt>
      <trkpt lat="59.156647" lon="18.124557">
        <ele>49</ele>
        <time>2019-08-17T14:33:39Z</time>
      </trkpt>
      <trkpt lat="59.15666" lon="18.124468">
        <ele>49</ele>
        <time>2019-08-17T14:33:40Z</time>
      </trkpt>
      <trkpt lat="59.156672" lon="18.124383">
        <ele>49</ele>
        <time>2019-08-17T14:33:41Z</time>
      </trkpt>
      <trkpt lat="59.156683" lon="18.124294">
        <ele>49</ele>
        <time>2019-08-17T14:33:42Z</time>
      </trkpt>
      <trkpt lat="59.156693" lon="18.124198">
        <ele>49</ele>
        <time>2019-08-17T14:33:43Z</time>
      </trkpt>
      <trkpt lat="59.156708" lon="18.124114">
        <ele>49</ele>
        <time>2019-08-17T14:33:44Z</time>
      </trkpt>
      <trkpt lat="59.156723" lon="18.124033">
        <ele>49</ele>
        <time>2019-08-17T14:33:45Z</time>
      </trkpt>
      <trkpt lat="59.156737" lon="18.123948">
        <ele>49</ele>
        <time>2019-08-17T14:33:46Z</time>
      </trkpt>
      <trkpt lat="59.156746" lon="18.123861">
        <ele>49</ele>
        <time>2019-08-17T14:33:47Z</time>
      </trkpt>
      <trkpt lat="59.156754" lon="18.123783">
        <ele>49</ele>
        <time>2019-08-17T14:33:48Z</time>
      </trkpt>
      <trkpt lat="59.156762" lon="18.123706">
        <ele>49</ele>
        <time>2019-08-17T14:33:49Z</time>
      </trkpt>
      <trkpt lat="59.156757" lon="18.123628">
        <ele>49</ele>
        <time>2019-08-17T14:33:50Z</time>
      </trkpt>
      <trkpt lat="59.156744" lon="18.123541">
        <ele>49</ele>
        <time>2019-08-17T14:33:51Z</time>
      </trkpt>
      <trkpt lat="59.156731" lon="18.123455">
        <ele>49</ele>
        <time>2019-08-17T14:33:52Z</time>
      </trkpt>
      <trkpt lat="59.156708" lon="18.123364">
        <ele>49</ele>
        <time>2019-08-17T14:33:53Z</time>
      </trkpt>
      <trkpt lat="59.156682" lon="18.123268">
        <ele>49</ele>
        <time>2019-08-17T14:33:54Z</time>
      </trkpt>
      <trkpt lat="59.156657" lon="18.123191">
        <ele>49</ele>
        <time>2019-08-17T14:33:55Z</time>
      </trkpt>
      <trkpt lat="59.156634" lon="18.12312">
        <ele>49</ele>
        <time>2019-08-17T14:33:56Z</time>
      </trkpt>
      <trkpt lat="59.156615" lon="18.123069">
        <ele>49</ele>
        <time>2019-08-17T14:33:57Z</time>
      </trkpt>
      <trkpt lat="59.156599" lon="18.123009">
        <ele>49</ele>
        <time>2019-08-17T14:33:58Z</time>
      </trkpt>
      <trkpt lat="59.156583" lon="18.122954">
        <ele>49</ele>
        <time>2019-08-17T14:33:59Z</time>
      </trkpt>
      <trkpt lat="59.156564" lon="18.122905">
        <ele>49</ele>
        <time>2019-08-17T14:34:00Z</time>
      </trkpt>
      <trkpt lat="59.156547" lon="18.122866">
        <ele>49</ele>
        <time>2019-08-17T14:34:01Z</time>
      </trkpt>
      <trkpt lat="59.156528" lon="18.122815">
        <ele>49</ele>
        <time>2019-08-17T14:34:02Z</time>
      </trkpt>
      <trkpt lat="59.156511" lon="18.122758">
        <ele>49</ele>
        <time>2019-08-17T14:34:03Z</time>
      </trkpt>
      <trkpt lat="59.156497" lon="18.1227">
        <ele>49</ele>
        <time>2019-08-17T14:34:04Z</time>
      </trkpt>
      <trkpt lat="59.156484" lon="18.122644">
        <ele>50</ele>
        <time>2019-08-17T14:34:05Z</time>
      </trkpt>
      <trkpt lat="59.156474" lon="18.122588">
        <ele>50</ele>
        <time>2019-08-17T14:34:06Z</time>
      </trkpt>
      <trkpt lat="59.156465" lon="18.122544">
        <ele>50</ele>
        <time>2019-08-17T14:34:07Z</time>
      </trkpt>
      <trkpt lat="59.156462" lon="18.122507">
        <ele>50</ele>
        <time>2019-08-17T14:34:08Z</time>
      </trkpt>
      <trkpt lat="59.156459" lon="18.122468">
        <ele>50</ele>
        <time>2019-08-17T14:34:09Z</time>
      </trkpt>
      <trkpt lat="59.156454" lon="18.122432">
        <ele>50</ele>
        <time>2019-08-17T14:34:10Z</time>
      </trkpt>
      <trkpt lat="59.156447" lon="18.122374">
        <ele>49</ele>
        <time>2019-08-17T14:34:12Z</time>
      </trkpt>
      <trkpt lat="59.156441" lon="18.12232">
        <ele>49</ele>
        <time>2019-08-17T14:34:14Z</time>
      </trkpt>
      <trkpt lat="59.156438" lon="18.122265">
        <ele>50</ele>
        <time>2019-08-17T14:34:16Z</time>
      </trkpt>
      <trkpt lat="59.156433" lon="18.122204">
        <ele>50</ele>
        <time>2019-08-17T14:34:18Z</time>
      </trkpt>
      <trkpt lat="59.156427" lon="18.122146">
        <ele>50</ele>
        <time>2019-08-17T14:34:20Z</time>
      </trkpt>
      <trkpt lat="59.156424" lon="18.12211">
        <ele>50</ele>
        <time>2019-08-17T14:34:21Z</time>
      </trkpt>
      <trkpt lat="59.156422" lon="18.122064">
        <ele>50</ele>
        <time>2019-08-17T14:34:22Z</time>
      </trkpt>
      <trkpt lat="59.156424" lon="18.122017">
        <ele>50</ele>
        <time>2019-08-17T14:34:23Z</time>
      </trkpt>
      <trkpt lat="59.156429" lon="18.121966">
        <ele>50</ele>
        <time>2019-08-17T14:34:24Z</time>
      </trkpt>
      <trkpt lat="59.156434" lon="18.12191">
        <ele>50</ele>
        <time>2019-08-17T14:34:25Z</time>
      </trkpt>
      <trkpt lat="59.156439" lon="18.12186">
        <ele>50</ele>
        <time>2019-08-17T14:34:26Z</time>
      </trkpt>
      <trkpt lat="59.156446" lon="18.121814">
        <ele>50</ele>
        <time>2019-08-17T14:34:27Z</time>
      </trkpt>
      <trkpt lat="59.156451" lon="18.121761">
        <ele>50</ele>
        <time>2019-08-17T14:34:28Z</time>
      </trkpt>
      <trkpt lat="59.156456" lon="18.121712">
        <ele>50</ele>
        <time>2019-08-17T14:34:29Z</time>
      </trkpt>
      <trkpt lat="59.156469" lon="18.121662">
        <ele>50</ele>
        <time>2019-08-17T14:34:30Z</time>
      </trkpt>
      <trkpt lat="59.156479" lon="18.121612">
        <ele>50</ele>
        <time>2019-08-17T14:34:31Z</time>
      </trkpt>
      <trkpt lat="59.156489" lon="18.121564">
        <ele>50</ele>
        <time>2019-08-17T14:34:32Z</time>
      </trkpt>
      <trkpt lat="59.156493" lon="18.121518">
        <ele>50</ele>
        <time>2019-08-17T14:34:33Z</time>
      </trkpt>
      <trkpt lat="59.156504" lon="18.121474">
        <ele>51</ele>
        <time>2019-08-17T14:34:34Z</time>
      </trkpt>
      <trkpt lat="59.156512" lon="18.121434">
        <ele>51</ele>
        <time>2019-08-17T14:34:35Z</time>
      </trkpt>
      <trkpt lat="59.156521" lon="18.12139">
        <ele>51</ele>
        <time>2019-08-17T14:34:36Z</time>
      </trkpt>
      <trkpt lat="59.15653" lon="18.121344">
        <ele>51</ele>
        <time>2019-08-17T14:34:37Z</time>
      </trkpt>
      <trkpt lat="59.15654" lon="18.121301">
        <ele>51</ele>
        <time>2019-08-17T14:34:38Z</time>
      </trkpt>
      <trkpt lat="59.156554" lon="18.121258">
        <ele>51</ele>
        <time>2019-08-17T14:34:39Z</time>
      </trkpt>
      <trkpt lat="59.156567" lon="18.121224">
        <ele>51</ele>
        <time>2019-08-17T14:34:40Z</time>
      </trkpt>
      <trkpt lat="59.156583" lon="18.121186">
        <ele>51</ele>
        <time>2019-08-17T14:34:41Z</time>
      </trkpt>
      <trkpt lat="59.156601" lon="18.121146">
        <ele>51</ele>
        <time>2019-08-17T14:34:42Z</time>
      </trkpt>
      <trkpt lat="59.156619" lon="18.121108">
        <ele>51</ele>
        <time>2019-08-17T14:34:43Z</time>
      </trkpt>
      <trkpt lat="59.156634" lon="18.121076">
        <ele>51</ele>
        <time>2019-08-17T14:34:44Z</time>
      </trkpt>
      <trkpt lat="59.156651" lon="18.121045">
        <ele>51</ele>
        <time>2019-08-17T14:34:45Z</time>
      </trkpt>
      <trkpt lat="59.156669" lon="18.12102">
        <ele>51</ele>
        <time>2019-08-17T14:34:46Z</time>
      </trkpt>
      <trkpt lat="59.156687" lon="18.12099">
        <ele>51</ele>
        <time>2019-08-17T14:34:47Z</time>
      </trkpt>
      <trkpt lat="59.1567" lon="18.120964">
        <ele>51</ele>
        <time>2019-08-17T14:34:48Z</time>
      </trkpt>
      <trkpt lat="59.156733" lon="18.12094">
        <ele>51</ele>
        <time>2019-08-17T14:34:50Z</time>
      </trkpt>
      <trkpt lat="59.156755" lon="18.120928">
        <ele>52</ele>
        <time>2019-08-17T14:34:52Z</time>
      </trkpt>
      <trkpt lat="59.156752" lon="18.120921">
        <ele>52</ele>
        <time>2019-08-17T14:34:57Z</time>
      </trkpt>
      <trkpt lat="59.156761" lon="18.120806">
        <ele>56</ele>
        <time>2019-08-17T14:37:29Z</time>
      </trkpt>
      <trkpt lat="59.15678" lon="18.120761">
        <ele>57</ele>
        <time>2019-08-17T14:37:30Z</time>
      </trkpt>
      <trkpt lat="59.156802" lon="18.120699">
        <ele>57</ele>
        <time>2019-08-17T14:37:32Z</time>
      </trkpt>
      <trkpt lat="59.156817" lon="18.120667">
        <ele>57</ele>
        <time>2019-08-17T14:37:33Z</time>
      </trkpt>
      <trkpt lat="59.15683" lon="18.120628">
        <ele>57</ele>
        <time>2019-08-17T14:37:34Z</time>
      </trkpt>
      <trkpt lat="59.156841" lon="18.120593">
        <ele>57</ele>
        <time>2019-08-17T14:37:35Z</time>
      </trkpt>
      <trkpt lat="59.156852" lon="18.120563">
        <ele>57</ele>
        <time>2019-08-17T14:37:36Z</time>
      </trkpt>
      <trkpt lat="59.156864" lon="18.120536">
        <ele>57</ele>
        <time>2019-08-17T14:37:37Z</time>
      </trkpt>
      <trkpt lat="59.156886" lon="18.120491">
        <ele>57</ele>
        <time>2019-08-17T14:37:39Z</time>
      </trkpt>
      <trkpt lat="59.156904" lon="18.120438">
        <ele>57</ele>
        <time>2019-08-17T14:37:41Z</time>
      </trkpt>
      <trkpt lat="59.156915" lon="18.120402">
        <ele>57</ele>
        <time>2019-08-17T14:37:42Z</time>
      </trkpt>
      <trkpt lat="59.156929" lon="18.120367">
        <ele>57</ele>
        <time>2019-08-17T14:37:43Z</time>
      </trkpt>
      <trkpt lat="59.156944" lon="18.120328">
        <ele>57</ele>
        <time>2019-08-17T14:37:44Z</time>
      </trkpt>
      <trkpt lat="59.15696" lon="18.120291">
        <ele>57</ele>
        <time>2019-08-17T14:37:45Z</time>
      </trkpt>
      <trkpt lat="59.156972" lon="18.120246">
        <ele>57</ele>
        <time>2019-08-17T14:37:46Z</time>
      </trkpt>
      <trkpt lat="59.156991" lon="18.120199">
        <ele>57</ele>
        <time>2019-08-17T14:37:47Z</time>
      </trkpt>
      <trkpt lat="59.157008" lon="18.120151">
        <ele>57</ele>
        <time>2019-08-17T14:37:48Z</time>
      </trkpt>
      <trkpt lat="59.157027" lon="18.120098">
        <ele>57</ele>
        <time>2019-08-17T14:37:49Z</time>
      </trkpt>
      <trkpt lat="59.157052" lon="18.120043">
        <ele>57</ele>
        <time>2019-08-17T14:37:50Z</time>
      </trkpt>
      <trkpt lat="59.157073" lon="18.119984">
        <ele>57</ele>
        <time>2019-08-17T14:37:51Z</time>
      </trkpt>
      <trkpt lat="59.157095" lon="18.119935">
        <ele>57</ele>
        <time>2019-08-17T14:37:52Z</time>
      </trkpt>
      <trkpt lat="59.157114" lon="18.119878">
        <ele>57</ele>
        <time>2019-08-17T14:37:53Z</time>
      </trkpt>
      <trkpt lat="59.157133" lon="18.119825">
        <ele>57</ele>
        <time>2019-08-17T14:37:54Z</time>
      </trkpt>
      <trkpt lat="59.157157" lon="18.119775">
        <ele>57</ele>
        <time>2019-08-17T14:37:55Z</time>
      </trkpt>
      <trkpt lat="59.15719" lon="18.119719">
        <ele>57</ele>
        <time>2019-08-17T14:37:56Z</time>
      </trkpt>
      <trkpt lat="59.15722" lon="18.119652">
        <ele>57</ele>
        <time>2019-08-17T14:37:57Z</time>
      </trkpt>
      <trkpt lat="59.157239" lon="18.119597">
        <ele>56</ele>
        <time>2019-08-17T14:37:58Z</time>
      </trkpt>
      <trkpt lat="59.157267" lon="18.119552">
        <ele>56</ele>
        <time>2019-08-17T14:37:59Z</time>
      </trkpt>
      <trkpt lat="59.157291" lon="18.119509">
        <ele>56</ele>
        <time>2019-08-17T14:38:00Z</time>
      </trkpt>
      <trkpt lat="59.157318" lon="18.119468">
        <ele>56</ele>
        <time>2019-08-17T14:38:01Z</time>
      </trkpt>
      <trkpt lat="59.157339" lon="18.119425">
        <ele>56</ele>
        <time>2019-08-17T14:38:02Z</time>
      </trkpt>
      <trkpt lat="59.157361" lon="18.119387">
        <ele>56</ele>
        <time>2019-08-17T14:38:03Z</time>
      </trkpt>
      <trkpt lat="59.157382" lon="18.119353">
        <ele>56</ele>
        <time>2019-08-17T14:38:04Z</time>
      </trkpt>
      <trkpt lat="59.157397" lon="18.119318">
        <ele>56</ele>
        <time>2019-08-17T14:38:05Z</time>
      </trkpt>
      <trkpt lat="59.157408" lon="18.119286">
        <ele>56</ele>
        <time>2019-08-17T14:38:06Z</time>
      </trkpt>
      <trkpt lat="59.157425" lon="18.119234">
        <ele>56</ele>
        <time>2019-08-17T14:38:09Z</time>
      </trkpt>
      <trkpt lat="59.157446" lon="18.11919">
        <ele>57</ele>
        <time>2019-08-17T14:38:10Z</time>
      </trkpt>
      <trkpt lat="59.157457" lon="18.119175">
        <ele>57</ele>
        <time>2019-08-17T14:38:15Z</time>
      </trkpt>
      <trkpt lat="59.157505" lon="18.119063">
        <ele>0</ele>
        <time>2019-08-17T14:38:49Z</time>
      </trkpt>
      <trkpt lat="59.157518" lon="18.119025">
        <ele>58</ele>
        <time>2019-08-17T14:38:49Z</time>
      </trkpt>
      <trkpt lat="59.157534" lon="18.118984">
        <ele>58</ele>
        <time>2019-08-17T14:38:50Z</time>
      </trkpt>
      <trkpt lat="59.157549" lon="18.118942">
        <ele>58</ele>
        <time>2019-08-17T14:38:51Z</time>
      </trkpt>
      <trkpt lat="59.157563" lon="18.118902">
        <ele>59</ele>
        <time>2019-08-17T14:38:52Z</time>
      </trkpt>
      <trkpt lat="59.157576" lon="18.11886">
        <ele>59</ele>
        <time>2019-08-17T14:38:53Z</time>
      </trkpt>
      <trkpt lat="59.157593" lon="18.118801">
        <ele>59</ele>
        <time>2019-08-17T14:38:54Z</time>
      </trkpt>
      <trkpt lat="59.157607" lon="18.118737">
        <ele>59</ele>
        <time>2019-08-17T14:38:55Z</time>
      </trkpt>
      <trkpt lat="59.15763" lon="18.118676">
        <ele>59</ele>
        <time>2019-08-17T14:38:56Z</time>
      </trkpt>
      <trkpt lat="59.15765" lon="18.118622">
        <ele>59</ele>
        <time>2019-08-17T14:38:57Z</time>
      </trkpt>
      <trkpt lat="59.157666" lon="18.11857">
        <ele>59</ele>
        <time>2019-08-17T14:38:58Z</time>
      </trkpt>
      <trkpt lat="59.157684" lon="18.118522">
        <ele>59</ele>
        <time>2019-08-17T14:38:59Z</time>
      </trkpt>
      <trkpt lat="59.157702" lon="18.118473">
        <ele>59</ele>
        <time>2019-08-17T14:39:00Z</time>
      </trkpt>
      <trkpt lat="59.157723" lon="18.118423">
        <ele>59</ele>
        <time>2019-08-17T14:39:01Z</time>
      </trkpt>
      <trkpt lat="59.157748" lon="18.118373">
        <ele>59</ele>
        <time>2019-08-17T14:39:02Z</time>
      </trkpt>
      <trkpt lat="59.157773" lon="18.118325">
        <ele>59</ele>
        <time>2019-08-17T14:39:03Z</time>
      </trkpt>
      <trkpt lat="59.157799" lon="18.118276">
        <ele>58</ele>
        <time>2019-08-17T14:39:04Z</time>
      </trkpt>
      <trkpt lat="59.157831" lon="18.118236">
        <ele>58</ele>
        <time>2019-08-17T14:39:05Z</time>
      </trkpt>
      <trkpt lat="59.157858" lon="18.1182">
        <ele>58</ele>
        <time>2019-08-17T14:39:06Z</time>
      </trkpt>
      <trkpt lat="59.157883" lon="18.118166">
        <ele>58</ele>
        <time>2019-08-17T14:39:07Z</time>
      </trkpt>
      <trkpt lat="59.15791" lon="18.118143">
        <ele>58</ele>
        <time>2019-08-17T14:39:08Z</time>
      </trkpt>
      <trkpt lat="59.157936" lon="18.118125">
        <ele>58</ele>
        <time>2019-08-17T14:39:09Z</time>
      </trkpt>
      <trkpt lat="59.15796" lon="18.118116">
        <ele>58</ele>
        <time>2019-08-17T14:39:10Z</time>
      </trkpt>
      <trkpt lat="59.157988" lon="18.118121">
        <ele>58</ele>
        <time>2019-08-17T14:39:11Z</time>
      </trkpt>
      <trkpt lat="59.158016" lon="18.118128">
        <ele>58</ele>
        <time>2019-08-17T14:39:12Z</time>
      </trkpt>
      <trkpt lat="59.158043" lon="18.118133">
        <ele>58</ele>
        <time>2019-08-17T14:39:13Z</time>
      </trkpt>
      <trkpt lat="59.158069" lon="18.118143">
        <ele>58</ele>
        <time>2019-08-17T14:39:14Z</time>
      </trkpt>
      <trkpt lat="59.158092" lon="18.118149">
        <ele>58</ele>
        <time>2019-08-17T14:39:15Z</time>
      </trkpt>
      <trkpt lat="59.158127" lon="18.118169">
        <ele>58</ele>
        <time>2019-08-17T14:39:17Z</time>
      </trkpt>
      <trkpt lat="59.158145" lon="18.118177">
        <ele>58</ele>
        <time>2019-08-17T14:39:18Z</time>
      </trkpt>
      <trkpt lat="59.158167" lon="18.118197">
        <ele>58</ele>
        <time>2019-08-17T14:39:19Z</time>
      </trkpt>
      <trkpt lat="59.158188" lon="18.118215">
        <ele>59</ele>
        <time>2019-08-17T14:39:20Z</time>
      </trkpt>
      <trkpt lat="59.158205" lon="18.118228">
        <ele>59</ele>
        <time>2019-08-17T14:39:21Z</time>
      </trkpt>
      <trkpt lat="59.158235" lon="18.118252">
        <ele>59</ele>
        <time>2019-08-17T14:39:23Z</time>
      </trkpt>
      <trkpt lat="59.158258" lon="18.118269">
        <ele>59</ele>
        <time>2019-08-17T14:39:25Z</time>
      </trkpt>
      <trkpt lat="59.158276" lon="18.118299">
        <ele>59</ele>
        <time>2019-08-17T14:39:28Z</time>
      </trkpt>
      <trkpt lat="59.158289" lon="18.118298">
        <ele>60</ele>
        <time>2019-08-17T14:39:33Z</time>
      </trkpt>
      <trkpt lat="59.158333" lon="18.118212">
        <ele>63</ele>
        <time>2019-08-17T14:41:45Z</time>
      </trkpt>
      <trkpt lat="59.158342" lon="18.118202">
        <ele>64</ele>
        <time>2019-08-17T14:41:45Z</time>
      </trkpt>
      <trkpt lat="59.158351" lon="18.118162">
        <ele>64</ele>
        <time>2019-08-17T14:41:47Z</time>
      </trkpt>
      <trkpt lat="59.158359" lon="18.118108">
        <ele>64</ele>
        <time>2019-08-17T14:41:49Z</time>
      </trkpt>
      <trkpt lat="59.158382" lon="18.118044">
        <ele>64</ele>
        <time>2019-08-17T14:41:51Z</time>
      </trkpt>
      <trkpt lat="59.158404" lon="18.117996">
        <ele>63</ele>
        <time>2019-08-17T14:41:52Z</time>
      </trkpt>
      <trkpt lat="59.158427" lon="18.117954">
        <ele>63</ele>
        <time>2019-08-17T14:41:53Z</time>
      </trkpt>
      <trkpt lat="59.158448" lon="18.117924">
        <ele>63</ele>
        <time>2019-08-17T14:41:54Z</time>
      </trkpt>
      <trkpt lat="59.158469" lon="18.11789">
        <ele>63</ele>
        <time>2019-08-17T14:41:55Z</time>
      </trkpt>
      <trkpt lat="59.15849" lon="18.11786">
        <ele>63</ele>
        <time>2019-08-17T14:41:56Z</time>
      </trkpt>
      <trkpt lat="59.158509" lon="18.11784">
        <ele>63</ele>
        <time>2019-08-17T14:41:57Z</time>
      </trkpt>
      <trkpt lat="59.158526" lon="18.117824">
        <ele>63</ele>
        <time>2019-08-17T14:41:58Z</time>
      </trkpt>
      <trkpt lat="59.158547" lon="18.117804">
        <ele>63</ele>
        <time>2019-08-17T14:41:59Z</time>
      </trkpt>
      <trkpt lat="59.158572" lon="18.117782">
        <ele>63</ele>
        <time>2019-08-17T14:42:00Z</time>
      </trkpt>
      <trkpt lat="59.158597" lon="18.117762">
        <ele>63</ele>
        <time>2019-08-17T14:42:01Z</time>
      </trkpt>
      <trkpt lat="59.158622" lon="18.117744">
        <ele>63</ele>
        <time>2019-08-17T14:42:02Z</time>
      </trkpt>
      <trkpt lat="59.158646" lon="18.117732">
        <ele>63</ele>
        <time>2019-08-17T14:42:03Z</time>
      </trkpt>
      <trkpt lat="59.158675" lon="18.117724">
        <ele>63</ele>
        <time>2019-08-17T14:42:04Z</time>
      </trkpt>
      <trkpt lat="59.158705" lon="18.117724">
        <ele>62</ele>
        <time>2019-08-17T14:42:05Z</time>
      </trkpt>
      <trkpt lat="59.158733" lon="18.117727">
        <ele>62</ele>
        <time>2019-08-17T14:42:06Z</time>
      </trkpt>
      <trkpt lat="59.158759" lon="18.117731">
        <ele>62</ele>
        <time>2019-08-17T14:42:07Z</time>
      </trkpt>
      <trkpt lat="59.158785" lon="18.117731">
        <ele>62</ele>
        <time>2019-08-17T14:42:08Z</time>
      </trkpt>
      <trkpt lat="59.158809" lon="18.117726">
        <ele>62</ele>
        <time>2019-08-17T14:42:09Z</time>
      </trkpt>
      <trkpt lat="59.158833" lon="18.117716">
        <ele>62</ele>
        <time>2019-08-17T14:42:10Z</time>
      </trkpt>
      <trkpt lat="59.158856" lon="18.117702">
        <ele>62</ele>
        <time>2019-08-17T14:42:11Z</time>
      </trkpt>
      <trkpt lat="59.158879" lon="18.117684">
        <ele>62</ele>
        <time>2019-08-17T14:42:12Z</time>
      </trkpt>
      <trkpt lat="59.158899" lon="18.117664">
        <ele>62</ele>
        <time>2019-08-17T14:42:13Z</time>
      </trkpt>
      <trkpt lat="59.158918" lon="18.11764">
        <ele>62</ele>
        <time>2019-08-17T14:42:14Z</time>
      </trkpt>
      <trkpt lat="59.158936" lon="18.11762">
        <ele>62</ele>
        <time>2019-08-17T14:42:15Z</time>
      </trkpt>
      <trkpt lat="59.158953" lon="18.117598">
        <ele>62</ele>
        <time>2019-08-17T14:42:16Z</time>
      </trkpt>
      <trkpt lat="59.158972" lon="18.117584">
        <ele>61</ele>
        <time>2019-08-17T14:42:17Z</time>
      </trkpt>
      <trkpt lat="59.158991" lon="18.11757">
        <ele>61</ele>
        <time>2019-08-17T14:42:18Z</time>
      </trkpt>
      <trkpt lat="59.159009" lon="18.117558">
        <ele>61</ele>
        <time>2019-08-17T14:42:19Z</time>
      </trkpt>
      <trkpt lat="59.15903" lon="18.117554">
        <ele>61</ele>
        <time>2019-08-17T14:42:20Z</time>
      </trkpt>
      <trkpt lat="59.159057" lon="18.117553">
        <ele>61</ele>
        <time>2019-08-17T14:42:21Z</time>
      </trkpt>
      <trkpt lat="59.159086" lon="18.117553">
        <ele>61</ele>
        <time>2019-08-17T14:42:22Z</time>
      </trkpt>
      <trkpt lat="59.159113" lon="18.117558">
        <ele>61</ele>
        <time>2019-08-17T14:42:23Z</time>
      </trkpt>
      <trkpt lat="59.159144" lon="18.117565">
        <ele>61</ele>
        <time>2019-08-17T14:42:24Z</time>
      </trkpt>
      <trkpt lat="59.159178" lon="18.117578">
        <ele>61</ele>
        <time>2019-08-17T14:42:25Z</time>
      </trkpt>
      <trkpt lat="59.159212" lon="18.117593">
        <ele>61</ele>
        <time>2019-08-17T14:42:26Z</time>
      </trkpt>
      <trkpt lat="59.159253" lon="18.117603">
        <ele>61</ele>
        <time>2019-08-17T14:42:27Z</time>
      </trkpt>
      <trkpt lat="59.159296" lon="18.117611">
        <ele>62</ele>
        <time>2019-08-17T14:42:28Z</time>
      </trkpt>
      <trkpt lat="59.159344" lon="18.11762">
        <ele>62</ele>
        <time>2019-08-17T14:42:29Z</time>
      </trkpt>
      <trkpt lat="59.159393" lon="18.11763">
        <ele>62</ele>
        <time>2019-08-17T14:42:30Z</time>
      </trkpt>
      <trkpt lat="59.159432" lon="18.117644">
        <ele>62</ele>
        <time>2019-08-17T14:42:31Z</time>
      </trkpt>
      <trkpt lat="59.159473" lon="18.117664">
        <ele>62</ele>
        <time>2019-08-17T14:42:32Z</time>
      </trkpt>
      <trkpt lat="59.159511" lon="18.117682">
        <ele>62</ele>
        <time>2019-08-17T14:42:33Z</time>
      </trkpt>
      <trkpt lat="59.159546" lon="18.117693">
        <ele>62</ele>
        <time>2019-08-17T14:42:34Z</time>
      </trkpt>
      <trkpt lat="59.159585" lon="18.117702">
        <ele>62</ele>
        <time>2019-08-17T14:42:35Z</time>
      </trkpt>
      <trkpt lat="59.159627" lon="18.117712">
        <ele>62</ele>
        <time>2019-08-17T14:42:36Z</time>
      </trkpt>
      <trkpt lat="59.159661" lon="18.117724">
        <ele>62</ele>
        <time>2019-08-17T14:42:37Z</time>
      </trkpt>
      <trkpt lat="59.15969" lon="18.11773">
        <ele>62</ele>
        <time>2019-08-17T14:42:38Z</time>
      </trkpt>
      <trkpt lat="59.159717" lon="18.117727">
        <ele>62</ele>
        <time>2019-08-17T14:42:39Z</time>
      </trkpt>
      <trkpt lat="59.159735" lon="18.117706">
        <ele>62</ele>
        <time>2019-08-17T14:42:42Z</time>
      </trkpt>
      <trkpt lat="59.159758" lon="18.117688">
        <ele>62</ele>
        <time>2019-08-17T14:42:43Z</time>
      </trkpt>
      <trkpt lat="59.159789" lon="18.117672">
        <ele>62</ele>
        <time>2019-08-17T14:42:44Z</time>
      </trkpt>
      <trkpt lat="59.159814" lon="18.117658">
        <ele>61</ele>
        <time>2019-08-17T14:42:45Z</time>
      </trkpt>
      <trkpt lat="59.159832" lon="18.117642">
        <ele>61</ele>
        <time>2019-08-17T14:42:46Z</time>
      </trkpt>
      <trkpt lat="59.159858" lon="18.117622">
        <ele>61</ele>
        <time>2019-08-17T14:42:48Z</time>
      </trkpt>
      <trkpt lat="59.159882" lon="18.117598">
        <ele>61</ele>
        <time>2019-08-17T14:42:50Z</time>
      </trkpt>
      <trkpt lat="59.1599" lon="18.117582">
        <ele>61</ele>
        <time>2019-08-17T14:42:51Z</time>
      </trkpt>
      <trkpt lat="59.159925" lon="18.117558">
        <ele>61</ele>
        <time>2019-08-17T14:42:52Z</time>
      </trkpt>
      <trkpt lat="59.159957" lon="18.11753">
        <ele>61</ele>
        <time>2019-08-17T14:42:53Z</time>
      </trkpt>
      <trkpt lat="59.15999" lon="18.117508">
        <ele>61</ele>
        <time>2019-08-17T14:42:54Z</time>
      </trkpt>
      <trkpt lat="59.160022" lon="18.117488">
        <ele>61</ele>
        <time>2019-08-17T14:42:55Z</time>
      </trkpt>
      <trkpt lat="59.160053" lon="18.117462">
        <ele>60</ele>
        <time>2019-08-17T14:42:56Z</time>
      </trkpt>
      <trkpt lat="59.160079" lon="18.11744">
        <ele>60</ele>
        <time>2019-08-17T14:42:57Z</time>
      </trkpt>
      <trkpt lat="59.1601" lon="18.117418">
        <ele>60</ele>
        <time>2019-08-17T14:42:58Z</time>
      </trkpt>
      <trkpt lat="59.160121" lon="18.117397">
        <ele>60</ele>
        <time>2019-08-17T14:42:59Z</time>
      </trkpt>
      <trkpt lat="59.160149" lon="18.117368">
        <ele>60</ele>
        <time>2019-08-17T14:43:00Z</time>
      </trkpt>
      <trkpt lat="59.160181" lon="18.117334">
        <ele>60</ele>
        <time>2019-08-17T14:43:01Z</time>
      </trkpt>
      <trkpt lat="59.160222" lon="18.117293">
        <ele>60</ele>
        <time>2019-08-17T14:43:02Z</time>
      </trkpt>
      <trkpt lat="59.160265" lon="18.117256">
        <ele>60</ele>
        <time>2019-08-17T14:43:03Z</time>
      </trkpt>
      <trkpt lat="59.160306" lon="18.117222">
        <ele>59</ele>
        <time>2019-08-17T14:43:04Z</time>
      </trkpt>
      <trkpt lat="59.160337" lon="18.117191">
        <ele>59</ele>
        <time>2019-08-17T14:43:05Z</time>
      </trkpt>
      <trkpt lat="59.160359" lon="18.117169">
        <ele>59</ele>
        <time>2019-08-17T14:43:06Z</time>
      </trkpt>
      <trkpt lat="59.160377" lon="18.117147">
        <ele>58</ele>
        <time>2019-08-17T14:43:07Z</time>
      </trkpt>
      <trkpt lat="59.160408" lon="18.117121">
        <ele>58</ele>
        <time>2019-08-17T14:43:09Z</time>
      </trkpt>
      <trkpt lat="59.160419" lon="18.117096">
        <ele>58</ele>
        <time>2019-08-17T14:43:15Z</time>
      </trkpt>
      <trkpt lat="59.160439" lon="18.117113">
        <ele>54</ele>
        <time>2019-08-17T14:46:59Z</time>
      </trkpt>
      <trkpt lat="59.160445" lon="18.11713">
        <ele>54</ele>
        <time>2019-08-17T14:47:00Z</time>
      </trkpt>
      <trkpt lat="59.160463" lon="18.117166">
        <ele>54</ele>
        <time>2019-08-17T14:47:01Z</time>
      </trkpt>
      <trkpt lat="59.16049" lon="18.117209">
        <ele>54</ele>
        <time>2019-08-17T14:47:03Z</time>
      </trkpt>
      <trkpt lat="59.160509" lon="18.117237">
        <ele>54</ele>
        <time>2019-08-17T14:47:04Z</time>
      </trkpt>
      <trkpt lat="59.160528" lon="18.117271">
        <ele>54</ele>
        <time>2019-08-17T14:47:05Z</time>
      </trkpt>
      <trkpt lat="59.160547" lon="18.117309">
        <ele>54</ele>
        <time>2019-08-17T14:47:06Z</time>
      </trkpt>
      <trkpt lat="59.160565" lon="18.11735">
        <ele>54</ele>
        <time>2019-08-17T14:47:07Z</time>
      </trkpt>
      <trkpt lat="59.160584" lon="18.117395">
        <ele>54</ele>
        <time>2019-08-17T14:47:08Z</time>
      </trkpt>
      <trkpt lat="59.160606" lon="18.117444">
        <ele>54</ele>
        <time>2019-08-17T14:47:09Z</time>
      </trkpt>
      <trkpt lat="59.160627" lon="18.117492">
        <ele>54</ele>
        <time>2019-08-17T14:47:10Z</time>
      </trkpt>
      <trkpt lat="59.160664" lon="18.11753">
        <ele>54</ele>
        <time>2019-08-17T14:47:11Z</time>
      </trkpt>
      <trkpt lat="59.160701" lon="18.117568">
        <ele>54</ele>
        <time>2019-08-17T14:47:12Z</time>
      </trkpt>
      <trkpt lat="59.160741" lon="18.117606">
        <ele>54</ele>
        <time>2019-08-17T14:47:13Z</time>
      </trkpt>
      <trkpt lat="59.160787" lon="18.117646">
        <ele>54</ele>
        <time>2019-08-17T14:47:14Z</time>
      </trkpt>
      <trkpt lat="59.160836" lon="18.117676">
        <ele>53</ele>
        <time>2019-08-17T14:47:15Z</time>
      </trkpt>
      <trkpt lat="59.160884" lon="18.117698">
        <ele>53</ele>
        <time>2019-08-17T14:47:16Z</time>
      </trkpt>
      <trkpt lat="59.160934" lon="18.117717">
        <ele>53</ele>
        <time>2019-08-17T14:47:17Z</time>
      </trkpt>
      <trkpt lat="59.160986" lon="18.117734">
        <ele>54</ele>
        <time>2019-08-17T14:47:18Z</time>
      </trkpt>
      <trkpt lat="59.161039" lon="18.11775">
        <ele>54</ele>
        <time>2019-08-17T14:47:19Z</time>
      </trkpt>
      <trkpt lat="59.161088" lon="18.117774">
        <ele>54</ele>
        <time>2019-08-17T14:47:20Z</time>
      </trkpt>
      <trkpt lat="59.161134" lon="18.117806">
        <ele>54</ele>
        <time>2019-08-17T14:47:21Z</time>
      </trkpt>
      <trkpt lat="59.161175" lon="18.117854">
        <ele>54</ele>
        <time>2019-08-17T14:47:22Z</time>
      </trkpt>
      <trkpt lat="59.16121" lon="18.11791">
        <ele>54</ele>
        <time>2019-08-17T14:47:23Z</time>
      </trkpt>
      <trkpt lat="59.161243" lon="18.117972">
        <ele>54</ele>
        <time>2019-08-17T14:47:24Z</time>
      </trkpt>
      <trkpt lat="59.161272" lon="18.118035">
        <ele>54</ele>
        <time>2019-08-17T14:47:25Z</time>
      </trkpt>
      <trkpt lat="59.1613" lon="18.118104">
        <ele>53</ele>
        <time>2019-08-17T14:47:26Z</time>
      </trkpt>
      <trkpt lat="59.161326" lon="18.118182">
        <ele>53</ele>
        <time>2019-08-17T14:47:27Z</time>
      </trkpt>
      <trkpt lat="59.161351" lon="18.11827">
        <ele>53</ele>
        <time>2019-08-17T14:47:28Z</time>
      </trkpt>
      <trkpt lat="59.161368" lon="18.11836">
        <ele>53</ele>
        <time>2019-08-17T14:47:29Z</time>
      </trkpt>
      <trkpt lat="59.161381" lon="18.118448">
        <ele>53</ele>
        <time>2019-08-17T14:47:30Z</time>
      </trkpt>
      <trkpt lat="59.161389" lon="18.118536">
        <ele>53</ele>
        <time>2019-08-17T14:47:31Z</time>
      </trkpt>
      <trkpt lat="59.1614" lon="18.118622">
        <ele>53</ele>
        <time>2019-08-17T14:47:32Z</time>
      </trkpt>
      <trkpt lat="59.161418" lon="18.118704">
        <ele>53</ele>
        <time>2019-08-17T14:47:33Z</time>
      </trkpt>
      <trkpt lat="59.161442" lon="18.118778">
        <ele>53</ele>
        <time>2019-08-17T14:47:34Z</time>
      </trkpt>
      <trkpt lat="59.161473" lon="18.11884">
        <ele>53</ele>
        <time>2019-08-17T14:47:35Z</time>
      </trkpt>
      <trkpt lat="59.161505" lon="18.118896">
        <ele>52</ele>
        <time>2019-08-17T14:47:36Z</time>
      </trkpt>
      <trkpt lat="59.161535" lon="18.118944">
        <ele>52</ele>
        <time>2019-08-17T14:47:37Z</time>
      </trkpt>
      <trkpt lat="59.161563" lon="18.118986">
        <ele>52</ele>
        <time>2019-08-17T14:47:38Z</time>
      </trkpt>
      <trkpt lat="59.161592" lon="18.119026">
        <ele>53</ele>
        <time>2019-08-17T14:47:39Z</time>
      </trkpt>
      <trkpt lat="59.16162" lon="18.119062">
        <ele>53</ele>
        <time>2019-08-17T14:47:40Z</time>
      </trkpt>
      <trkpt lat="59.161651" lon="18.119104">
        <ele>53</ele>
        <time>2019-08-17T14:47:41Z</time>
      </trkpt>
      <trkpt lat="59.161686" lon="18.119148">
        <ele>53</ele>
        <time>2019-08-17T14:47:42Z</time>
      </trkpt>
      <trkpt lat="59.161722" lon="18.11919">
        <ele>53</ele>
        <time>2019-08-17T14:47:43Z</time>
      </trkpt>
      <trkpt lat="59.16176" lon="18.119234">
        <ele>52</ele>
        <time>2019-08-17T14:47:44Z</time>
      </trkpt>
      <trkpt lat="59.161805" lon="18.119288">
        <ele>52</ele>
        <time>2019-08-17T14:47:45Z</time>
      </trkpt>
      <trkpt lat="59.161852" lon="18.119342">
        <ele>52</ele>
        <time>2019-08-17T14:47:46Z</time>
      </trkpt>
      <trkpt lat="59.161896" lon="18.119397">
        <ele>52</ele>
        <time>2019-08-17T14:47:47Z</time>
      </trkpt>
      <trkpt lat="59.16194" lon="18.119448">
        <ele>52</ele>
        <time>2019-08-17T14:47:48Z</time>
      </trkpt>
      <trkpt lat="59.161984" lon="18.119497">
        <ele>52</ele>
        <time>2019-08-17T14:47:49Z</time>
      </trkpt>
      <trkpt lat="59.162026" lon="18.119548">
        <ele>52</ele>
        <time>2019-08-17T14:47:50Z</time>
      </trkpt>
      <trkpt lat="59.162067" lon="18.119597">
        <ele>51</ele>
        <time>2019-08-17T14:47:51Z</time>
      </trkpt>
      <trkpt lat="59.162109" lon="18.119646">
        <ele>51</ele>
        <time>2019-08-17T14:47:52Z</time>
      </trkpt>
      <trkpt lat="59.162151" lon="18.119698">
        <ele>51</ele>
        <time>2019-08-17T14:47:53Z</time>
      </trkpt>
      <trkpt lat="59.162192" lon="18.119749">
        <ele>51</ele>
        <time>2019-08-17T14:47:54Z</time>
      </trkpt>
      <trkpt lat="59.162231" lon="18.119802">
        <ele>51</ele>
        <time>2019-08-17T14:47:55Z</time>
      </trkpt>
      <trkpt lat="59.162269" lon="18.119851">
        <ele>51</ele>
        <time>2019-08-17T14:47:56Z</time>
      </trkpt>
      <trkpt lat="59.162307" lon="18.1199">
        <ele>51</ele>
        <time>2019-08-17T14:47:57Z</time>
      </trkpt>
      <trkpt lat="59.16234" lon="18.119949">
        <ele>51</ele>
        <time>2019-08-17T14:47:58Z</time>
      </trkpt>
      <trkpt lat="59.162372" lon="18.119989">
        <ele>51</ele>
        <time>2019-08-17T14:47:59Z</time>
      </trkpt>
      <trkpt lat="59.162406" lon="18.120036">
        <ele>51</ele>
        <time>2019-08-17T14:48:00Z</time>
      </trkpt>
      <trkpt lat="59.162441" lon="18.120082">
        <ele>51</ele>
        <time>2019-08-17T14:48:01Z</time>
      </trkpt>
      <trkpt lat="59.162477" lon="18.120127">
        <ele>51</ele>
        <time>2019-08-17T14:48:02Z</time>
      </trkpt>
      <trkpt lat="59.162513" lon="18.120169">
        <ele>51</ele>
        <time>2019-08-17T14:48:03Z</time>
      </trkpt>
      <trkpt lat="59.162551" lon="18.120216">
        <ele>51</ele>
        <time>2019-08-17T14:48:04Z</time>
      </trkpt>
      <trkpt lat="59.162588" lon="18.120266">
        <ele>51</ele>
        <time>2019-08-17T14:48:05Z</time>
      </trkpt>
      <trkpt lat="59.162625" lon="18.120317">
        <ele>51</ele>
        <time>2019-08-17T14:48:06Z</time>
      </trkpt>
      <trkpt lat="59.162664" lon="18.120368">
        <ele>51</ele>
        <time>2019-08-17T14:48:07Z</time>
      </trkpt>
      <trkpt lat="59.162702" lon="18.120417">
        <ele>50</ele>
        <time>2019-08-17T14:48:08Z</time>
      </trkpt>
      <trkpt lat="59.162741" lon="18.120466">
        <ele>50</ele>
        <time>2019-08-17T14:48:09Z</time>
      </trkpt>
      <trkpt lat="59.162779" lon="18.120512">
        <ele>50</ele>
        <time>2019-08-17T14:48:10Z</time>
      </trkpt>
      <trkpt lat="59.162816" lon="18.120557">
        <ele>50</ele>
        <time>2019-08-17T14:48:11Z</time>
      </trkpt>
      <trkpt lat="59.162852" lon="18.120604">
        <ele>50</ele>
        <time>2019-08-17T14:48:12Z</time>
      </trkpt>
      <trkpt lat="59.16288" lon="18.120666">
        <ele>50</ele>
        <time>2019-08-17T14:48:13Z</time>
      </trkpt>
      <trkpt lat="59.1629" lon="18.120738">
        <ele>50</ele>
        <time>2019-08-17T14:48:14Z</time>
      </trkpt>
      <trkpt lat="59.162913" lon="18.120807">
        <ele>50</ele>
        <time>2019-08-17T14:48:15Z</time>
      </trkpt>
      <trkpt lat="59.162925" lon="18.12087">
        <ele>50</ele>
        <time>2019-08-17T14:48:16Z</time>
      </trkpt>
      <trkpt lat="59.162937" lon="18.120928">
        <ele>50</ele>
        <time>2019-08-17T14:48:17Z</time>
      </trkpt>
      <trkpt lat="59.162945" lon="18.120981">
        <ele>50</ele>
        <time>2019-08-17T14:48:18Z</time>
      </trkpt>
      <trkpt lat="59.162954" lon="18.121026">
        <ele>50</ele>
        <time>2019-08-17T14:48:19Z</time>
      </trkpt>
      <trkpt lat="59.162965" lon="18.121073">
        <ele>49</ele>
        <time>2019-08-17T14:48:20Z</time>
      </trkpt>
      <trkpt lat="59.162975" lon="18.121122">
        <ele>49</ele>
        <time>2019-08-17T14:48:21Z</time>
      </trkpt>
      <trkpt lat="59.162985" lon="18.121172">
        <ele>49</ele>
        <time>2019-08-17T14:48:22Z</time>
      </trkpt>
      <trkpt lat="59.162995" lon="18.121223">
        <ele>49</ele>
        <time>2019-08-17T14:48:23Z</time>
      </trkpt>
      <trkpt lat="59.163002" lon="18.121271">
        <ele>49</ele>
        <time>2019-08-17T14:48:24Z</time>
      </trkpt>
      <trkpt lat="59.163009" lon="18.121316">
        <ele>49</ele>
        <time>2019-08-17T14:48:25Z</time>
      </trkpt>
      <trkpt lat="59.163017" lon="18.121359">
        <ele>49</ele>
        <time>2019-08-17T14:48:26Z</time>
      </trkpt>
      <trkpt lat="59.163025" lon="18.121402">
        <ele>50</ele>
        <time>2019-08-17T14:48:27Z</time>
      </trkpt>
      <trkpt lat="59.163031" lon="18.121442">
        <ele>50</ele>
        <time>2019-08-17T14:48:28Z</time>
      </trkpt>
      <trkpt lat="59.163036" lon="18.12148">
        <ele>50</ele>
        <time>2019-08-17T14:48:29Z</time>
      </trkpt>
      <trkpt lat="59.163041" lon="18.12152">
        <ele>50</ele>
        <time>2019-08-17T14:48:30Z</time>
      </trkpt>
      <trkpt lat="59.163043" lon="18.121578">
        <ele>50</ele>
        <time>2019-08-17T14:48:32Z</time>
      </trkpt>
      <trkpt lat="59.16304" lon="18.121604">
        <ele>50</ele>
        <time>2019-08-17T14:48:39Z</time>
      </trkpt>
      <trkpt lat="59.163026" lon="18.121347">
        <ele>51</ele>
        <time>2019-08-17T14:51:07Z</time>
      </trkpt>
      <trkpt lat="59.163023" lon="18.121312">
        <ele>52</ele>
        <time>2019-08-17T14:51:08Z</time>
      </trkpt>
      <trkpt lat="59.163013" lon="18.121269">
        <ele>52</ele>
        <time>2019-08-17T14:51:08Z</time>
      </trkpt>
      <trkpt lat="59.163001" lon="18.121217">
        <ele>51</ele>
        <time>2019-08-17T14:51:09Z</time>
      </trkpt>
      <trkpt lat="59.162988" lon="18.121153">
        <ele>51</ele>
        <time>2019-08-17T14:51:10Z</time>
      </trkpt>
      <trkpt lat="59.162972" lon="18.121083">
        <ele>51</ele>
        <time>2019-08-17T14:51:11Z</time>
      </trkpt>
      <trkpt lat="59.162954" lon="18.121014">
        <ele>51</ele>
        <time>2019-08-17T14:51:12Z</time>
      </trkpt>
      <trkpt lat="59.162939" lon="18.120946">
        <ele>51</ele>
        <time>2019-08-17T14:51:13Z</time>
      </trkpt>
      <trkpt lat="59.162925" lon="18.120878">
        <ele>50</ele>
        <time>2019-08-17T14:51:14Z</time>
      </trkpt>
      <trkpt lat="59.162911" lon="18.120816">
        <ele>50</ele>
        <time>2019-08-17T14:51:15Z</time>
      </trkpt>
      <trkpt lat="59.162897" lon="18.120756">
        <ele>50</ele>
        <time>2019-08-17T14:51:16Z</time>
      </trkpt>
      <trkpt lat="59.162878" lon="18.120692">
        <ele>50</ele>
        <time>2019-08-17T14:51:17Z</time>
      </trkpt>
      <trkpt lat="59.162854" lon="18.120628">
        <ele>50</ele>
        <time>2019-08-17T14:51:18Z</time>
      </trkpt>
      <trkpt lat="59.162826" lon="18.120576">
        <ele>50</ele>
        <time>2019-08-17T14:51:19Z</time>
      </trkpt>
      <trkpt lat="59.162794" lon="18.120527">
        <ele>50</ele>
        <time>2019-08-17T14:51:20Z</time>
      </trkpt>
      <trkpt lat="59.162761" lon="18.120485">
        <ele>49</ele>
        <time>2019-08-17T14:51:21Z</time>
      </trkpt>
      <trkpt lat="59.162727" lon="18.120442">
        <ele>49</ele>
        <time>2019-08-17T14:51:22Z</time>
      </trkpt>
      <trkpt lat="59.162694" lon="18.120398">
        <ele>49</ele>
        <time>2019-08-17T14:51:23Z</time>
      </trkpt>
      <trkpt lat="59.16266" lon="18.120351">
        <ele>49</ele>
        <time>2019-08-17T14:51:24Z</time>
      </trkpt>
      <trkpt lat="59.162622" lon="18.120299">
        <ele>49</ele>
        <time>2019-08-17T14:51:25Z</time>
      </trkpt>
      <trkpt lat="59.162583" lon="18.12025">
        <ele>49</ele>
        <time>2019-08-17T14:51:26Z</time>
      </trkpt>
      <trkpt lat="59.162543" lon="18.120197">
        <ele>49</ele>
        <time>2019-08-17T14:51:27Z</time>
      </trkpt>
      <trkpt lat="59.162503" lon="18.120147">
        <ele>49</ele>
        <time>2019-08-17T14:51:28Z</time>
      </trkpt>
      <trkpt lat="59.162462" lon="18.120098">
        <ele>49</ele>
        <time>2019-08-17T14:51:29Z</time>
      </trkpt>
      <trkpt lat="59.162422" lon="18.120048">
        <ele>49</ele>
        <time>2019-08-17T14:51:30Z</time>
      </trkpt>
      <trkpt lat="59.162382" lon="18.119998">
        <ele>49</ele>
        <time>2019-08-17T14:51:31Z</time>
      </trkpt>
      <trkpt lat="59.162341" lon="18.119946">
        <ele>49</ele>
        <time>2019-08-17T14:51:32Z</time>
      </trkpt>
      <trkpt lat="59.162298" lon="18.119893">
        <ele>49</ele>
        <time>2019-08-17T14:51:33Z</time>
      </trkpt>
      <trkpt lat="59.162256" lon="18.119837">
        <ele>49</ele>
        <time>2019-08-17T14:51:34Z</time>
      </trkpt>
      <trkpt lat="59.162212" lon="18.119776">
        <ele>49</ele>
        <time>2019-08-17T14:51:35Z</time>
      </trkpt>
      <trkpt lat="59.162167" lon="18.119717">
        <ele>49</ele>
        <time>2019-08-17T14:51:36Z</time>
      </trkpt>
      <trkpt lat="59.162123" lon="18.119664">
        <ele>49</ele>
        <time>2019-08-17T14:51:37Z</time>
      </trkpt>
      <trkpt lat="59.16208" lon="18.119606">
        <ele>49</ele>
        <time>2019-08-17T14:51:38Z</time>
      </trkpt>
      <trkpt lat="59.162037" lon="18.119553">
        <ele>48</ele>
        <time>2019-08-17T14:51:39Z</time>
      </trkpt>
      <trkpt lat="59.161996" lon="18.119505">
        <ele>48</ele>
        <time>2019-08-17T14:51:40Z</time>
      </trkpt>
      <trkpt lat="59.161956" lon="18.119457">
        <ele>48</ele>
        <time>2019-08-17T14:51:41Z</time>
      </trkpt>
      <trkpt lat="59.161918" lon="18.11941">
        <ele>48</ele>
        <time>2019-08-17T14:51:42Z</time>
      </trkpt>
      <trkpt lat="59.161877" lon="18.119362">
        <ele>49</ele>
        <time>2019-08-17T14:51:43Z</time>
      </trkpt>
      <trkpt lat="59.161834" lon="18.119312">
        <ele>49</ele>
        <time>2019-08-17T14:51:44Z</time>
      </trkpt>
      <trkpt lat="59.161792" lon="18.11925">
        <ele>49</ele>
        <time>2019-08-17T14:51:45Z</time>
      </trkpt>
      <trkpt lat="59.16175" lon="18.119193">
        <ele>49</ele>
        <time>2019-08-17T14:51:46Z</time>
      </trkpt>
      <trkpt lat="59.161705" lon="18.119141">
        <ele>49</ele>
        <time>2019-08-17T14:51:47Z</time>
      </trkpt>
      <trkpt lat="59.161661" lon="18.11909">
        <ele>49</ele>
        <time>2019-08-17T14:51:48Z</time>
      </trkpt>
      <trkpt lat="59.161619" lon="18.119043">
        <ele>49</ele>
        <time>2019-08-17T14:51:49Z</time>
      </trkpt>
      <trkpt lat="59.161579" lon="18.118998">
        <ele>49</ele>
        <time>2019-08-17T14:51:50Z</time>
      </trkpt>
      <trkpt lat="59.161541" lon="18.118957">
        <ele>49</ele>
        <time>2019-08-17T14:51:51Z</time>
      </trkpt>
      <trkpt lat="59.161506" lon="18.118919">
        <ele>49</ele>
        <time>2019-08-17T14:51:52Z</time>
      </trkpt>
      <trkpt lat="59.161472" lon="18.118858">
        <ele>49</ele>
        <time>2019-08-17T14:51:53Z</time>
      </trkpt>
      <trkpt lat="59.161444" lon="18.118795">
        <ele>49</ele>
        <time>2019-08-17T14:51:54Z</time>
      </trkpt>
      <trkpt lat="59.161416" lon="18.118737">
        <ele>49</ele>
        <time>2019-08-17T14:51:55Z</time>
      </trkpt>
      <trkpt lat="59.161382" lon="18.118681">
        <ele>49</ele>
        <time>2019-08-17T14:51:56Z</time>
      </trkpt>
      <trkpt lat="59.161345" lon="18.118642">
        <ele>50</ele>
        <time>2019-08-17T14:51:57Z</time>
      </trkpt>
      <trkpt lat="59.161307" lon="18.11862">
        <ele>50</ele>
        <time>2019-08-17T14:51:58Z</time>
      </trkpt>
      <trkpt lat="59.161275" lon="18.1186">
        <ele>50</ele>
        <time>2019-08-17T14:51:59Z</time>
      </trkpt>
      <trkpt lat="59.161245" lon="18.118597">
        <ele>50</ele>
        <time>2019-08-17T14:52:00Z</time>
      </trkpt>
      <trkpt lat="59.161219" lon="18.118614">
        <ele>50</ele>
        <time>2019-08-17T14:52:01Z</time>
      </trkpt>
      <trkpt lat="59.161197" lon="18.118651">
        <ele>50</ele>
        <time>2019-08-17T14:52:02Z</time>
      </trkpt>
      <trkpt lat="59.161174" lon="18.118691">
        <ele>50</ele>
        <time>2019-08-17T14:52:03Z</time>
      </trkpt>
      <trkpt lat="59.16115" lon="18.118725">
        <ele>50</ele>
        <time>2019-08-17T14:52:04Z</time>
      </trkpt>
      <trkpt lat="59.161126" lon="18.118754">
        <ele>50</ele>
        <time>2019-08-17T14:52:05Z</time>
      </trkpt>
      <trkpt lat="59.161104" lon="18.118793">
        <ele>51</ele>
        <time>2019-08-17T14:52:06Z</time>
      </trkpt>
      <trkpt lat="59.161083" lon="18.11884">
        <ele>51</ele>
        <time>2019-08-17T14:52:07Z</time>
      </trkpt>
      <trkpt lat="59.161064" lon="18.118886">
        <ele>51</ele>
        <time>2019-08-17T14:52:08Z</time>
      </trkpt>
      <trkpt lat="59.16105" lon="18.11893">
        <ele>51</ele>
        <time>2019-08-17T14:52:09Z</time>
      </trkpt>
      <trkpt lat="59.161042" lon="18.118975">
        <ele>51</ele>
        <time>2019-08-17T14:52:10Z</time>
      </trkpt>
      <trkpt lat="59.161033" lon="18.119027">
        <ele>51</ele>
        <time>2019-08-17T14:52:11Z</time>
      </trkpt>
      <trkpt lat="59.161029" lon="18.119082">
        <ele>51</ele>
        <time>2019-08-17T14:52:12Z</time>
      </trkpt>
      <trkpt lat="59.161024" lon="18.119141">
        <ele>51</ele>
        <time>2019-08-17T14:52:13Z</time>
      </trkpt>
      <trkpt lat="59.161016" lon="18.119206">
        <ele>51</ele>
        <time>2019-08-17T14:52:14Z</time>
      </trkpt>
      <trkpt lat="59.161011" lon="18.119273">
        <ele>51</ele>
        <time>2019-08-17T14:52:15Z</time>
      </trkpt>
      <trkpt lat="59.16101" lon="18.119336">
        <ele>52</ele>
        <time>2019-08-17T14:52:16Z</time>
      </trkpt>
      <trkpt lat="59.161003" lon="18.119391">
        <ele>52</ele>
        <time>2019-08-17T14:52:17Z</time>
      </trkpt>
      <trkpt lat="59.160996" lon="18.119438">
        <ele>52</ele>
        <time>2019-08-17T14:52:18Z</time>
      </trkpt>
      <trkpt lat="59.160992" lon="18.119498">
        <ele>52</ele>
        <time>2019-08-17T14:52:19Z</time>
      </trkpt>
      <trkpt lat="59.160986" lon="18.119562">
        <ele>52</ele>
        <time>2019-08-17T14:52:20Z</time>
      </trkpt>
      <trkpt lat="59.160981" lon="18.119623">
        <ele>52</ele>
        <time>2019-08-17T14:52:21Z</time>
      </trkpt>
      <trkpt lat="59.160977" lon="18.119687">
        <ele>52</ele>
        <time>2019-08-17T14:52:22Z</time>
      </trkpt>
      <trkpt lat="59.160972" lon="18.119753">
        <ele>52</ele>
        <time>2019-08-17T14:52:23Z</time>
      </trkpt>
      <trkpt lat="59.160957" lon="18.119815">
        <ele>52</ele>
        <time>2019-08-17T14:52:24Z</time>
      </trkpt>
      <trkpt lat="59.160949" lon="18.119867">
        <ele>53</ele>
        <time>2019-08-17T14:52:25Z</time>
      </trkpt>
      <trkpt lat="59.160934" lon="18.11992">
        <ele>53</ele>
        <time>2019-08-17T14:52:26Z</time>
      </trkpt>
      <trkpt lat="59.16092" lon="18.119967">
        <ele>53</ele>
        <time>2019-08-17T14:52:27Z</time>
      </trkpt>
      <trkpt lat="59.160903" lon="18.120008">
        <ele>53</ele>
        <time>2019-08-17T14:52:28Z</time>
      </trkpt>
      <trkpt lat="59.160888" lon="18.120063">
        <ele>53</ele>
        <time>2019-08-17T14:52:29Z</time>
      </trkpt>
      <trkpt lat="59.160879" lon="18.120114">
        <ele>53</ele>
        <time>2019-08-17T14:52:30Z</time>
      </trkpt>
      <trkpt lat="59.160871" lon="18.120167">
        <ele>53</ele>
        <time>2019-08-17T14:52:31Z</time>
      </trkpt>
      <trkpt lat="59.160866" lon="18.120226">
        <ele>54</ele>
        <time>2019-08-17T14:52:32Z</time>
      </trkpt>
      <trkpt lat="59.16087" lon="18.120287">
        <ele>53</ele>
        <time>2019-08-17T14:52:33Z</time>
      </trkpt>
      <trkpt lat="59.160882" lon="18.120351">
        <ele>53</ele>
        <time>2019-08-17T14:52:34Z</time>
      </trkpt>
      <trkpt lat="59.160895" lon="18.120424">
        <ele>53</ele>
        <time>2019-08-17T14:52:35Z</time>
      </trkpt>
      <trkpt lat="59.160907" lon="18.120482">
        <ele>54</ele>
        <time>2019-08-17T14:52:36Z</time>
      </trkpt>
      <trkpt lat="59.160919" lon="18.120532">
        <ele>54</ele>
        <time>2019-08-17T14:52:37Z</time>
      </trkpt>
      <trkpt lat="59.160928" lon="18.120582">
        <ele>54</ele>
        <time>2019-08-17T14:52:38Z</time>
      </trkpt>
      <trkpt lat="59.160932" lon="18.12063">
        <ele>54</ele>
        <time>2019-08-17T14:52:39Z</time>
      </trkpt>
      <trkpt lat="59.160925" lon="18.120676">
        <ele>54</ele>
        <time>2019-08-17T14:52:40Z</time>
      </trkpt>
      <trkpt lat="59.160912" lon="18.120704">
        <ele>54</ele>
        <time>2019-08-17T14:52:41Z</time>
      </trkpt>
      <trkpt lat="59.160875" lon="18.120752">
        <ele>54</ele>
        <time>2019-08-17T14:52:43Z</time>
      </trkpt>
      <trkpt lat="59.160855" lon="18.120783">
        <ele>54</ele>
        <time>2019-08-17T14:52:44Z</time>
      </trkpt>
      <trkpt lat="59.160839" lon="18.120822">
        <ele>55</ele>
        <time>2019-08-17T14:52:45Z</time>
      </trkpt>
      <trkpt lat="59.160829" lon="18.120859">
        <ele>55</ele>
        <time>2019-08-17T14:52:46Z</time>
      </trkpt>
      <trkpt lat="59.160809" lon="18.120899">
        <ele>55</ele>
        <time>2019-08-17T14:52:47Z</time>
      </trkpt>
      <trkpt lat="59.160787" lon="18.120936">
        <ele>55</ele>
        <time>2019-08-17T14:52:48Z</time>
      </trkpt>
      <trkpt lat="59.160768" lon="18.120966">
        <ele>55</ele>
        <time>2019-08-17T14:52:49Z</time>
      </trkpt>
      <trkpt lat="59.160745" lon="18.120997">
        <ele>55</ele>
        <time>2019-08-17T14:52:50Z</time>
      </trkpt>
      <trkpt lat="59.160714" lon="18.121031">
        <ele>55</ele>
        <time>2019-08-17T14:52:51Z</time>
      </trkpt>
      <trkpt lat="59.160686" lon="18.121063">
        <ele>55</ele>
        <time>2019-08-17T14:52:52Z</time>
      </trkpt>
      <trkpt lat="59.160652" lon="18.121082">
        <ele>55</ele>
        <time>2019-08-17T14:52:53Z</time>
      </trkpt>
      <trkpt lat="59.160615" lon="18.121101">
        <ele>55</ele>
        <time>2019-08-17T14:52:54Z</time>
      </trkpt>
      <trkpt lat="59.160577" lon="18.121127">
        <ele>55</ele>
        <time>2019-08-17T14:52:55Z</time>
      </trkpt>
      <trkpt lat="59.160538" lon="18.121154">
        <ele>55</ele>
        <time>2019-08-17T14:52:56Z</time>
      </trkpt>
      <trkpt lat="59.160498" lon="18.12118">
        <ele>55</ele>
        <time>2019-08-17T14:52:57Z</time>
      </trkpt>
      <trkpt lat="59.160464" lon="18.1212">
        <ele>55</ele>
        <time>2019-08-17T14:52:58Z</time>
      </trkpt>
      <trkpt lat="59.16044" lon="18.121198">
        <ele>56</ele>
        <time>2019-08-17T14:52:59Z</time>
      </trkpt>
      <trkpt lat="59.160409" lon="18.121194">
        <ele>56</ele>
        <time>2019-08-17T14:53:01Z</time>
      </trkpt>
      <trkpt lat="59.160381" lon="18.121226">
        <ele>56</ele>
        <time>2019-08-17T14:53:03Z</time>
      </trkpt>
      <trkpt lat="59.160366" lon="18.121246">
        <ele>56</ele>
        <time>2019-08-17T14:53:04Z</time>
      </trkpt>
      <trkpt lat="59.160344" lon="18.121289">
        <ele>56</ele>
        <time>2019-08-17T14:53:05Z</time>
      </trkpt>
      <trkpt lat="59.160329" lon="18.121328">
        <ele>57</ele>
        <time>2019-08-17T14:53:06Z</time>
      </trkpt>
      <trkpt lat="59.160311" lon="18.121368">
        <ele>57</ele>
        <time>2019-08-17T14:53:07Z</time>
      </trkpt>
      <trkpt lat="59.160289" lon="18.121385">
        <ele>57</ele>
        <time>2019-08-17T14:53:08Z</time>
      </trkpt>
      <trkpt lat="59.160271" lon="18.121378">
        <ele>57</ele>
        <time>2019-08-17T14:53:09Z</time>
      </trkpt>
      <trkpt lat="59.160245" lon="18.12136">
        <ele>57</ele>
        <time>2019-08-17T14:53:11Z</time>
      </trkpt>
      <trkpt lat="59.160236" lon="18.121334">
        <ele>57</ele>
        <time>2019-08-17T14:53:18Z</time>
      </trkpt>
      <trkpt lat="59.160201" lon="18.121307">
        <ele>57</ele>
        <time>2019-08-17T14:54:12Z</time>
      </trkpt>
      <trkpt lat="59.160189" lon="18.12129">
        <ele>57</ele>
        <time>2019-08-17T14:54:12Z</time>
      </trkpt>
      <trkpt lat="59.160159" lon="18.121254">
        <ele>58</ele>
        <time>2019-08-17T14:54:14Z</time>
      </trkpt>
      <trkpt lat="59.160141" lon="18.121235">
        <ele>58</ele>
        <time>2019-08-17T14:54:15Z</time>
      </trkpt>
      <trkpt lat="59.160124" lon="18.121212">
        <ele>58</ele>
        <time>2019-08-17T14:54:16Z</time>
      </trkpt>
      <trkpt lat="59.160107" lon="18.121185">
        <ele>58</ele>
        <time>2019-08-17T14:54:17Z</time>
      </trkpt>
      <trkpt lat="59.16009" lon="18.121157">
        <ele>57</ele>
        <time>2019-08-17T14:54:18Z</time>
      </trkpt>
      <trkpt lat="59.160073" lon="18.121128">
        <ele>57</ele>
        <time>2019-08-17T14:54:19Z</time>
      </trkpt>
      <trkpt lat="59.160054" lon="18.121094">
        <ele>57</ele>
        <time>2019-08-17T14:54:20Z</time>
      </trkpt>
      <trkpt lat="59.160037" lon="18.121059">
        <ele>57</ele>
        <time>2019-08-17T14:54:21Z</time>
      </trkpt>
      <trkpt lat="59.160017" lon="18.12102">
        <ele>57</ele>
        <time>2019-08-17T14:54:22Z</time>
      </trkpt>
      <trkpt lat="59.159995" lon="18.120988">
        <ele>57</ele>
        <time>2019-08-17T14:54:23Z</time>
      </trkpt>
      <trkpt lat="59.159976" lon="18.120945">
        <ele>57</ele>
        <time>2019-08-17T14:54:24Z</time>
      </trkpt>
      <trkpt lat="59.159955" lon="18.120907">
        <ele>57</ele>
        <time>2019-08-17T14:54:25Z</time>
      </trkpt>
      <trkpt lat="59.159938" lon="18.120876">
        <ele>58</ele>
        <time>2019-08-17T14:54:26Z</time>
      </trkpt>
      <trkpt lat="59.159921" lon="18.120852">
        <ele>58</ele>
        <time>2019-08-17T14:54:27Z</time>
      </trkpt>
      <trkpt lat="59.159897" lon="18.120826">
        <ele>58</ele>
        <time>2019-08-17T14:54:28Z</time>
      </trkpt>
      <trkpt lat="59.15987" lon="18.120808">
        <ele>58</ele>
        <time>2019-08-17T14:54:29Z</time>
      </trkpt>
      <trkpt lat="59.159841" lon="18.1208">
        <ele>58</ele>
        <time>2019-08-17T14:54:30Z</time>
      </trkpt>
      <trkpt lat="59.15981" lon="18.120794">
        <ele>58</ele>
        <time>2019-08-17T14:54:31Z</time>
      </trkpt>
      <trkpt lat="59.159783" lon="18.120792">
        <ele>58</ele>
        <time>2019-08-17T14:54:32Z</time>
      </trkpt>
      <trkpt lat="59.159755" lon="18.120793">
        <ele>58</ele>
        <time>2019-08-17T14:54:33Z</time>
      </trkpt>
      <trkpt lat="59.159729" lon="18.120795">
        <ele>58</ele>
        <time>2019-08-17T14:54:34Z</time>
      </trkpt>
      <trkpt lat="59.159704" lon="18.1208">
        <ele>58</ele>
        <time>2019-08-17T14:54:35Z</time>
      </trkpt>
      <trkpt lat="59.159676" lon="18.120803">
        <ele>58</ele>
        <time>2019-08-17T14:54:36Z</time>
      </trkpt>
      <trkpt lat="59.159647" lon="18.120801">
        <ele>58</ele>
        <time>2019-08-17T14:54:37Z</time>
      </trkpt>
      <trkpt lat="59.159618" lon="18.120791">
        <ele>58</ele>
        <time>2019-08-17T14:54:38Z</time>
      </trkpt>
      <trkpt lat="59.159589" lon="18.120777">
        <ele>58</ele>
        <time>2019-08-17T14:54:39Z</time>
      </trkpt>
      <trkpt lat="59.159561" lon="18.120753">
        <ele>58</ele>
        <time>2019-08-17T14:54:40Z</time>
      </trkpt>
      <trkpt lat="59.159536" lon="18.120728">
        <ele>58</ele>
        <time>2019-08-17T14:54:41Z</time>
      </trkpt>
      <trkpt lat="59.159512" lon="18.120704">
        <ele>58</ele>
        <time>2019-08-17T14:54:42Z</time>
      </trkpt>
      <trkpt lat="59.159486" lon="18.120678">
        <ele>58</ele>
        <time>2019-08-17T14:54:43Z</time>
      </trkpt>
      <trkpt lat="59.159459" lon="18.12065">
        <ele>58</ele>
        <time>2019-08-17T14:54:44Z</time>
      </trkpt>
      <trkpt lat="59.159431" lon="18.120624">
        <ele>58</ele>
        <time>2019-08-17T14:54:45Z</time>
      </trkpt>
      <trkpt lat="59.159404" lon="18.120606">
        <ele>58</ele>
        <time>2019-08-17T14:54:46Z</time>
      </trkpt>
      <trkpt lat="59.159376" lon="18.120595">
        <ele>58</ele>
        <time>2019-08-17T14:54:47Z</time>
      </trkpt>
      <trkpt lat="59.159347" lon="18.12059">
        <ele>59</ele>
        <time>2019-08-17T14:54:48Z</time>
      </trkpt>
      <trkpt lat="59.159317" lon="18.120588">
        <ele>59</ele>
        <time>2019-08-17T14:54:49Z</time>
      </trkpt>
      <trkpt lat="59.159287" lon="18.120586">
        <ele>59</ele>
        <time>2019-08-17T14:54:50Z</time>
      </trkpt>
      <trkpt lat="59.159258" lon="18.120581">
        <ele>59</ele>
        <time>2019-08-17T14:54:51Z</time>
      </trkpt>
      <trkpt lat="59.159228" lon="18.120577">
        <ele>59</ele>
        <time>2019-08-17T14:54:52Z</time>
      </trkpt>
      <trkpt lat="59.159195" lon="18.120571">
        <ele>59</ele>
        <time>2019-08-17T14:54:53Z</time>
      </trkpt>
      <trkpt lat="59.159162" lon="18.120561">
        <ele>59</ele>
        <time>2019-08-17T14:54:54Z</time>
      </trkpt>
      <trkpt lat="59.159128" lon="18.120551">
        <ele>59</ele>
        <time>2019-08-17T14:54:55Z</time>
      </trkpt>
      <trkpt lat="59.159095" lon="18.12053">
        <ele>59</ele>
        <time>2019-08-17T14:54:56Z</time>
      </trkpt>
      <trkpt lat="59.159061" lon="18.120498">
        <ele>59</ele>
        <time>2019-08-17T14:54:57Z</time>
      </trkpt>
      <trkpt lat="59.159026" lon="18.120453">
        <ele>59</ele>
        <time>2019-08-17T14:54:58Z</time>
      </trkpt>
      <trkpt lat="59.158989" lon="18.120396">
        <ele>59</ele>
        <time>2019-08-17T14:54:59Z</time>
      </trkpt>
      <trkpt lat="59.158952" lon="18.120334">
        <ele>59</ele>
        <time>2019-08-17T14:55:00Z</time>
      </trkpt>
      <trkpt lat="59.158919" lon="18.12028">
        <ele>59</ele>
        <time>2019-08-17T14:55:01Z</time>
      </trkpt>
      <trkpt lat="59.158889" lon="18.120231">
        <ele>59</ele>
        <time>2019-08-17T14:55:02Z</time>
      </trkpt>
      <trkpt lat="59.158863" lon="18.120184">
        <ele>59</ele>
        <time>2019-08-17T14:55:03Z</time>
      </trkpt>
      <trkpt lat="59.158843" lon="18.120135">
        <ele>59</ele>
        <time>2019-08-17T14:55:04Z</time>
      </trkpt>
      <trkpt lat="59.158824" lon="18.120083">
        <ele>59</ele>
        <time>2019-08-17T14:55:05Z</time>
      </trkpt>
      <trkpt lat="59.158809" lon="18.120032">
        <ele>59</ele>
        <time>2019-08-17T14:55:06Z</time>
      </trkpt>
      <trkpt lat="59.158796" lon="18.119981">
        <ele>59</ele>
        <time>2019-08-17T14:55:07Z</time>
      </trkpt>
      <trkpt lat="59.158785" lon="18.11993">
        <ele>59</ele>
        <time>2019-08-17T14:55:08Z</time>
      </trkpt>
      <trkpt lat="59.15877" lon="18.119882">
        <ele>59</ele>
        <time>2019-08-17T14:55:09Z</time>
      </trkpt>
      <trkpt lat="59.158758" lon="18.119847">
        <ele>59</ele>
        <time>2019-08-17T14:55:10Z</time>
      </trkpt>
      <trkpt lat="59.158742" lon="18.11983">
        <ele>59</ele>
        <time>2019-08-17T14:55:12Z</time>
      </trkpt>
      <trkpt lat="59.158743" lon="18.119831">
        <ele>59</ele>
        <time>2019-08-17T14:55:16Z</time>
      </trkpt>
      <trkpt lat="59.158728" lon="18.119955">
        <ele>59</ele>
        <time>2019-08-17T14:56:06Z</time>
      </trkpt>
      <trkpt lat="59.158731" lon="18.120012">
        <ele>59</ele>
        <time>2019-08-17T14:56:06Z</time>
      </trkpt>
      <trkpt lat="59.158731" lon="18.120068">
        <ele>59</ele>
        <time>2019-08-17T14:56:07Z</time>
      </trkpt>
      <trkpt lat="59.158732" lon="18.120131">
        <ele>59</ele>
        <time>2019-08-17T14:56:08Z</time>
      </trkpt>
      <trkpt lat="59.158734" lon="18.120195">
        <ele>59</ele>
        <time>2019-08-17T14:56:09Z</time>
      </trkpt>
      <trkpt lat="59.158728" lon="18.12026">
        <ele>59</ele>
        <time>2019-08-17T14:56:10Z</time>
      </trkpt>
      <trkpt lat="59.158712" lon="18.120306">
        <ele>59</ele>
        <time>2019-08-17T14:56:11Z</time>
      </trkpt>
      <trkpt lat="59.158689" lon="18.12034">
        <ele>60</ele>
        <time>2019-08-17T14:56:12Z</time>
      </trkpt>
      <trkpt lat="59.158666" lon="18.12036">
        <ele>60</ele>
        <time>2019-08-17T14:56:13Z</time>
      </trkpt>
      <trkpt lat="59.158637" lon="18.120383">
        <ele>60</ele>
        <time>2019-08-17T14:56:14Z</time>
      </trkpt>
      <trkpt lat="59.158608" lon="18.120403">
        <ele>60</ele>
        <time>2019-08-17T14:56:15Z</time>
      </trkpt>
      <trkpt lat="59.15858" lon="18.120427">
        <ele>60</ele>
        <time>2019-08-17T14:56:16Z</time>
      </trkpt>
      <trkpt lat="59.158556" lon="18.120459">
        <ele>60</ele>
        <time>2019-08-17T14:56:17Z</time>
      </trkpt>
      <trkpt lat="59.158542" lon="18.120502">
        <ele>60</ele>
        <time>2019-08-17T14:56:18Z</time>
      </trkpt>
      <trkpt lat="59.158535" lon="18.120555">
        <ele>60</ele>
        <time>2019-08-17T14:56:19Z</time>
      </trkpt>
      <trkpt lat="59.158525" lon="18.120603">
        <ele>60</ele>
        <time>2019-08-17T14:56:20Z</time>
      </trkpt>
      <trkpt lat="59.158507" lon="18.120632">
        <ele>60</ele>
        <time>2019-08-17T14:56:21Z</time>
      </trkpt>
      <trkpt lat="59.158486" lon="18.120655">
        <ele>60</ele>
        <time>2019-08-17T14:56:22Z</time>
      </trkpt>
      <trkpt lat="59.158465" lon="18.120687">
        <ele>60</ele>
        <time>2019-08-17T14:56:23Z</time>
      </trkpt>
      <trkpt lat="59.158445" lon="18.12072">
        <ele>60</ele>
        <time>2019-08-17T14:56:24Z</time>
      </trkpt>
      <trkpt lat="59.158426" lon="18.120748">
        <ele>60</ele>
        <time>2019-08-17T14:56:25Z</time>
      </trkpt>
      <trkpt lat="59.158407" lon="18.120779">
        <ele>60</ele>
        <time>2019-08-17T14:56:26Z</time>
      </trkpt>
      <trkpt lat="59.158392" lon="18.120822">
        <ele>60</ele>
        <time>2019-08-17T14:56:27Z</time>
      </trkpt>
      <trkpt lat="59.158379" lon="18.120873">
        <ele>60</ele>
        <time>2019-08-17T14:56:28Z</time>
      </trkpt>
      <trkpt lat="59.158369" lon="18.120931">
        <ele>60</ele>
        <time>2019-08-17T14:56:29Z</time>
      </trkpt>
      <trkpt lat="59.158361" lon="18.120989">
        <ele>60</ele>
        <time>2019-08-17T14:56:30Z</time>
      </trkpt>
      <trkpt lat="59.158358" lon="18.121037">
        <ele>60</ele>
        <time>2019-08-17T14:56:31Z</time>
      </trkpt>
      <trkpt lat="59.158366" lon="18.121084">
        <ele>60</ele>
        <time>2019-08-17T14:56:32Z</time>
      </trkpt>
      <trkpt lat="59.158374" lon="18.121142">
        <ele>60</ele>
        <time>2019-08-17T14:56:33Z</time>
      </trkpt>
      <trkpt lat="59.158371" lon="18.121199">
        <ele>60</ele>
        <time>2019-08-17T14:56:34Z</time>
      </trkpt>
      <trkpt lat="59.158356" lon="18.12124">
        <ele>60</ele>
        <time>2019-08-17T14:56:35Z</time>
      </trkpt>
      <trkpt lat="59.158339" lon="18.121271">
        <ele>60</ele>
        <time>2019-08-17T14:56:36Z</time>
      </trkpt>
      <trkpt lat="59.158324" lon="18.121309">
        <ele>60</ele>
        <time>2019-08-17T14:56:37Z</time>
      </trkpt>
      <trkpt lat="59.158307" lon="18.12135">
        <ele>60</ele>
        <time>2019-08-17T14:56:38Z</time>
      </trkpt>
      <trkpt lat="59.158287" lon="18.121386">
        <ele>60</ele>
        <time>2019-08-17T14:56:39Z</time>
      </trkpt>
      <trkpt lat="59.158269" lon="18.121415">
        <ele>60</ele>
        <time>2019-08-17T14:56:40Z</time>
      </trkpt>
      <trkpt lat="59.158248" lon="18.121464">
        <ele>60</ele>
        <time>2019-08-17T14:56:42Z</time>
      </trkpt>
      <trkpt lat="59.158243" lon="18.121487">
        <ele>60</ele>
        <time>2019-08-17T14:56:48Z</time>
      </trkpt>
      <trkpt lat="59.158299" lon="18.121561">
        <ele>60</ele>
        <time>2019-08-17T14:57:56Z</time>
      </trkpt>
      <trkpt lat="59.158322" lon="18.121591">
        <ele>61</ele>
        <time>2019-08-17T14:57:56Z</time>
      </trkpt>
      <trkpt lat="59.158345" lon="18.121619">
        <ele>61</ele>
        <time>2019-08-17T14:57:57Z</time>
      </trkpt>
      <trkpt lat="59.158366" lon="18.121646">
        <ele>61</ele>
        <time>2019-08-17T14:57:58Z</time>
      </trkpt>
      <trkpt lat="59.158395" lon="18.121666">
        <ele>61</ele>
        <time>2019-08-17T14:57:59Z</time>
      </trkpt>
      <trkpt lat="59.158424" lon="18.121684">
        <ele>61</ele>
        <time>2019-08-17T14:58:00Z</time>
      </trkpt>
      <trkpt lat="59.158456" lon="18.121695">
        <ele>61</ele>
        <time>2019-08-17T14:58:01Z</time>
      </trkpt>
      <trkpt lat="59.158485" lon="18.121689">
        <ele>61</ele>
        <time>2019-08-17T14:58:02Z</time>
      </trkpt>
      <trkpt lat="59.158511" lon="18.121664">
        <ele>61</ele>
        <time>2019-08-17T14:58:03Z</time>
      </trkpt>
      <trkpt lat="59.158534" lon="18.121629">
        <ele>61</ele>
        <time>2019-08-17T14:58:04Z</time>
      </trkpt>
      <trkpt lat="59.158563" lon="18.121618">
        <ele>61</ele>
        <time>2019-08-17T14:58:05Z</time>
      </trkpt>
      <trkpt lat="59.158593" lon="18.121625">
        <ele>61</ele>
        <time>2019-08-17T14:58:06Z</time>
      </trkpt>
      <trkpt lat="59.158627" lon="18.121629">
        <ele>61</ele>
        <time>2019-08-17T14:58:07Z</time>
      </trkpt>
      <trkpt lat="59.158656" lon="18.121615">
        <ele>61</ele>
        <time>2019-08-17T14:58:08Z</time>
      </trkpt>
      <trkpt lat="59.158684" lon="18.121588">
        <ele>61</ele>
        <time>2019-08-17T14:58:09Z</time>
      </trkpt>
      <trkpt lat="59.158714" lon="18.121566">
        <ele>61</ele>
        <time>2019-08-17T14:58:10Z</time>
      </trkpt>
      <trkpt lat="59.158749" lon="18.121544">
        <ele>61</ele>
        <time>2019-08-17T14:58:11Z</time>
      </trkpt>
      <trkpt lat="59.158787" lon="18.121528">
        <ele>61</ele>
        <time>2019-08-17T14:58:12Z</time>
      </trkpt>
      <trkpt lat="59.158824" lon="18.121532">
        <ele>61</ele>
        <time>2019-08-17T14:58:13Z</time>
      </trkpt>
      <trkpt lat="59.158858" lon="18.121558">
        <ele>61</ele>
        <time>2019-08-17T14:58:14Z</time>
      </trkpt>
      <trkpt lat="59.158893" lon="18.121582">
        <ele>61</ele>
        <time>2019-08-17T14:58:15Z</time>
      </trkpt>
      <trkpt lat="59.158922" lon="18.121608">
        <ele>61</ele>
        <time>2019-08-17T14:58:16Z</time>
      </trkpt>
      <trkpt lat="59.158954" lon="18.121626">
        <ele>61</ele>
        <time>2019-08-17T14:58:17Z</time>
      </trkpt>
      <trkpt lat="59.158985" lon="18.121643">
        <ele>61</ele>
        <time>2019-08-17T14:58:18Z</time>
      </trkpt>
      <trkpt lat="59.159011" lon="18.121647">
        <ele>61</ele>
        <time>2019-08-17T14:58:19Z</time>
      </trkpt>
      <trkpt lat="59.15904" lon="18.121643">
        <ele>61</ele>
        <time>2019-08-17T14:58:20Z</time>
      </trkpt>
      <trkpt lat="59.159065" lon="18.121626">
        <ele>61</ele>
        <time>2019-08-17T14:58:21Z</time>
      </trkpt>
      <trkpt lat="59.159091" lon="18.121594">
        <ele>61</ele>
        <time>2019-08-17T14:58:22Z</time>
      </trkpt>
      <trkpt lat="59.159121" lon="18.121562">
        <ele>61</ele>
        <time>2019-08-17T14:58:23Z</time>
      </trkpt>
      <trkpt lat="59.15915" lon="18.121528">
        <ele>61</ele>
        <time>2019-08-17T14:58:24Z</time>
      </trkpt>
      <trkpt lat="59.159177" lon="18.121488">
        <ele>61</ele>
        <time>2019-08-17T14:58:25Z</time>
      </trkpt>
      <trkpt lat="59.159203" lon="18.121443">
        <ele>61</ele>
        <time>2019-08-17T14:58:26Z</time>
      </trkpt>
      <trkpt lat="59.159231" lon="18.121401">
        <ele>61</ele>
        <time>2019-08-17T14:58:27Z</time>
      </trkpt>
      <trkpt lat="59.159253" lon="18.121361">
        <ele>61</ele>
        <time>2019-08-17T14:58:28Z</time>
      </trkpt>
      <trkpt lat="59.159267" lon="18.121314">
        <ele>61</ele>
        <time>2019-08-17T14:58:29Z</time>
      </trkpt>
      <trkpt lat="59.159281" lon="18.121267">
        <ele>61</ele>
        <time>2019-08-17T14:58:30Z</time>
      </trkpt>
      <trkpt lat="59.15929" lon="18.121216">
        <ele>62</ele>
        <time>2019-08-17T14:58:31Z</time>
      </trkpt>
      <trkpt lat="59.159302" lon="18.121162">
        <ele>62</ele>
        <time>2019-08-17T14:58:32Z</time>
      </trkpt>
      <trkpt lat="59.159315" lon="18.121108">
        <ele>62</ele>
        <time>2019-08-17T14:58:33Z</time>
      </trkpt>
      <trkpt lat="59.159327" lon="18.121055">
        <ele>62</ele>
        <time>2019-08-17T14:58:34Z</time>
      </trkpt>
      <trkpt lat="59.159337" lon="18.121007">
        <ele>62</ele>
        <time>2019-08-17T14:58:35Z</time>
      </trkpt>
      <trkpt lat="59.159346" lon="18.120961">
        <ele>62</ele>
        <time>2019-08-17T14:58:36Z</time>
      </trkpt>
      <trkpt lat="59.159356" lon="18.120914">
        <ele>62</ele>
        <time>2019-08-17T14:58:37Z</time>
      </trkpt>
      <trkpt lat="59.159371" lon="18.120862">
        <ele>62</ele>
        <time>2019-08-17T14:58:38Z</time>
      </trkpt>
      <trkpt lat="59.15938" lon="18.120805">
        <ele>62</ele>
        <time>2019-08-17T14:58:39Z</time>
      </trkpt>
      <trkpt lat="59.159386" lon="18.120746">
        <ele>62</ele>
        <time>2019-08-17T14:58:40Z</time>
      </trkpt>
      <trkpt lat="59.159396" lon="18.120691">
        <ele>62</ele>
        <time>2019-08-17T14:58:41Z</time>
      </trkpt>
      <trkpt lat="59.159404" lon="18.120625">
        <ele>62</ele>
        <time>2019-08-17T14:58:42Z</time>
      </trkpt>
      <trkpt lat="59.159409" lon="18.120555">
        <ele>62</ele>
        <time>2019-08-17T14:58:43Z</time>
      </trkpt>
      <trkpt lat="59.15941" lon="18.120499">
        <ele>62</ele>
        <time>2019-08-17T14:58:44Z</time>
      </trkpt>
      <trkpt lat="59.15941" lon="18.120464">
        <ele>61</ele>
        <time>2019-08-17T14:58:45Z</time>
      </trkpt>
      <trkpt lat="59.159401" lon="18.120427">
        <ele>62</ele>
        <time>2019-08-17T14:58:50Z</time>
      </trkpt>
      <trkpt lat="59.159368" lon="18.120354">
        <ele>66</ele>
        <time>2019-08-17T15:12:22Z</time>
      </trkpt>
      <trkpt lat="59.159365" lon="18.120301">
        <ele>66</ele>
        <time>2019-08-17T15:12:23Z</time>
      </trkpt>
      <trkpt lat="59.159364" lon="18.120236">
        <ele>66</ele>
        <time>2019-08-17T15:12:23Z</time>
      </trkpt>
      <trkpt lat="59.159366" lon="18.120175">
        <ele>66</ele>
        <time>2019-08-17T15:12:24Z</time>
      </trkpt>
      <trkpt lat="59.159368" lon="18.120122">
        <ele>66</ele>
        <time>2019-08-17T15:12:25Z</time>
      </trkpt>
      <trkpt lat="59.159373" lon="18.120064">
        <ele>65</ele>
        <time>2019-08-17T15:12:26Z</time>
      </trkpt>
      <trkpt lat="59.15938" lon="18.120002">
        <ele>65</ele>
        <time>2019-08-17T15:12:27Z</time>
      </trkpt>
      <trkpt lat="59.159387" lon="18.119936">
        <ele>65</ele>
        <time>2019-08-17T15:12:28Z</time>
      </trkpt>
      <trkpt lat="59.159392" lon="18.119874">
        <ele>65</ele>
        <time>2019-08-17T15:12:29Z</time>
      </trkpt>
      <trkpt lat="59.159399" lon="18.119809">
        <ele>65</ele>
        <time>2019-08-17T15:12:30Z</time>
      </trkpt>
      <trkpt lat="59.15941" lon="18.119743">
        <ele>65</ele>
        <time>2019-08-17T15:12:31Z</time>
      </trkpt>
      <trkpt lat="59.15942" lon="18.119672">
        <ele>65</ele>
        <time>2019-08-17T15:12:32Z</time>
      </trkpt>
      <trkpt lat="59.15943" lon="18.119593">
        <ele>65</ele>
        <time>2019-08-17T15:12:33Z</time>
      </trkpt>
      <trkpt lat="59.15944" lon="18.119515">
        <ele>65</ele>
        <time>2019-08-17T15:12:34Z</time>
      </trkpt>
      <trkpt lat="59.159454" lon="18.119434">
        <ele>64</ele>
        <time>2019-08-17T15:12:35Z</time>
      </trkpt>
      <trkpt lat="59.159463" lon="18.119352">
        <ele>64</ele>
        <time>2019-08-17T15:12:36Z</time>
      </trkpt>
      <trkpt lat="59.159469" lon="18.119262">
        <ele>64</ele>
        <time>2019-08-17T15:12:37Z</time>
      </trkpt>
      <trkpt lat="59.159472" lon="18.11917">
        <ele>64</ele>
        <time>2019-08-17T15:12:38Z</time>
      </trkpt>
      <trkpt lat="59.159474" lon="18.11908">
        <ele>64</ele>
        <time>2019-08-17T15:12:39Z</time>
      </trkpt>
      <trkpt lat="59.159475" lon="18.118998">
        <ele>64</ele>
        <time>2019-08-17T15:12:40Z</time>
      </trkpt>
      <trkpt lat="59.159456" lon="18.118931">
        <ele>64</ele>
        <time>2019-08-17T15:12:41Z</time>
      </trkpt>
      <trkpt lat="59.15943" lon="18.118884">
        <ele>63</ele>
        <time>2019-08-17T15:12:42Z</time>
      </trkpt>
      <trkpt lat="59.159392" lon="18.118864">
        <ele>63</ele>
        <time>2019-08-17T15:12:43Z</time>
      </trkpt>
      <trkpt lat="59.159351" lon="18.118839">
        <ele>63</ele>
        <time>2019-08-17T15:12:44Z</time>
      </trkpt>
      <trkpt lat="59.159315" lon="18.118814">
        <ele>63</ele>
        <time>2019-08-17T15:12:45Z</time>
      </trkpt>
      <trkpt lat="59.15928" lon="18.118782">
        <ele>63</ele>
        <time>2019-08-17T15:12:46Z</time>
      </trkpt>
      <trkpt lat="59.159251" lon="18.118741">
        <ele>63</ele>
        <time>2019-08-17T15:12:47Z</time>
      </trkpt>
      <trkpt lat="59.159223" lon="18.118701">
        <ele>63</ele>
        <time>2019-08-17T15:12:48Z</time>
      </trkpt>
      <trkpt lat="59.159191" lon="18.118663">
        <ele>63</ele>
        <time>2019-08-17T15:12:49Z</time>
      </trkpt>
      <trkpt lat="59.159164" lon="18.118629">
        <ele>63</ele>
        <time>2019-08-17T15:12:50Z</time>
      </trkpt>
      <trkpt lat="59.159137" lon="18.118594">
        <ele>63</ele>
        <time>2019-08-17T15:12:51Z</time>
      </trkpt>
      <trkpt lat="59.159112" lon="18.11856">
        <ele>62</ele>
        <time>2019-08-17T15:12:52Z</time>
      </trkpt>
      <trkpt lat="59.159086" lon="18.118523">
        <ele>62</ele>
        <time>2019-08-17T15:12:53Z</time>
      </trkpt>
      <trkpt lat="59.159065" lon="18.118477">
        <ele>62</ele>
        <time>2019-08-17T15:12:54Z</time>
      </trkpt>
      <trkpt lat="59.159048" lon="18.11842">
        <ele>62</ele>
        <time>2019-08-17T15:12:55Z</time>
      </trkpt>
      <trkpt lat="59.159042" lon="18.118357">
        <ele>62</ele>
        <time>2019-08-17T15:12:56Z</time>
      </trkpt>
      <trkpt lat="59.159038" lon="18.118294">
        <ele>62</ele>
        <time>2019-08-17T15:12:57Z</time>
      </trkpt>
      <trkpt lat="59.159035" lon="18.118233">
        <ele>62</ele>
        <time>2019-08-17T15:12:58Z</time>
      </trkpt>
      <trkpt lat="59.159034" lon="18.118168">
        <ele>62</ele>
        <time>2019-08-17T15:12:59Z</time>
      </trkpt>
      <trkpt lat="59.159029" lon="18.11809">
        <ele>62</ele>
        <time>2019-08-17T15:13:00Z</time>
      </trkpt>
      <trkpt lat="59.159029" lon="18.11801">
        <ele>62</ele>
        <time>2019-08-17T15:13:01Z</time>
      </trkpt>
      <trkpt lat="59.159036" lon="18.117941">
        <ele>62</ele>
        <time>2019-08-17T15:13:02Z</time>
      </trkpt>
      <trkpt lat="59.159048" lon="18.11788">
        <ele>62</ele>
        <time>2019-08-17T15:13:03Z</time>
      </trkpt>
      <trkpt lat="59.15906" lon="18.117817">
        <ele>62</ele>
        <time>2019-08-17T15:13:04Z</time>
      </trkpt>
      <trkpt lat="59.15907" lon="18.117751">
        <ele>62</ele>
        <time>2019-08-17T15:13:05Z</time>
      </trkpt>
      <trkpt lat="59.159076" lon="18.117688">
        <ele>62</ele>
        <time>2019-08-17T15:13:06Z</time>
      </trkpt>
      <trkpt lat="59.15907" lon="18.117627">
        <ele>62</ele>
        <time>2019-08-17T15:13:07Z</time>
      </trkpt>
      <trkpt lat="59.159052" lon="18.117582">
        <ele>62</ele>
        <time>2019-08-17T15:13:08Z</time>
      </trkpt>
      <trkpt lat="59.159021" lon="18.117561">
        <ele>62</ele>
        <time>2019-08-17T15:13:09Z</time>
      </trkpt>
      <trkpt lat="59.158987" lon="18.117563">
        <ele>62</ele>
        <time>2019-08-17T15:13:10Z</time>
      </trkpt>
      <trkpt lat="59.158955" lon="18.117585">
        <ele>62</ele>
        <time>2019-08-17T15:13:11Z</time>
      </trkpt>
      <trkpt lat="59.15892" lon="18.11762">
        <ele>62</ele>
        <time>2019-08-17T15:13:12Z</time>
      </trkpt>
      <trkpt lat="59.15888" lon="18.117662">
        <ele>62</ele>
        <time>2019-08-17T15:13:13Z</time>
      </trkpt>
      <trkpt lat="59.158835" lon="18.117702">
        <ele>62</ele>
        <time>2019-08-17T15:13:14Z</time>
      </trkpt>
      <trkpt lat="59.158787" lon="18.117714">
        <ele>62</ele>
        <time>2019-08-17T15:13:15Z</time>
      </trkpt>
      <trkpt lat="59.158748" lon="18.117686">
        <ele>62</ele>
        <time>2019-08-17T15:13:16Z</time>
      </trkpt>
      <trkpt lat="59.158717" lon="18.11763">
        <ele>62</ele>
        <time>2019-08-17T15:13:17Z</time>
      </trkpt>
      <trkpt lat="59.158698" lon="18.117562">
        <ele>62</ele>
        <time>2019-08-17T15:13:18Z</time>
      </trkpt>
      <trkpt lat="59.158686" lon="18.11749">
        <ele>62</ele>
        <time>2019-08-17T15:13:19Z</time>
      </trkpt>
      <trkpt lat="59.158674" lon="18.117421">
        <ele>62</ele>
        <time>2019-08-17T15:13:20Z</time>
      </trkpt>
      <trkpt lat="59.158656" lon="18.11736">
        <ele>62</ele>
        <time>2019-08-17T15:13:21Z</time>
      </trkpt>
      <trkpt lat="59.158631" lon="18.117323">
        <ele>62</ele>
        <time>2019-08-17T15:13:22Z</time>
      </trkpt>
      <trkpt lat="59.158598" lon="18.117323">
        <ele>62</ele>
        <time>2019-08-17T15:13:23Z</time>
      </trkpt>
      <trkpt lat="59.158563" lon="18.117348">
        <ele>62</ele>
        <time>2019-08-17T15:13:24Z</time>
      </trkpt>
      <trkpt lat="59.158528" lon="18.117375">
        <ele>62</ele>
        <time>2019-08-17T15:13:25Z</time>
      </trkpt>
      <trkpt lat="59.158488" lon="18.117397">
        <ele>62</ele>
        <time>2019-08-17T15:13:26Z</time>
      </trkpt>
      <trkpt lat="59.158449" lon="18.11741">
        <ele>62</ele>
        <time>2019-08-17T15:13:27Z</time>
      </trkpt>
      <trkpt lat="59.158412" lon="18.11742">
        <ele>62</ele>
        <time>2019-08-17T15:13:28Z</time>
      </trkpt>
      <trkpt lat="59.158379" lon="18.11743">
        <ele>62</ele>
        <time>2019-08-17T15:13:29Z</time>
      </trkpt>
      <trkpt lat="59.15835" lon="18.117422">
        <ele>62</ele>
        <time>2019-08-17T15:13:30Z</time>
      </trkpt>
      <trkpt lat="59.158331" lon="18.117382">
        <ele>62</ele>
        <time>2019-08-17T15:13:31Z</time>
      </trkpt>
      <trkpt lat="59.158323" lon="18.117328">
        <ele>62</ele>
        <time>2019-08-17T15:13:32Z</time>
      </trkpt>
      <trkpt lat="59.158328" lon="18.117266">
        <ele>62</ele>
        <time>2019-08-17T15:13:33Z</time>
      </trkpt>
      <trkpt lat="59.158345" lon="18.117213">
        <ele>62</ele>
        <time>2019-08-17T15:13:34Z</time>
      </trkpt>
      <trkpt lat="59.158356" lon="18.117163">
        <ele>62</ele>
        <time>2019-08-17T15:13:35Z</time>
      </trkpt>
      <trkpt lat="59.158366" lon="18.11711">
        <ele>62</ele>
        <time>2019-08-17T15:13:36Z</time>
      </trkpt>
      <trkpt lat="59.158381" lon="18.117048">
        <ele>62</ele>
        <time>2019-08-17T15:13:37Z</time>
      </trkpt>
      <trkpt lat="59.158399" lon="18.116991">
        <ele>62</ele>
        <time>2019-08-17T15:13:38Z</time>
      </trkpt>
      <trkpt lat="59.158421" lon="18.116935">
        <ele>62</ele>
        <time>2019-08-17T15:13:39Z</time>
      </trkpt>
      <trkpt lat="59.158444" lon="18.116875">
        <ele>62</ele>
        <time>2019-08-17T15:13:40Z</time>
      </trkpt>
      <trkpt lat="59.158464" lon="18.116811">
        <ele>62</ele>
        <time>2019-08-17T15:13:41Z</time>
      </trkpt>
      <trkpt lat="59.158486" lon="18.116746">
        <ele>62</ele>
        <time>2019-08-17T15:13:42Z</time>
      </trkpt>
      <trkpt lat="59.158513" lon="18.116678">
        <ele>62</ele>
        <time>2019-08-17T15:13:43Z</time>
      </trkpt>
      <trkpt lat="59.158554" lon="18.116609">
        <ele>62</ele>
        <time>2019-08-17T15:13:44Z</time>
      </trkpt>
      <trkpt lat="59.15858" lon="18.116533">
        <ele>61</ele>
        <time>2019-08-17T15:13:45Z</time>
      </trkpt>
      <trkpt lat="59.158605" lon="18.116453">
        <ele>61</ele>
        <time>2019-08-17T15:13:46Z</time>
      </trkpt>
      <trkpt lat="59.158636" lon="18.116342">
        <ele>61</ele>
        <time>2019-08-17T15:13:47Z</time>
      </trkpt>
      <trkpt lat="59.158677" lon="18.116195">
        <ele>60</ele>
        <time>2019-08-17T15:13:48Z</time>
      </trkpt>
      <trkpt lat="59.158737" lon="18.116081">
        <ele>60</ele>
        <time>2019-08-17T15:13:49Z</time>
      </trkpt>
      <trkpt lat="59.1588" lon="18.116">
        <ele>60</ele>
        <time>2019-08-17T15:13:50Z</time>
      </trkpt>
      <trkpt lat="59.158863" lon="18.115934">
        <ele>60</ele>
        <time>2019-08-17T15:13:51Z</time>
      </trkpt>
      <trkpt lat="59.158922" lon="18.115888">
        <ele>60</ele>
        <time>2019-08-17T15:13:52Z</time>
      </trkpt>
      <trkpt lat="59.158982" lon="18.115869">
        <ele>60</ele>
        <time>2019-08-17T15:13:53Z</time>
      </trkpt>
      <trkpt lat="59.159042" lon="18.115851">
        <ele>60</ele>
        <time>2019-08-17T15:13:54Z</time>
      </trkpt>
      <trkpt lat="59.159102" lon="18.115854">
        <ele>60</ele>
        <time>2019-08-17T15:13:55Z</time>
      </trkpt>
      <trkpt lat="59.159172" lon="18.115882">
        <ele>59</ele>
        <time>2019-08-17T15:13:56Z</time>
      </trkpt>
      <trkpt lat="59.159242" lon="18.115946">
        <ele>59</ele>
        <time>2019-08-17T15:13:57Z</time>
      </trkpt>
      <trkpt lat="59.1593" lon="18.116033">
        <ele>59</ele>
        <time>2019-08-17T15:13:58Z</time>
      </trkpt>
      <trkpt lat="59.159344" lon="18.116158">
        <ele>59</ele>
        <time>2019-08-17T15:13:59Z</time>
      </trkpt>
      <trkpt lat="59.159367" lon="18.116288">
        <ele>58</ele>
        <time>2019-08-17T15:14:00Z</time>
      </trkpt>
      <trkpt lat="59.159367" lon="18.116424">
        <ele>58</ele>
        <time>2019-08-17T15:14:01Z</time>
      </trkpt>
      <trkpt lat="59.15937" lon="18.116552">
        <ele>58</ele>
        <time>2019-08-17T15:14:02Z</time>
      </trkpt>
      <trkpt lat="59.159364" lon="18.116656">
        <ele>59</ele>
        <time>2019-08-17T15:14:03Z</time>
      </trkpt>
      <trkpt lat="59.159354" lon="18.11674">
        <ele>59</ele>
        <time>2019-08-17T15:14:04Z</time>
      </trkpt>
      <trkpt lat="59.159342" lon="18.116808">
        <ele>59</ele>
        <time>2019-08-17T15:14:05Z</time>
      </trkpt>
      <trkpt lat="59.159342" lon="18.116868">
        <ele>59</ele>
        <time>2019-08-17T15:14:06Z</time>
      </trkpt>
      <trkpt lat="59.159346" lon="18.116926">
        <ele>59</ele>
        <time>2019-08-17T15:14:07Z</time>
      </trkpt>
      <trkpt lat="59.159363" lon="18.116978">
        <ele>59</ele>
        <time>2019-08-17T15:14:08Z</time>
      </trkpt>
      <trkpt lat="59.15938" lon="18.117042">
        <ele>59</ele>
        <time>2019-08-17T15:14:09Z</time>
      </trkpt>
      <trkpt lat="59.159394" lon="18.117112">
        <ele>59</ele>
        <time>2019-08-17T15:14:10Z</time>
      </trkpt>
      <trkpt lat="59.159411" lon="18.11718">
        <ele>59</ele>
        <time>2019-08-17T15:14:11Z</time>
      </trkpt>
      <trkpt lat="59.15943" lon="18.117237">
        <ele>59</ele>
        <time>2019-08-17T15:14:12Z</time>
      </trkpt>
      <trkpt lat="59.159446" lon="18.11729">
        <ele>59</ele>
        <time>2019-08-17T15:14:13Z</time>
      </trkpt>
      <trkpt lat="59.15947" lon="18.117352">
        <ele>59</ele>
        <time>2019-08-17T15:14:14Z</time>
      </trkpt>
      <trkpt lat="59.159491" lon="18.117406">
        <ele>59</ele>
        <time>2019-08-17T15:14:15Z</time>
      </trkpt>
      <trkpt lat="59.159512" lon="18.117452">
        <ele>59</ele>
        <time>2019-08-17T15:14:16Z</time>
      </trkpt>
      <trkpt lat="59.159532" lon="18.117494">
        <ele>59</ele>
        <time>2019-08-17T15:14:17Z</time>
      </trkpt>
      <trkpt lat="59.15955" lon="18.117532">
        <ele>59</ele>
        <time>2019-08-17T15:14:18Z</time>
      </trkpt>
      <trkpt lat="59.159568" lon="18.117564">
        <ele>59</ele>
        <time>2019-08-17T15:14:19Z</time>
      </trkpt>
      <trkpt lat="59.159586" lon="18.117595">
        <ele>59</ele>
        <time>2019-08-17T15:14:20Z</time>
      </trkpt>
      <trkpt lat="59.159604" lon="18.117621">
        <ele>59</ele>
        <time>2019-08-17T15:14:21Z</time>
      </trkpt>
      <trkpt lat="59.159623" lon="18.117641">
        <ele>59</ele>
        <time>2019-08-17T15:14:22Z</time>
      </trkpt>
      <trkpt lat="59.15964" lon="18.117658">
        <ele>59</ele>
        <time>2019-08-17T15:14:23Z</time>
      </trkpt>
      <trkpt lat="59.15966" lon="18.117672">
        <ele>59</ele>
        <time>2019-08-17T15:14:24Z</time>
      </trkpt>
      <trkpt lat="59.159682" lon="18.117712">
        <ele>60</ele>
        <time>2019-08-17T15:14:26Z</time>
      </trkpt>
      <trkpt lat="59.159707" lon="18.11773">
        <ele>60</ele>
        <time>2019-08-17T15:14:28Z</time>
      </trkpt>
      <trkpt lat="59.159702" lon="18.117719">
        <ele>60</ele>
        <time>2019-08-17T15:14:35Z</time>
      </trkpt>
      <trkpt lat="59.159664" lon="18.117672">
        <ele>62</ele>
        <time>2019-08-17T15:23:55Z</time>
      </trkpt>
      <trkpt lat="59.159637" lon="18.117668">
        <ele>63</ele>
        <time>2019-08-17T15:23:56Z</time>
      </trkpt>
      <trkpt lat="59.159606" lon="18.117659">
        <ele>63</ele>
        <time>2019-08-17T15:23:56Z</time>
      </trkpt>
      <trkpt lat="59.159569" lon="18.117652">
        <ele>62</ele>
        <time>2019-08-17T15:23:57Z</time>
      </trkpt>
      <trkpt lat="59.159529" lon="18.11764">
        <ele>62</ele>
        <time>2019-08-17T15:23:58Z</time>
      </trkpt>
      <trkpt lat="59.159488" lon="18.117623">
        <ele>62</ele>
        <time>2019-08-17T15:23:59Z</time>
      </trkpt>
      <trkpt lat="59.159442" lon="18.117606">
        <ele>62</ele>
        <time>2019-08-17T15:24:00Z</time>
      </trkpt>
      <trkpt lat="59.159394" lon="18.117597">
        <ele>62</ele>
        <time>2019-08-17T15:24:01Z</time>
      </trkpt>
      <trkpt lat="59.159346" lon="18.117591">
        <ele>62</ele>
        <time>2019-08-17T15:24:02Z</time>
      </trkpt>
      <trkpt lat="59.159304" lon="18.117582">
        <ele>62</ele>
        <time>2019-08-17T15:24:03Z</time>
      </trkpt>
      <trkpt lat="59.159261" lon="18.117575">
        <ele>62</ele>
        <time>2019-08-17T15:24:04Z</time>
      </trkpt>
      <trkpt lat="59.15922" lon="18.117566">
        <ele>61</ele>
        <time>2019-08-17T15:24:05Z</time>
      </trkpt>
      <trkpt lat="59.15918" lon="18.117555">
        <ele>61</ele>
        <time>2019-08-17T15:24:06Z</time>
      </trkpt>
      <trkpt lat="59.159142" lon="18.117547">
        <ele>61</ele>
        <time>2019-08-17T15:24:07Z</time>
      </trkpt>
      <trkpt lat="59.159104" lon="18.117545">
        <ele>61</ele>
        <time>2019-08-17T15:24:08Z</time>
      </trkpt>
      <trkpt lat="59.159066" lon="18.117543">
        <ele>62</ele>
        <time>2019-08-17T15:24:09Z</time>
      </trkpt>
      <trkpt lat="59.159027" lon="18.117546">
        <ele>61</ele>
        <time>2019-08-17T15:24:10Z</time>
      </trkpt>
      <trkpt lat="59.158988" lon="18.11756">
        <ele>61</ele>
        <time>2019-08-17T15:24:11Z</time>
      </trkpt>
      <trkpt lat="59.15895" lon="18.117584">
        <ele>61</ele>
        <time>2019-08-17T15:24:12Z</time>
      </trkpt>
      <trkpt lat="59.158911" lon="18.11762">
        <ele>61</ele>
        <time>2019-08-17T15:24:13Z</time>
      </trkpt>
      <trkpt lat="59.158866" lon="18.117668">
        <ele>61</ele>
        <time>2019-08-17T15:24:14Z</time>
      </trkpt>
      <trkpt lat="59.158812" lon="18.117709">
        <ele>61</ele>
        <time>2019-08-17T15:24:15Z</time>
      </trkpt>
      <trkpt lat="59.15875" lon="18.117727">
        <ele>61</ele>
        <time>2019-08-17T15:24:16Z</time>
      </trkpt>
      <trkpt lat="59.158686" lon="18.117731">
        <ele>61</ele>
        <time>2019-08-17T15:24:17Z</time>
      </trkpt>
      <trkpt lat="59.158618" lon="18.117751">
        <ele>61</ele>
        <time>2019-08-17T15:24:18Z</time>
      </trkpt>
      <trkpt lat="59.158554" lon="18.117799">
        <ele>61</ele>
        <time>2019-08-17T15:24:19Z</time>
      </trkpt>
      <trkpt lat="59.158494" lon="18.117865">
        <ele>61</ele>
        <time>2019-08-17T15:24:20Z</time>
      </trkpt>
      <trkpt lat="59.158441" lon="18.117942">
        <ele>61</ele>
        <time>2019-08-17T15:24:21Z</time>
      </trkpt>
      <trkpt lat="59.158392" lon="18.118026">
        <ele>61</ele>
        <time>2019-08-17T15:24:22Z</time>
      </trkpt>
      <trkpt lat="59.158354" lon="18.118124">
        <ele>61</ele>
        <time>2019-08-17T15:24:23Z</time>
      </trkpt>
      <trkpt lat="59.158338" lon="18.118221">
        <ele>61</ele>
        <time>2019-08-17T15:24:24Z</time>
      </trkpt>
      <trkpt lat="59.158342" lon="18.118322">
        <ele>61</ele>
        <time>2019-08-17T15:24:25Z</time>
      </trkpt>
      <trkpt lat="59.158374" lon="18.118408">
        <ele>61</ele>
        <time>2019-08-17T15:24:26Z</time>
      </trkpt>
      <trkpt lat="59.158413" lon="18.118466">
        <ele>60</ele>
        <time>2019-08-17T15:24:27Z</time>
      </trkpt>
      <trkpt lat="59.158458" lon="18.118513">
        <ele>60</ele>
        <time>2019-08-17T15:24:28Z</time>
      </trkpt>
      <trkpt lat="59.158508" lon="18.118562">
        <ele>60</ele>
        <time>2019-08-17T15:24:29Z</time>
      </trkpt>
      <trkpt lat="59.158556" lon="18.118613">
        <ele>60</ele>
        <time>2019-08-17T15:24:30Z</time>
      </trkpt>
      <trkpt lat="59.158596" lon="18.118682">
        <ele>60</ele>
        <time>2019-08-17T15:24:31Z</time>
      </trkpt>
      <trkpt lat="59.158631" lon="18.118759">
        <ele>60</ele>
        <time>2019-08-17T15:24:32Z</time>
      </trkpt>
      <trkpt lat="59.158663" lon="18.118841">
        <ele>59</ele>
        <time>2019-08-17T15:24:33Z</time>
      </trkpt>
      <trkpt lat="59.158686" lon="18.118937">
        <ele>59</ele>
        <time>2019-08-17T15:24:34Z</time>
      </trkpt>
      <trkpt lat="59.158698" lon="18.119043">
        <ele>59</ele>
        <time>2019-08-17T15:24:35Z</time>
      </trkpt>
      <trkpt lat="59.158705" lon="18.11915">
        <ele>59</ele>
        <time>2019-08-17T15:24:36Z</time>
      </trkpt>
      <trkpt lat="59.158708" lon="18.119257">
        <ele>59</ele>
        <time>2019-08-17T15:24:37Z</time>
      </trkpt>
      <trkpt lat="59.15871" lon="18.119365">
        <ele>59</ele>
        <time>2019-08-17T15:24:38Z</time>
      </trkpt>
      <trkpt lat="59.158716" lon="18.119472">
        <ele>59</ele>
        <time>2019-08-17T15:24:39Z</time>
      </trkpt>
      <trkpt lat="59.158725" lon="18.119578">
        <ele>59</ele>
        <time>2019-08-17T15:24:40Z</time>
      </trkpt>
      <trkpt lat="59.158732" lon="18.119684">
        <ele>59</ele>
        <time>2019-08-17T15:24:41Z</time>
      </trkpt>
      <trkpt lat="59.158741" lon="18.119787">
        <ele>59</ele>
        <time>2019-08-17T15:24:42Z</time>
      </trkpt>
      <trkpt lat="59.158748" lon="18.119884">
        <ele>59</ele>
        <time>2019-08-17T15:24:43Z</time>
      </trkpt>
      <trkpt lat="59.158754" lon="18.119974">
        <ele>59</ele>
        <time>2019-08-17T15:24:44Z</time>
      </trkpt>
      <trkpt lat="59.15876" lon="18.120065">
        <ele>59</ele>
        <time>2019-08-17T15:24:45Z</time>
      </trkpt>
      <trkpt lat="59.158758" lon="18.120153">
        <ele>59</ele>
        <time>2019-08-17T15:24:46Z</time>
      </trkpt>
      <trkpt lat="59.158756" lon="18.120238">
        <ele>59</ele>
        <time>2019-08-17T15:24:47Z</time>
      </trkpt>
      <trkpt lat="59.15875" lon="18.120314">
        <ele>59</ele>
        <time>2019-08-17T15:24:48Z</time>
      </trkpt>
      <trkpt lat="59.158732" lon="18.120358">
        <ele>59</ele>
        <time>2019-08-17T15:24:49Z</time>
      </trkpt>
      <trkpt lat="59.158714" lon="18.120384">
        <ele>59</ele>
        <time>2019-08-17T15:24:50Z</time>
      </trkpt>
      <trkpt lat="59.158688" lon="18.120398">
        <ele>59</ele>
        <time>2019-08-17T15:24:51Z</time>
      </trkpt>
      <trkpt lat="59.158654" lon="18.120409">
        <ele>59</ele>
        <time>2019-08-17T15:24:52Z</time>
      </trkpt>
      <trkpt lat="59.158621" lon="18.120433">
        <ele>59</ele>
        <time>2019-08-17T15:24:53Z</time>
      </trkpt>
      <trkpt lat="59.158591" lon="18.120468">
        <ele>59</ele>
        <time>2019-08-17T15:24:54Z</time>
      </trkpt>
      <trkpt lat="59.158572" lon="18.120511">
        <ele>59</ele>
        <time>2019-08-17T15:24:55Z</time>
      </trkpt>
      <trkpt lat="59.158558" lon="18.120564">
        <ele>59</ele>
        <time>2019-08-17T15:24:56Z</time>
      </trkpt>
      <trkpt lat="59.158544" lon="18.120617">
        <ele>59</ele>
        <time>2019-08-17T15:24:57Z</time>
      </trkpt>
      <trkpt lat="59.15852" lon="18.120654">
        <ele>59</ele>
        <time>2019-08-17T15:24:58Z</time>
      </trkpt>
      <trkpt lat="59.158492" lon="18.120682">
        <ele>59</ele>
        <time>2019-08-17T15:24:59Z</time>
      </trkpt>
      <trkpt lat="59.158468" lon="18.12071">
        <ele>59</ele>
        <time>2019-08-17T15:25:00Z</time>
      </trkpt>
      <trkpt lat="59.158442" lon="18.120743">
        <ele>59</ele>
        <time>2019-08-17T15:25:01Z</time>
      </trkpt>
      <trkpt lat="59.15842" lon="18.120782">
        <ele>59</ele>
        <time>2019-08-17T15:25:02Z</time>
      </trkpt>
      <trkpt lat="59.158397" lon="18.120834">
        <ele>59</ele>
        <time>2019-08-17T15:25:03Z</time>
      </trkpt>
      <trkpt lat="59.158388" lon="18.120892">
        <ele>59</ele>
        <time>2019-08-17T15:25:04Z</time>
      </trkpt>
      <trkpt lat="59.158376" lon="18.120956">
        <ele>59</ele>
        <time>2019-08-17T15:25:05Z</time>
      </trkpt>
      <trkpt lat="59.15837" lon="18.121019">
        <ele>59</ele>
        <time>2019-08-17T15:25:06Z</time>
      </trkpt>
      <trkpt lat="59.158366" lon="18.121076">
        <ele>59</ele>
        <time>2019-08-17T15:25:07Z</time>
      </trkpt>
      <trkpt lat="59.158376" lon="18.121133">
        <ele>59</ele>
        <time>2019-08-17T15:25:08Z</time>
      </trkpt>
      <trkpt lat="59.158381" lon="18.121186">
        <ele>59</ele>
        <time>2019-08-17T15:25:09Z</time>
      </trkpt>
      <trkpt lat="59.15837" lon="18.121234">
        <ele>59</ele>
        <time>2019-08-17T15:25:10Z</time>
      </trkpt>
      <trkpt lat="59.15835" lon="18.121269">
        <ele>59</ele>
        <time>2019-08-17T15:25:11Z</time>
      </trkpt>
      <trkpt lat="59.158336" lon="18.121308">
        <ele>59</ele>
        <time>2019-08-17T15:25:12Z</time>
      </trkpt>
      <trkpt lat="59.158318" lon="18.121351">
        <ele>59</ele>
        <time>2019-08-17T15:25:13Z</time>
      </trkpt>
      <trkpt lat="59.158297" lon="18.121389">
        <ele>59</ele>
        <time>2019-08-17T15:25:14Z</time>
      </trkpt>
      <trkpt lat="59.158274" lon="18.12142">
        <ele>59</ele>
        <time>2019-08-17T15:25:15Z</time>
      </trkpt>
      <trkpt lat="59.15825" lon="18.121442">
        <ele>59</ele>
        <time>2019-08-17T15:25:16Z</time>
      </trkpt>
      <trkpt lat="59.158222" lon="18.121461">
        <ele>59</ele>
        <time>2019-08-17T15:25:17Z</time>
      </trkpt>
      <trkpt lat="59.158191" lon="18.121473">
        <ele>59</ele>
        <time>2019-08-17T15:25:18Z</time>
      </trkpt>
      <trkpt lat="59.158156" lon="18.121482">
        <ele>59</ele>
        <time>2019-08-17T15:25:19Z</time>
      </trkpt>
      <trkpt lat="59.158117" lon="18.121491">
        <ele>59</ele>
        <time>2019-08-17T15:25:20Z</time>
      </trkpt>
      <trkpt lat="59.158081" lon="18.121501">
        <ele>59</ele>
        <time>2019-08-17T15:25:21Z</time>
      </trkpt>
      <trkpt lat="59.158046" lon="18.121511">
        <ele>59</ele>
        <time>2019-08-17T15:25:22Z</time>
      </trkpt>
      <trkpt lat="59.158012" lon="18.121541">
        <ele>59</ele>
        <time>2019-08-17T15:25:23Z</time>
      </trkpt>
      <trkpt lat="59.157978" lon="18.121563">
        <ele>59</ele>
        <time>2019-08-17T15:25:24Z</time>
      </trkpt>
      <trkpt lat="59.15795" lon="18.121583">
        <ele>59</ele>
        <time>2019-08-17T15:25:25Z</time>
      </trkpt>
      <trkpt lat="59.157918" lon="18.121616">
        <ele>58</ele>
        <time>2019-08-17T15:25:26Z</time>
      </trkpt>
      <trkpt lat="59.157892" lon="18.121653">
        <ele>59</ele>
        <time>2019-08-17T15:25:27Z</time>
      </trkpt>
      <trkpt lat="59.157874" lon="18.121706">
        <ele>59</ele>
        <time>2019-08-17T15:25:28Z</time>
      </trkpt>
      <trkpt lat="59.15787" lon="18.121765">
        <ele>59</ele>
        <time>2019-08-17T15:25:29Z</time>
      </trkpt>
      <trkpt lat="59.157876" lon="18.121821">
        <ele>59</ele>
        <time>2019-08-17T15:25:30Z</time>
      </trkpt>
      <trkpt lat="59.157878" lon="18.121873">
        <ele>58</ele>
        <time>2019-08-17T15:25:31Z</time>
      </trkpt>
      <trkpt lat="59.157881" lon="18.121927">
        <ele>58</ele>
        <time>2019-08-17T15:25:32Z</time>
      </trkpt>
      <trkpt lat="59.157884" lon="18.12199">
        <ele>58</ele>
        <time>2019-08-17T15:25:33Z</time>
      </trkpt>
      <trkpt lat="59.157884" lon="18.122058">
        <ele>58</ele>
        <time>2019-08-17T15:25:34Z</time>
      </trkpt>
      <trkpt lat="59.157874" lon="18.122125">
        <ele>58</ele>
        <time>2019-08-17T15:25:35Z</time>
      </trkpt>
      <trkpt lat="59.157868" lon="18.122194">
        <ele>58</ele>
        <time>2019-08-17T15:25:36Z</time>
      </trkpt>
      <trkpt lat="59.157863" lon="18.122259">
        <ele>58</ele>
        <time>2019-08-17T15:25:37Z</time>
      </trkpt>
      <trkpt lat="59.157863" lon="18.122319">
        <ele>58</ele>
        <time>2019-08-17T15:25:38Z</time>
      </trkpt>
      <trkpt lat="59.157861" lon="18.122371">
        <ele>58</ele>
        <time>2019-08-17T15:25:39Z</time>
      </trkpt>
      <trkpt lat="59.157864" lon="18.122411">
        <ele>58</ele>
        <time>2019-08-17T15:25:40Z</time>
      </trkpt>
      <trkpt lat="59.157872" lon="18.122449">
        <ele>58</ele>
        <time>2019-08-17T15:25:42Z</time>
      </trkpt>
      <trkpt lat="59.157866" lon="18.122456">
        <ele>58</ele>
        <time>2019-08-17T15:25:47Z</time>
      </trkpt>
      <trkpt lat="59.157905" lon="18.122542">
        <ele>57</ele>
        <time>2019-08-17T15:26:05Z</time>
      </trkpt>
      <trkpt lat="59.157923" lon="18.122581">
        <ele>57</ele>
        <time>2019-08-17T15:26:05Z</time>
      </trkpt>
      <trkpt lat="59.157943" lon="18.122618">
        <ele>57</ele>
        <time>2019-08-17T15:26:06Z</time>
      </trkpt>
      <trkpt lat="59.157968" lon="18.122665">
        <ele>57</ele>
        <time>2019-08-17T15:26:07Z</time>
      </trkpt>
      <trkpt lat="59.157995" lon="18.122722">
        <ele>57</ele>
        <time>2019-08-17T15:26:08Z</time>
      </trkpt>
      <trkpt lat="59.158018" lon="18.122791">
        <ele>57</ele>
        <time>2019-08-17T15:26:09Z</time>
      </trkpt>
      <trkpt lat="59.158029" lon="18.122851">
        <ele>57</ele>
        <time>2019-08-17T15:26:10Z</time>
      </trkpt>
      <trkpt lat="59.158028" lon="18.122891">
        <ele>57</ele>
        <time>2019-08-17T15:26:11Z</time>
      </trkpt>
      <trkpt lat="59.158031" lon="18.122935">
        <ele>57</ele>
        <time>2019-08-17T15:26:13Z</time>
      </trkpt>
      <trkpt lat="59.158035" lon="18.122963">
        <ele>58</ele>
        <time>2019-08-17T15:26:19Z</time>
      </trkpt>
      <trkpt lat="59.15802" lon="18.123024">
        <ele>59</ele>
        <time>2019-08-17T15:38:01Z</time>
      </trkpt>
      <trkpt lat="59.158009" lon="18.123055">
        <ele>60</ele>
        <time>2019-08-17T15:38:02Z</time>
      </trkpt>
      <trkpt lat="59.157994" lon="18.123093">
        <ele>60</ele>
        <time>2019-08-17T15:38:02Z</time>
      </trkpt>
      <trkpt lat="59.157981" lon="18.123127">
        <ele>60</ele>
        <time>2019-08-17T15:38:03Z</time>
      </trkpt>
      <trkpt lat="59.157968" lon="18.123157">
        <ele>59</ele>
        <time>2019-08-17T15:38:04Z</time>
      </trkpt>
      <trkpt lat="59.157946" lon="18.123202">
        <ele>59</ele>
        <time>2019-08-17T15:38:06Z</time>
      </trkpt>
      <trkpt lat="59.157922" lon="18.123245">
        <ele>59</ele>
        <time>2019-08-17T15:38:08Z</time>
      </trkpt>
      <trkpt lat="59.157907" lon="18.123272">
        <ele>59</ele>
        <time>2019-08-17T15:38:09Z</time>
      </trkpt>
      <trkpt lat="59.157887" lon="18.12331">
        <ele>58</ele>
        <time>2019-08-17T15:38:10Z</time>
      </trkpt>
      <trkpt lat="59.157868" lon="18.123358">
        <ele>58</ele>
        <time>2019-08-17T15:38:11Z</time>
      </trkpt>
      <trkpt lat="59.157848" lon="18.12341">
        <ele>58</ele>
        <time>2019-08-17T15:38:12Z</time>
      </trkpt>
      <trkpt lat="59.157828" lon="18.123461">
        <ele>58</ele>
        <time>2019-08-17T15:38:13Z</time>
      </trkpt>
      <trkpt lat="59.157807" lon="18.123508">
        <ele>58</ele>
        <time>2019-08-17T15:38:14Z</time>
      </trkpt>
      <trkpt lat="59.157786" lon="18.123556">
        <ele>58</ele>
        <time>2019-08-17T15:38:15Z</time>
      </trkpt>
      <trkpt lat="59.157767" lon="18.123601">
        <ele>58</ele>
        <time>2019-08-17T15:38:16Z</time>
      </trkpt>
      <trkpt lat="59.157757" lon="18.123648">
        <ele>58</ele>
        <time>2019-08-17T15:38:17Z</time>
      </trkpt>
      <trkpt lat="59.157759" lon="18.123698">
        <ele>58</ele>
        <time>2019-08-17T15:38:18Z</time>
      </trkpt>
      <trkpt lat="59.157773" lon="18.123733">
        <ele>58</ele>
        <time>2019-08-17T15:38:19Z</time>
      </trkpt>
      <trkpt lat="59.157791" lon="18.123751">
        <ele>57</ele>
        <time>2019-08-17T15:38:20Z</time>
      </trkpt>
      <trkpt lat="59.157811" lon="18.123762">
        <ele>57</ele>
        <time>2019-08-17T15:38:21Z</time>
      </trkpt>
      <trkpt lat="59.157833" lon="18.123765">
        <ele>57</ele>
        <time>2019-08-17T15:38:22Z</time>
      </trkpt>
      <trkpt lat="59.157857" lon="18.123764">
        <ele>57</ele>
        <time>2019-08-17T15:38:23Z</time>
      </trkpt>
      <trkpt lat="59.157879" lon="18.123764">
        <ele>57</ele>
        <time>2019-08-17T15:38:24Z</time>
      </trkpt>
      <trkpt lat="59.157898" lon="18.123755">
        <ele>56</ele>
        <time>2019-08-17T15:38:25Z</time>
      </trkpt>
      <trkpt lat="59.15792" lon="18.123752">
        <ele>56</ele>
        <time>2019-08-17T15:38:26Z</time>
      </trkpt>
      <trkpt lat="59.157946" lon="18.123753">
        <ele>56</ele>
        <time>2019-08-17T15:38:27Z</time>
      </trkpt>
      <trkpt lat="59.157973" lon="18.123755">
        <ele>56</ele>
        <time>2019-08-17T15:38:28Z</time>
      </trkpt>
      <trkpt lat="59.158001" lon="18.123762">
        <ele>56</ele>
        <time>2019-08-17T15:38:29Z</time>
      </trkpt>
      <trkpt lat="59.158028" lon="18.12378">
        <ele>56</ele>
        <time>2019-08-17T15:38:30Z</time>
      </trkpt>
      <trkpt lat="59.15806" lon="18.123812">
        <ele>56</ele>
        <time>2019-08-17T15:38:31Z</time>
      </trkpt>
      <trkpt lat="59.15809" lon="18.123852">
        <ele>56</ele>
        <time>2019-08-17T15:38:32Z</time>
      </trkpt>
      <trkpt lat="59.158131" lon="18.123881">
        <ele>56</ele>
        <time>2019-08-17T15:38:33Z</time>
      </trkpt>
      <trkpt lat="59.158176" lon="18.123904">
        <ele>56</ele>
        <time>2019-08-17T15:38:34Z</time>
      </trkpt>
      <trkpt lat="59.158222" lon="18.123933">
        <ele>55</ele>
        <time>2019-08-17T15:38:35Z</time>
      </trkpt>
      <trkpt lat="59.158266" lon="18.123958">
        <ele>55</ele>
        <time>2019-08-17T15:38:36Z</time>
      </trkpt>
      <trkpt lat="59.158307" lon="18.123974">
        <ele>55</ele>
        <time>2019-08-17T15:38:37Z</time>
      </trkpt>
      <trkpt lat="59.158341" lon="18.12398">
        <ele>55</ele>
        <time>2019-08-17T15:38:38Z</time>
      </trkpt>
      <trkpt lat="59.158375" lon="18.123978">
        <ele>55</ele>
        <time>2019-08-17T15:38:39Z</time>
      </trkpt>
      <trkpt lat="59.158409" lon="18.123978">
        <ele>54</ele>
        <time>2019-08-17T15:38:40Z</time>
      </trkpt>
      <trkpt lat="59.158449" lon="18.123978">
        <ele>54</ele>
        <time>2019-08-17T15:38:41Z</time>
      </trkpt>
      <trkpt lat="59.158498" lon="18.123982">
        <ele>54</ele>
        <time>2019-08-17T15:38:42Z</time>
      </trkpt>
      <trkpt lat="59.158551" lon="18.123987">
        <ele>54</ele>
        <time>2019-08-17T15:38:43Z</time>
      </trkpt>
      <trkpt lat="59.158617" lon="18.123998">
        <ele>54</ele>
        <time>2019-08-17T15:38:44Z</time>
      </trkpt>
      <trkpt lat="59.158676" lon="18.124009">
        <ele>53</ele>
        <time>2019-08-17T15:38:45Z</time>
      </trkpt>
      <trkpt lat="59.158735" lon="18.124022">
        <ele>53</ele>
        <time>2019-08-17T15:38:46Z</time>
      </trkpt>
      <trkpt lat="59.158801" lon="18.124039">
        <ele>53</ele>
        <time>2019-08-17T15:38:47Z</time>
      </trkpt>
      <trkpt lat="59.158873" lon="18.124064">
        <ele>53</ele>
        <time>2019-08-17T15:38:48Z</time>
      </trkpt>
      <trkpt lat="59.158945" lon="18.124094">
        <ele>53</ele>
        <time>2019-08-17T15:38:49Z</time>
      </trkpt>
      <trkpt lat="59.159002" lon="18.124126">
        <ele>52</ele>
        <time>2019-08-17T15:38:50Z</time>
      </trkpt>
      <trkpt lat="59.159064" lon="18.124153">
        <ele>52</ele>
        <time>2019-08-17T15:38:51Z</time>
      </trkpt>
      <trkpt lat="59.159129" lon="18.12417">
        <ele>52</ele>
        <time>2019-08-17T15:38:52Z</time>
      </trkpt>
      <trkpt lat="59.159191" lon="18.124181">
        <ele>52</ele>
        <time>2019-08-17T15:38:53Z</time>
      </trkpt>
      <trkpt lat="59.159248" lon="18.124185">
        <ele>52</ele>
        <time>2019-08-17T15:38:54Z</time>
      </trkpt>
      <trkpt lat="59.159301" lon="18.124175">
        <ele>51</ele>
        <time>2019-08-17T15:38:55Z</time>
      </trkpt>
      <trkpt lat="59.159342" lon="18.124154">
        <ele>51</ele>
        <time>2019-08-17T15:38:56Z</time>
      </trkpt>
      <trkpt lat="59.159382" lon="18.12412">
        <ele>51</ele>
        <time>2019-08-17T15:38:57Z</time>
      </trkpt>
      <trkpt lat="59.159416" lon="18.124078">
        <ele>51</ele>
        <time>2019-08-17T15:38:58Z</time>
      </trkpt>
      <trkpt lat="59.159448" lon="18.124024">
        <ele>51</ele>
        <time>2019-08-17T15:38:59Z</time>
      </trkpt>
      <trkpt lat="59.159486" lon="18.12397">
        <ele>51</ele>
        <time>2019-08-17T15:39:00Z</time>
      </trkpt>
      <trkpt lat="59.15953" lon="18.123921">
        <ele>51</ele>
        <time>2019-08-17T15:39:01Z</time>
      </trkpt>
      <trkpt lat="59.15957" lon="18.123884">
        <ele>51</ele>
        <time>2019-08-17T15:39:02Z</time>
      </trkpt>
      <trkpt lat="59.159615" lon="18.123865">
        <ele>50</ele>
        <time>2019-08-17T15:39:03Z</time>
      </trkpt>
      <trkpt lat="59.159666" lon="18.123864">
        <ele>50</ele>
        <time>2019-08-17T15:39:04Z</time>
      </trkpt>
      <trkpt lat="59.159716" lon="18.123879">
        <ele>50</ele>
        <time>2019-08-17T15:39:05Z</time>
      </trkpt>
      <trkpt lat="59.159762" lon="18.123909">
        <ele>50</ele>
        <time>2019-08-17T15:39:06Z</time>
      </trkpt>
      <trkpt lat="59.159802" lon="18.123944">
        <ele>50</ele>
        <time>2019-08-17T15:39:07Z</time>
      </trkpt>
      <trkpt lat="59.159831" lon="18.12399">
        <ele>50</ele>
        <time>2019-08-17T15:39:08Z</time>
      </trkpt>
      <trkpt lat="59.159867" lon="18.12404">
        <ele>50</ele>
        <time>2019-08-17T15:39:09Z</time>
      </trkpt>
      <trkpt lat="59.159898" lon="18.124086">
        <ele>50</ele>
        <time>2019-08-17T15:39:10Z</time>
      </trkpt>
      <trkpt lat="59.159928" lon="18.124131">
        <ele>50</ele>
        <time>2019-08-17T15:39:11Z</time>
      </trkpt>
      <trkpt lat="59.159966" lon="18.124189">
        <ele>50</ele>
        <time>2019-08-17T15:39:12Z</time>
      </trkpt>
      <trkpt lat="59.160004" lon="18.124257">
        <ele>50</ele>
        <time>2019-08-17T15:39:13Z</time>
      </trkpt>
      <trkpt lat="59.160044" lon="18.124313">
        <ele>50</ele>
        <time>2019-08-17T15:39:14Z</time>
      </trkpt>
      <trkpt lat="59.160087" lon="18.12437">
        <ele>50</ele>
        <time>2019-08-17T15:39:15Z</time>
      </trkpt>
      <trkpt lat="59.160141" lon="18.124425">
        <ele>50</ele>
        <time>2019-08-17T15:39:16Z</time>
      </trkpt>
      <trkpt lat="59.160186" lon="18.124463">
        <ele>50</ele>
        <time>2019-08-17T15:39:17Z</time>
      </trkpt>
      <trkpt lat="59.160326" lon="18.124421">
        <ele>50</ele>
        <time>2019-08-17T15:39:20Z</time>
      </trkpt>
      <trkpt lat="59.160374" lon="18.124371">
        <ele>49</ele>
        <time>2019-08-17T15:39:21Z</time>
      </trkpt>
      <trkpt lat="59.160408" lon="18.124313">
        <ele>49</ele>
        <time>2019-08-17T15:39:22Z</time>
      </trkpt>
      <trkpt lat="59.160445" lon="18.124263">
        <ele>49</ele>
        <time>2019-08-17T15:39:23Z</time>
      </trkpt>
      <trkpt lat="59.160485" lon="18.124224">
        <ele>49</ele>
        <time>2019-08-17T15:39:24Z</time>
      </trkpt>
      <trkpt lat="59.160524" lon="18.124189">
        <ele>49</ele>
        <time>2019-08-17T15:39:25Z</time>
      </trkpt>
      <trkpt lat="59.160561" lon="18.124159">
        <ele>48</ele>
        <time>2019-08-17T15:39:26Z</time>
      </trkpt>
      <trkpt lat="59.160599" lon="18.124111">
        <ele>48</ele>
        <time>2019-08-17T15:39:27Z</time>
      </trkpt>
      <trkpt lat="59.160644" lon="18.124037">
        <ele>48</ele>
        <time>2019-08-17T15:39:28Z</time>
      </trkpt>
      <trkpt lat="59.160687" lon="18.123952">
        <ele>48</ele>
        <time>2019-08-17T15:39:29Z</time>
      </trkpt>
      <trkpt lat="59.160719" lon="18.123876">
        <ele>48</ele>
        <time>2019-08-17T15:39:30Z</time>
      </trkpt>
      <trkpt lat="59.160758" lon="18.123815">
        <ele>48</ele>
        <time>2019-08-17T15:39:31Z</time>
      </trkpt>
      <trkpt lat="59.1608" lon="18.12376">
        <ele>48</ele>
        <time>2019-08-17T15:39:32Z</time>
      </trkpt>
      <trkpt lat="59.160849" lon="18.12373">
        <ele>48</ele>
        <time>2019-08-17T15:39:33Z</time>
      </trkpt>
      <trkpt lat="59.160894" lon="18.123724">
        <ele>48</ele>
        <time>2019-08-17T15:39:34Z</time>
      </trkpt>
      <trkpt lat="59.160938" lon="18.123736">
        <ele>48</ele>
        <time>2019-08-17T15:39:35Z</time>
      </trkpt>
      <trkpt lat="59.160978" lon="18.123771">
        <ele>48</ele>
        <time>2019-08-17T15:39:36Z</time>
      </trkpt>
      <trkpt lat="59.161014" lon="18.123834">
        <ele>48</ele>
        <time>2019-08-17T15:39:37Z</time>
      </trkpt>
      <trkpt lat="59.161048" lon="18.123923">
        <ele>48</ele>
        <time>2019-08-17T15:39:38Z</time>
      </trkpt>
      <trkpt lat="59.16108" lon="18.124023">
        <ele>47</ele>
        <time>2019-08-17T15:39:39Z</time>
      </trkpt>
      <trkpt lat="59.161106" lon="18.124119">
        <ele>47</ele>
        <time>2019-08-17T15:39:40Z</time>
      </trkpt>
      <trkpt lat="59.161129" lon="18.124202">
        <ele>48</ele>
        <time>2019-08-17T15:39:41Z</time>
      </trkpt>
      <trkpt lat="59.161151" lon="18.124272">
        <ele>48</ele>
        <time>2019-08-17T15:39:42Z</time>
      </trkpt>
      <trkpt lat="59.161172" lon="18.124331">
        <ele>48</ele>
        <time>2019-08-17T15:39:43Z</time>
      </trkpt>
      <trkpt lat="59.161193" lon="18.124388">
        <ele>48</ele>
        <time>2019-08-17T15:39:44Z</time>
      </trkpt>
      <trkpt lat="59.161206" lon="18.124442">
        <ele>48</ele>
        <time>2019-08-17T15:39:45Z</time>
      </trkpt>
      <trkpt lat="59.161213" lon="18.124507">
        <ele>48</ele>
        <time>2019-08-17T15:39:46Z</time>
      </trkpt>
      <trkpt lat="59.161208" lon="18.124565">
        <ele>48</ele>
        <time>2019-08-17T15:39:47Z</time>
      </trkpt>
      <trkpt lat="59.161194" lon="18.124623">
        <ele>48</ele>
        <time>2019-08-17T15:39:48Z</time>
      </trkpt>
      <trkpt lat="59.161176" lon="18.124698">
        <ele>47</ele>
        <time>2019-08-17T15:39:49Z</time>
      </trkpt>
      <trkpt lat="59.161148" lon="18.124768">
        <ele>47</ele>
        <time>2019-08-17T15:39:50Z</time>
      </trkpt>
      <trkpt lat="59.161112" lon="18.124834">
        <ele>47</ele>
        <time>2019-08-17T15:39:51Z</time>
      </trkpt>
      <trkpt lat="59.161086" lon="18.124903">
        <ele>47</ele>
        <time>2019-08-17T15:39:52Z</time>
      </trkpt>
      <trkpt lat="59.161058" lon="18.124975">
        <ele>47</ele>
        <time>2019-08-17T15:39:53Z</time>
      </trkpt>
      <trkpt lat="59.161044" lon="18.125053">
        <ele>47</ele>
        <time>2019-08-17T15:39:54Z</time>
      </trkpt>
      <trkpt lat="59.16103" lon="18.125128">
        <ele>46</ele>
        <time>2019-08-17T15:39:55Z</time>
      </trkpt>
      <trkpt lat="59.161021" lon="18.125193">
        <ele>46</ele>
        <time>2019-08-17T15:39:56Z</time>
      </trkpt>
      <trkpt lat="59.161014" lon="18.125256">
        <ele>46</ele>
        <time>2019-08-17T15:39:57Z</time>
      </trkpt>
      <trkpt lat="59.16101" lon="18.12532">
        <ele>46</ele>
        <time>2019-08-17T15:39:58Z</time>
      </trkpt>
      <trkpt lat="59.161006" lon="18.12539">
        <ele>46</ele>
        <time>2019-08-17T15:39:59Z</time>
      </trkpt>
      <trkpt lat="59.161008" lon="18.125469">
        <ele>46</ele>
        <time>2019-08-17T15:40:00Z</time>
      </trkpt>
      <trkpt lat="59.161018" lon="18.12555">
        <ele>47</ele>
        <time>2019-08-17T15:40:01Z</time>
      </trkpt>
      <trkpt lat="59.161031" lon="18.125647">
        <ele>47</ele>
        <time>2019-08-17T15:40:02Z</time>
      </trkpt>
      <trkpt lat="59.161039" lon="18.125738">
        <ele>47</ele>
        <time>2019-08-17T15:40:03Z</time>
      </trkpt>
      <trkpt lat="59.161047" lon="18.125815">
        <ele>46</ele>
        <time>2019-08-17T15:40:04Z</time>
      </trkpt>
      <trkpt lat="59.161051" lon="18.125877">
        <ele>47</ele>
        <time>2019-08-17T15:40:05Z</time>
      </trkpt>
      <trkpt lat="59.161056" lon="18.12594">
        <ele>47</ele>
        <time>2019-08-17T15:40:06Z</time>
      </trkpt>
      <trkpt lat="59.161048" lon="18.125996">
        <ele>47</ele>
        <time>2019-08-17T15:40:07Z</time>
      </trkpt>
      <trkpt lat="59.161046" lon="18.126062">
        <ele>47</ele>
        <time>2019-08-17T15:40:08Z</time>
      </trkpt>
      <trkpt lat="59.161041" lon="18.126123">
        <ele>47</ele>
        <time>2019-08-17T15:40:09Z</time>
      </trkpt>
      <trkpt lat="59.161032" lon="18.126176">
        <ele>47</ele>
        <time>2019-08-17T15:40:10Z</time>
      </trkpt>
      <trkpt lat="59.161026" lon="18.126233">
        <ele>47</ele>
        <time>2019-08-17T15:40:11Z</time>
      </trkpt>
      <trkpt lat="59.161019" lon="18.12629">
        <ele>47</ele>
        <time>2019-08-17T15:40:12Z</time>
      </trkpt>
      <trkpt lat="59.161016" lon="18.126354">
        <ele>47</ele>
        <time>2019-08-17T15:40:13Z</time>
      </trkpt>
      <trkpt lat="59.161019" lon="18.126425">
        <ele>47</ele>
        <time>2019-08-17T15:40:14Z</time>
      </trkpt>
      <trkpt lat="59.161023" lon="18.126498">
        <ele>47</ele>
        <time>2019-08-17T15:40:15Z</time>
      </trkpt>
      <trkpt lat="59.161031" lon="18.126571">
        <ele>47</ele>
        <time>2019-08-17T15:40:16Z</time>
      </trkpt>
      <trkpt lat="59.161039" lon="18.126656">
        <ele>47</ele>
        <time>2019-08-17T15:40:17Z</time>
      </trkpt>
      <trkpt lat="59.161051" lon="18.126745">
        <ele>47</ele>
        <time>2019-08-17T15:40:18Z</time>
      </trkpt>
      <trkpt lat="59.161063" lon="18.126826">
        <ele>46</ele>
        <time>2019-08-17T15:40:19Z</time>
      </trkpt>
      <trkpt lat="59.161079" lon="18.126915">
        <ele>46</ele>
        <time>2019-08-17T15:40:20Z</time>
      </trkpt>
      <trkpt lat="59.161119" lon="18.127022">
        <ele>46</ele>
        <time>2019-08-17T15:40:21Z</time>
      </trkpt>
      <trkpt lat="59.161161" lon="18.127114">
        <ele>46</ele>
        <time>2019-08-17T15:40:22Z</time>
      </trkpt>
      <trkpt lat="59.161199" lon="18.127196">
        <ele>45</ele>
        <time>2019-08-17T15:40:23Z</time>
      </trkpt>
      <trkpt lat="59.161237" lon="18.127266">
        <ele>45</ele>
        <time>2019-08-17T15:40:24Z</time>
      </trkpt>
      <trkpt lat="59.161271" lon="18.12733">
        <ele>45</ele>
        <time>2019-08-17T15:40:25Z</time>
      </trkpt>
      <trkpt lat="59.161295" lon="18.127386">
        <ele>45</ele>
        <time>2019-08-17T15:40:26Z</time>
      </trkpt>
      <trkpt lat="59.161318" lon="18.127442">
        <ele>45</ele>
        <time>2019-08-17T15:40:27Z</time>
      </trkpt>
      <trkpt lat="59.16134" lon="18.127496">
        <ele>45</ele>
        <time>2019-08-17T15:40:28Z</time>
      </trkpt>
      <trkpt lat="59.161356" lon="18.127553">
        <ele>45</ele>
        <time>2019-08-17T15:40:29Z</time>
      </trkpt>
      <trkpt lat="59.161374" lon="18.127607">
        <ele>45</ele>
        <time>2019-08-17T15:40:30Z</time>
      </trkpt>
      <trkpt lat="59.161387" lon="18.127662">
        <ele>45</ele>
        <time>2019-08-17T15:40:31Z</time>
      </trkpt>
      <trkpt lat="59.161398" lon="18.127707">
        <ele>45</ele>
        <time>2019-08-17T15:40:32Z</time>
      </trkpt>
      <trkpt lat="59.161399" lon="18.127745">
        <ele>44</ele>
        <time>2019-08-17T15:40:33Z</time>
      </trkpt>
      <trkpt lat="59.161405" lon="18.127796">
        <ele>44</ele>
        <time>2019-08-17T15:40:35Z</time>
      </trkpt>
      <trkpt lat="59.161426" lon="18.127838">
        <ele>44</ele>
        <time>2019-08-17T15:40:37Z</time>
      </trkpt>
      <trkpt lat="59.161442" lon="18.127856">
        <ele>44</ele>
        <time>2019-08-17T15:40:38Z</time>
      </trkpt>
      <trkpt lat="59.161459" lon="18.127883">
        <ele>44</ele>
        <time>2019-08-17T15:40:39Z</time>
      </trkpt>
      <trkpt lat="59.161473" lon="18.12792">
        <ele>44</ele>
        <time>2019-08-17T15:40:40Z</time>
      </trkpt>
      <trkpt lat="59.161485" lon="18.127962">
        <ele>44</ele>
        <time>2019-08-17T15:40:41Z</time>
      </trkpt>
      <trkpt lat="59.161501" lon="18.128005">
        <ele>44</ele>
        <time>2019-08-17T15:40:42Z</time>
      </trkpt>
      <trkpt lat="59.161522" lon="18.128042">
        <ele>43</ele>
        <time>2019-08-17T15:40:43Z</time>
      </trkpt>
      <trkpt lat="59.161547" lon="18.128072">
        <ele>43</ele>
        <time>2019-08-17T15:40:44Z</time>
      </trkpt>
      <trkpt lat="59.161575" lon="18.128102">
        <ele>43</ele>
        <time>2019-08-17T15:40:45Z</time>
      </trkpt>
      <trkpt lat="59.161604" lon="18.12814">
        <ele>43</ele>
        <time>2019-08-17T15:40:46Z</time>
      </trkpt>
      <trkpt lat="59.161633" lon="18.128182">
        <ele>43</ele>
        <time>2019-08-17T15:40:47Z</time>
      </trkpt>
      <trkpt lat="59.161662" lon="18.128215">
        <ele>43</ele>
        <time>2019-08-17T15:40:48Z</time>
      </trkpt>
      <trkpt lat="59.161695" lon="18.128237">
        <ele>43</ele>
        <time>2019-08-17T15:40:49Z</time>
      </trkpt>
      <trkpt lat="59.161732" lon="18.128261">
        <ele>43</ele>
        <time>2019-08-17T15:40:50Z</time>
      </trkpt>
      <trkpt lat="59.161769" lon="18.128298">
        <ele>43</ele>
        <time>2019-08-17T15:40:51Z</time>
      </trkpt>
      <trkpt lat="59.161805" lon="18.128348">
        <ele>43</ele>
        <time>2019-08-17T15:40:52Z</time>
      </trkpt>
      <trkpt lat="59.161839" lon="18.128412">
        <ele>43</ele>
        <time>2019-08-17T15:40:53Z</time>
      </trkpt>
      <trkpt lat="59.16187" lon="18.12847">
        <ele>43</ele>
        <time>2019-08-17T15:40:54Z</time>
      </trkpt>
      <trkpt lat="59.161896" lon="18.12851">
        <ele>43</ele>
        <time>2019-08-17T15:40:55Z</time>
      </trkpt>
      <trkpt lat="59.16192" lon="18.128548">
        <ele>43</ele>
        <time>2019-08-17T15:40:56Z</time>
      </trkpt>
      <trkpt lat="59.161945" lon="18.128588">
        <ele>43</ele>
        <time>2019-08-17T15:40:57Z</time>
      </trkpt>
      <trkpt lat="59.161968" lon="18.128643">
        <ele>43</ele>
        <time>2019-08-17T15:40:58Z</time>
      </trkpt>
      <trkpt lat="59.16199" lon="18.1287">
        <ele>43</ele>
        <time>2019-08-17T15:40:59Z</time>
      </trkpt>
      <trkpt lat="59.162012" lon="18.12876">
        <ele>43</ele>
        <time>2019-08-17T15:41:00Z</time>
      </trkpt>
      <trkpt lat="59.162034" lon="18.128821">
        <ele>43</ele>
        <time>2019-08-17T15:41:01Z</time>
      </trkpt>
      <trkpt lat="59.162057" lon="18.128881">
        <ele>43</ele>
        <time>2019-08-17T15:41:02Z</time>
      </trkpt>
      <trkpt lat="59.162076" lon="18.128937">
        <ele>43</ele>
        <time>2019-08-17T15:41:03Z</time>
      </trkpt>
      <trkpt lat="59.162094" lon="18.128994">
        <ele>43</ele>
        <time>2019-08-17T15:41:04Z</time>
      </trkpt>
      <trkpt lat="59.162108" lon="18.129049">
        <ele>43</ele>
        <time>2019-08-17T15:41:05Z</time>
      </trkpt>
      <trkpt lat="59.162119" lon="18.129101">
        <ele>43</ele>
        <time>2019-08-17T15:41:06Z</time>
      </trkpt>
      <trkpt lat="59.16213" lon="18.129149">
        <ele>43</ele>
        <time>2019-08-17T15:41:07Z</time>
      </trkpt>
      <trkpt lat="59.16214" lon="18.129196">
        <ele>43</ele>
        <time>2019-08-17T15:41:08Z</time>
      </trkpt>
      <trkpt lat="59.162149" lon="18.129246">
        <ele>43</ele>
        <time>2019-08-17T15:41:09Z</time>
      </trkpt>
      <trkpt lat="59.162155" lon="18.129302">
        <ele>43</ele>
        <time>2019-08-17T15:41:10Z</time>
      </trkpt>
      <trkpt lat="59.162157" lon="18.129361">
        <ele>43</ele>
        <time>2019-08-17T15:41:11Z</time>
      </trkpt>
      <trkpt lat="59.162154" lon="18.12942">
        <ele>43</ele>
        <time>2019-08-17T15:41:12Z</time>
      </trkpt>
      <trkpt lat="59.162149" lon="18.129479">
        <ele>43</ele>
        <time>2019-08-17T15:41:13Z</time>
      </trkpt>
      <trkpt lat="59.16214" lon="18.129538">
        <ele>43</ele>
        <time>2019-08-17T15:41:14Z</time>
      </trkpt>
      <trkpt lat="59.16213" lon="18.129599">
        <ele>43</ele>
        <time>2019-08-17T15:41:15Z</time>
      </trkpt>
      <trkpt lat="59.162118" lon="18.129659">
        <ele>43</ele>
        <time>2019-08-17T15:41:16Z</time>
      </trkpt>
      <trkpt lat="59.162105" lon="18.129717">
        <ele>43</ele>
        <time>2019-08-17T15:41:17Z</time>
      </trkpt>
      <trkpt lat="59.162091" lon="18.129773">
        <ele>43</ele>
        <time>2019-08-17T15:41:18Z</time>
      </trkpt>
      <trkpt lat="59.162078" lon="18.129828">
        <ele>42</ele>
        <time>2019-08-17T15:41:19Z</time>
      </trkpt>
      <trkpt lat="59.162068" lon="18.129875">
        <ele>42</ele>
        <time>2019-08-17T15:41:20Z</time>
      </trkpt>
      <trkpt lat="59.162057" lon="18.129921">
        <ele>42</ele>
        <time>2019-08-17T15:41:21Z</time>
      </trkpt>
      <trkpt lat="59.162048" lon="18.129971">
        <ele>42</ele>
        <time>2019-08-17T15:41:22Z</time>
      </trkpt>
      <trkpt lat="59.162044" lon="18.130027">
        <ele>42</ele>
        <time>2019-08-17T15:41:23Z</time>
      </trkpt>
      <trkpt lat="59.16204" lon="18.130086">
        <ele>42</ele>
        <time>2019-08-17T15:41:24Z</time>
      </trkpt>
      <trkpt lat="59.16204" lon="18.130139">
        <ele>42</ele>
        <time>2019-08-17T15:41:25Z</time>
      </trkpt>
      <trkpt lat="59.16205" lon="18.130186">
        <ele>42</ele>
        <time>2019-08-17T15:41:26Z</time>
      </trkpt>
      <trkpt lat="59.162062" lon="18.130229">
        <ele>42</ele>
        <time>2019-08-17T15:41:27Z</time>
      </trkpt>
      <trkpt lat="59.162077" lon="18.130268">
        <ele>42</ele>
        <time>2019-08-17T15:41:28Z</time>
      </trkpt>
      <trkpt lat="59.162094" lon="18.130303">
        <ele>42</ele>
        <time>2019-08-17T15:41:29Z</time>
      </trkpt>
      <trkpt lat="59.162114" lon="18.130332">
        <ele>42</ele>
        <time>2019-08-17T15:41:30Z</time>
      </trkpt>
      <trkpt lat="59.162136" lon="18.130355">
        <ele>41</ele>
        <time>2019-08-17T15:41:31Z</time>
      </trkpt>
      <trkpt lat="59.162159" lon="18.130374">
        <ele>41</ele>
        <time>2019-08-17T15:41:32Z</time>
      </trkpt>
      <trkpt lat="59.162182" lon="18.130388">
        <ele>41</ele>
        <time>2019-08-17T15:41:33Z</time>
      </trkpt>
      <trkpt lat="59.162205" lon="18.130397">
        <ele>41</ele>
        <time>2019-08-17T15:41:34Z</time>
      </trkpt>
      <trkpt lat="59.162225" lon="18.130403">
        <ele>40</ele>
        <time>2019-08-17T15:41:35Z</time>
      </trkpt>
      <trkpt lat="59.162254" lon="18.130412">
        <ele>40</ele>
        <time>2019-08-17T15:41:37Z</time>
      </trkpt>
      <trkpt lat="59.162279" lon="18.130428">
        <ele>40</ele>
        <time>2019-08-17T15:41:39Z</time>
      </trkpt>
      <trkpt lat="59.162297" lon="18.13045">
        <ele>40</ele>
        <time>2019-08-17T15:41:41Z</time>
      </trkpt>
      <trkpt lat="59.162312" lon="18.130484">
        <ele>39</ele>
        <time>2019-08-17T15:41:43Z</time>
      </trkpt>
      <trkpt lat="59.162324" lon="18.130523">
        <ele>39</ele>
        <time>2019-08-17T15:41:45Z</time>
      </trkpt>
      <trkpt lat="59.162329" lon="18.13052">
        <ele>39</ele>
        <time>2019-08-17T15:41:48Z</time>
      </trkpt>
      <trkpt lat="59.162385" lon="18.13056">
        <ele>38</ele>
        <time>2019-08-17T15:53:56Z</time>
      </trkpt>
      <trkpt lat="59.162403" lon="18.130569">
        <ele>38</ele>
        <time>2019-08-17T15:53:57Z</time>
      </trkpt>
      <trkpt lat="59.162421" lon="18.130567">
        <ele>38</ele>
        <time>2019-08-17T15:53:59Z</time>
      </trkpt>
      <trkpt lat="59.162441" lon="18.130578">
        <ele>38</ele>
        <time>2019-08-17T15:54:02Z</time>
      </trkpt>
      <trkpt lat="59.162456" lon="18.130596">
        <ele>38</ele>
        <time>2019-08-17T15:54:04Z</time>
      </trkpt>
      <trkpt lat="59.162476" lon="18.130607">
        <ele>38</ele>
        <time>2019-08-17T15:54:06Z</time>
      </trkpt>
      <trkpt lat="59.162495" lon="18.130618">
        <ele>38</ele>
        <time>2019-08-17T15:54:08Z</time>
      </trkpt>
      <trkpt lat="59.162518" lon="18.130634">
        <ele>38</ele>
        <time>2019-08-17T15:54:10Z</time>
      </trkpt>
      <trkpt lat="59.162555" lon="18.130657">
        <ele>38</ele>
        <time>2019-08-17T15:54:12Z</time>
      </trkpt>
      <trkpt lat="59.16258" lon="18.130668">
        <ele>39</ele>
        <time>2019-08-17T15:54:13Z</time>
      </trkpt>
      <trkpt lat="59.162602" lon="18.130677">
        <ele>39</ele>
        <time>2019-08-17T15:54:14Z</time>
      </trkpt>
      <trkpt lat="59.162623" lon="18.130686">
        <ele>39</ele>
        <time>2019-08-17T15:54:15Z</time>
      </trkpt>
      <trkpt lat="59.162649" lon="18.130694">
        <ele>39</ele>
        <time>2019-08-17T15:54:16Z</time>
      </trkpt>
      <trkpt lat="59.162677" lon="18.130703">
        <ele>39</ele>
        <time>2019-08-17T15:54:17Z</time>
      </trkpt>
      <trkpt lat="59.1627" lon="18.130711">
        <ele>39</ele>
        <time>2019-08-17T15:54:18Z</time>
      </trkpt>
      <trkpt lat="59.16272" lon="18.130717">
        <ele>39</ele>
        <time>2019-08-17T15:54:19Z</time>
      </trkpt>
      <trkpt lat="59.162742" lon="18.130717">
        <ele>39</ele>
        <time>2019-08-17T15:54:20Z</time>
      </trkpt>
      <trkpt lat="59.162768" lon="18.130715">
        <ele>39</ele>
        <time>2019-08-17T15:54:21Z</time>
      </trkpt>
      <trkpt lat="59.162792" lon="18.130712">
        <ele>39</ele>
        <time>2019-08-17T15:54:22Z</time>
      </trkpt>
      <trkpt lat="59.162816" lon="18.130712">
        <ele>39</ele>
        <time>2019-08-17T15:54:23Z</time>
      </trkpt>
      <trkpt lat="59.16284" lon="18.130708">
        <ele>39</ele>
        <time>2019-08-17T15:54:24Z</time>
      </trkpt>
      <trkpt lat="59.162864" lon="18.130699">
        <ele>39</ele>
        <time>2019-08-17T15:54:25Z</time>
      </trkpt>
      <trkpt lat="59.162887" lon="18.130689">
        <ele>39</ele>
        <time>2019-08-17T15:54:26Z</time>
      </trkpt>
      <trkpt lat="59.16291" lon="18.130678">
        <ele>39</ele>
        <time>2019-08-17T15:54:27Z</time>
      </trkpt>
      <trkpt lat="59.162935" lon="18.130672">
        <ele>39</ele>
        <time>2019-08-17T15:54:28Z</time>
      </trkpt>
      <trkpt lat="59.162961" lon="18.130673">
        <ele>39</ele>
        <time>2019-08-17T15:54:29Z</time>
      </trkpt>
      <trkpt lat="59.162984" lon="18.130676">
        <ele>39</ele>
        <time>2019-08-17T15:54:30Z</time>
      </trkpt>
      <trkpt lat="59.163005" lon="18.130678">
        <ele>39</ele>
        <time>2019-08-17T15:54:31Z</time>
      </trkpt>
      <trkpt lat="59.16303" lon="18.13068">
        <ele>39</ele>
        <time>2019-08-17T15:54:32Z</time>
      </trkpt>
      <trkpt lat="59.163057" lon="18.130683">
        <ele>39</ele>
        <time>2019-08-17T15:54:33Z</time>
      </trkpt>
      <trkpt lat="59.16308" lon="18.13069">
        <ele>39</ele>
        <time>2019-08-17T15:54:34Z</time>
      </trkpt>
      <trkpt lat="59.163103" lon="18.130693">
        <ele>39</ele>
        <time>2019-08-17T15:54:35Z</time>
      </trkpt>
      <trkpt lat="59.163131" lon="18.130684">
        <ele>39</ele>
        <time>2019-08-17T15:54:36Z</time>
      </trkpt>
      <trkpt lat="59.163165" lon="18.130665">
        <ele>39</ele>
        <time>2019-08-17T15:54:37Z</time>
      </trkpt>
      <trkpt lat="59.1632" lon="18.130643">
        <ele>39</ele>
        <time>2019-08-17T15:54:38Z</time>
      </trkpt>
      <trkpt lat="59.163236" lon="18.130617">
        <ele>39</ele>
        <time>2019-08-17T15:54:39Z</time>
      </trkpt>
      <trkpt lat="59.163274" lon="18.130587">
        <ele>39</ele>
        <time>2019-08-17T15:54:40Z</time>
      </trkpt>
      <trkpt lat="59.163313" lon="18.130553">
        <ele>39</ele>
        <time>2019-08-17T15:54:41Z</time>
      </trkpt>
      <trkpt lat="59.163352" lon="18.130522">
        <ele>39</ele>
        <time>2019-08-17T15:54:42Z</time>
      </trkpt>
      <trkpt lat="59.16339" lon="18.130497">
        <ele>39</ele>
        <time>2019-08-17T15:54:43Z</time>
      </trkpt>
      <trkpt lat="59.163423" lon="18.130475">
        <ele>39</ele>
        <time>2019-08-17T15:54:44Z</time>
      </trkpt>
      <trkpt lat="59.16345" lon="18.13046">
        <ele>39</ele>
        <time>2019-08-17T15:54:45Z</time>
      </trkpt>
      <trkpt lat="59.16347" lon="18.130449">
        <ele>39</ele>
        <time>2019-08-17T15:54:46Z</time>
      </trkpt>
      <trkpt lat="59.163504" lon="18.130433">
        <ele>39</ele>
        <time>2019-08-17T15:54:48Z</time>
      </trkpt>
      <trkpt lat="59.163523" lon="18.130425">
        <ele>39</ele>
        <time>2019-08-17T15:54:49Z</time>
      </trkpt>
      <trkpt lat="59.163544" lon="18.130416">
        <ele>39</ele>
        <time>2019-08-17T15:54:50Z</time>
      </trkpt>
      <trkpt lat="59.163565" lon="18.130407">
        <ele>39</ele>
        <time>2019-08-17T15:54:51Z</time>
      </trkpt>
      <trkpt lat="59.163587" lon="18.130397">
        <ele>39</ele>
        <time>2019-08-17T15:54:52Z</time>
      </trkpt>
      <trkpt lat="59.163609" lon="18.130386">
        <ele>39</ele>
        <time>2019-08-17T15:54:53Z</time>
      </trkpt>
      <trkpt lat="59.163634" lon="18.130374">
        <ele>39</ele>
        <time>2019-08-17T15:54:54Z</time>
      </trkpt>
      <trkpt lat="59.163658" lon="18.130362">
        <ele>39</ele>
        <time>2019-08-17T15:54:55Z</time>
      </trkpt>
      <trkpt lat="59.163683" lon="18.130351">
        <ele>39</ele>
        <time>2019-08-17T15:54:56Z</time>
      </trkpt>
      <trkpt lat="59.163708" lon="18.13034">
        <ele>39</ele>
        <time>2019-08-17T15:54:57Z</time>
      </trkpt>
      <trkpt lat="59.163733" lon="18.13033">
        <ele>39</ele>
        <time>2019-08-17T15:54:58Z</time>
      </trkpt>
      <trkpt lat="59.163758" lon="18.130318">
        <ele>39</ele>
        <time>2019-08-17T15:54:59Z</time>
      </trkpt>
      <trkpt lat="59.163785" lon="18.130306">
        <ele>39</ele>
        <time>2019-08-17T15:55:00Z</time>
      </trkpt>
      <trkpt lat="59.163812" lon="18.130295">
        <ele>39</ele>
        <time>2019-08-17T15:55:01Z</time>
      </trkpt>
      <trkpt lat="59.16384" lon="18.130283">
        <ele>39</ele>
        <time>2019-08-17T15:55:02Z</time>
      </trkpt>
      <trkpt lat="59.163868" lon="18.13027">
        <ele>39</ele>
        <time>2019-08-17T15:55:03Z</time>
      </trkpt>
      <trkpt lat="59.163896" lon="18.130257">
        <ele>39</ele>
        <time>2019-08-17T15:55:04Z</time>
      </trkpt>
      <trkpt lat="59.163924" lon="18.130243">
        <ele>39</ele>
        <time>2019-08-17T15:55:05Z</time>
      </trkpt>
      <trkpt lat="59.163953" lon="18.13023">
        <ele>39</ele>
        <time>2019-08-17T15:55:06Z</time>
      </trkpt>
      <trkpt lat="59.163982" lon="18.130219">
        <ele>39</ele>
        <time>2019-08-17T15:55:07Z</time>
      </trkpt>
      <trkpt lat="59.164013" lon="18.130207">
        <ele>39</ele>
        <time>2019-08-17T15:55:08Z</time>
      </trkpt>
      <trkpt lat="59.164043" lon="18.130196">
        <ele>39</ele>
        <time>2019-08-17T15:55:09Z</time>
      </trkpt>
      <trkpt lat="59.164074" lon="18.130184">
        <ele>39</ele>
        <time>2019-08-17T15:55:10Z</time>
      </trkpt>
      <trkpt lat="59.164105" lon="18.130175">
        <ele>39</ele>
        <time>2019-08-17T15:55:11Z</time>
      </trkpt>
      <trkpt lat="59.164136" lon="18.130164">
        <ele>39</ele>
        <time>2019-08-17T15:55:12Z</time>
      </trkpt>
      <trkpt lat="59.164166" lon="18.130155">
        <ele>39</ele>
        <time>2019-08-17T15:55:13Z</time>
      </trkpt>
      <trkpt lat="59.164197" lon="18.130147">
        <ele>39</ele>
        <time>2019-08-17T15:55:14Z</time>
      </trkpt>
      <trkpt lat="59.164228" lon="18.130139">
        <ele>39</ele>
        <time>2019-08-17T15:55:15Z</time>
      </trkpt>
      <trkpt lat="59.164259" lon="18.130134">
        <ele>39</ele>
        <time>2019-08-17T15:55:16Z</time>
      </trkpt>
      <trkpt lat="59.16429" lon="18.130131">
        <ele>39</ele>
        <time>2019-08-17T15:55:17Z</time>
      </trkpt>
      <trkpt lat="59.164322" lon="18.13013">
        <ele>39</ele>
        <time>2019-08-17T15:55:18Z</time>
      </trkpt>
      <trkpt lat="59.164353" lon="18.130131">
        <ele>39</ele>
        <time>2019-08-17T15:55:19Z</time>
      </trkpt>
      <trkpt lat="59.164385" lon="18.130131">
        <ele>39</ele>
        <time>2019-08-17T15:55:20Z</time>
      </trkpt>
      <trkpt lat="59.164416" lon="18.130133">
        <ele>40</ele>
        <time>2019-08-17T15:55:21Z</time>
      </trkpt>
      <trkpt lat="59.164447" lon="18.130136">
        <ele>40</ele>
        <time>2019-08-17T15:55:22Z</time>
      </trkpt>
      <trkpt lat="59.164479" lon="18.130141">
        <ele>40</ele>
        <time>2019-08-17T15:55:23Z</time>
      </trkpt>
      <trkpt lat="59.164511" lon="18.130147">
        <ele>40</ele>
        <time>2019-08-17T15:55:24Z</time>
      </trkpt>
      <trkpt lat="59.164542" lon="18.130154">
        <ele>40</ele>
        <time>2019-08-17T15:55:25Z</time>
      </trkpt>
      <trkpt lat="59.164573" lon="18.130161">
        <ele>40</ele>
        <time>2019-08-17T15:55:26Z</time>
      </trkpt>
      <trkpt lat="59.164604" lon="18.130169">
        <ele>40</ele>
        <time>2019-08-17T15:55:27Z</time>
      </trkpt>
      <trkpt lat="59.164635" lon="18.130176">
        <ele>40</ele>
        <time>2019-08-17T15:55:28Z</time>
      </trkpt>
      <trkpt lat="59.164665" lon="18.130183">
        <ele>40</ele>
        <time>2019-08-17T15:55:29Z</time>
      </trkpt>
      <trkpt lat="59.164694" lon="18.130191">
        <ele>40</ele>
        <time>2019-08-17T15:55:30Z</time>
      </trkpt>
      <trkpt lat="59.164722" lon="18.130199">
        <ele>40</ele>
        <time>2019-08-17T15:55:31Z</time>
      </trkpt>
      <trkpt lat="59.164749" lon="18.130207">
        <ele>40</ele>
        <time>2019-08-17T15:55:32Z</time>
      </trkpt>
      <trkpt lat="59.164774" lon="18.130216">
        <ele>41</ele>
        <time>2019-08-17T15:55:33Z</time>
      </trkpt>
      <trkpt lat="59.164798" lon="18.130234">
        <ele>41</ele>
        <time>2019-08-17T15:55:34Z</time>
      </trkpt>
      <trkpt lat="59.16482" lon="18.130263">
        <ele>41</ele>
        <time>2019-08-17T15:55:35Z</time>
      </trkpt>
      <trkpt lat="59.164833" lon="18.130309">
        <ele>41</ele>
        <time>2019-08-17T15:55:36Z</time>
      </trkpt>
      <trkpt lat="59.164834" lon="18.13036">
        <ele>41</ele>
        <time>2019-08-17T15:55:37Z</time>
      </trkpt>
      <trkpt lat="59.16483" lon="18.130414">
        <ele>41</ele>
        <time>2019-08-17T15:55:38Z</time>
      </trkpt>
      <trkpt lat="59.164824" lon="18.130472">
        <ele>41</ele>
        <time>2019-08-17T15:55:39Z</time>
      </trkpt>
      <trkpt lat="59.164816" lon="18.130537">
        <ele>41</ele>
        <time>2019-08-17T15:55:40Z</time>
      </trkpt>
      <trkpt lat="59.164808" lon="18.130607">
        <ele>40</ele>
        <time>2019-08-17T15:55:41Z</time>
      </trkpt>
      <trkpt lat="59.1648" lon="18.130684">
        <ele>40</ele>
        <time>2019-08-17T15:55:42Z</time>
      </trkpt>
      <trkpt lat="59.164792" lon="18.130763">
        <ele>40</ele>
        <time>2019-08-17T15:55:43Z</time>
      </trkpt>
      <trkpt lat="59.164783" lon="18.130842">
        <ele>40</ele>
        <time>2019-08-17T15:55:44Z</time>
      </trkpt>
      <trkpt lat="59.164774" lon="18.130918">
        <ele>40</ele>
        <time>2019-08-17T15:55:45Z</time>
      </trkpt>
      <trkpt lat="59.164765" lon="18.13099">
        <ele>40</ele>
        <time>2019-08-17T15:55:46Z</time>
      </trkpt>
      <trkpt lat="59.164755" lon="18.131059">
        <ele>40</ele>
        <time>2019-08-17T15:55:47Z</time>
      </trkpt>
      <trkpt lat="59.164745" lon="18.131124">
        <ele>40</ele>
        <time>2019-08-17T15:55:48Z</time>
      </trkpt>
      <trkpt lat="59.164736" lon="18.131186">
        <ele>40</ele>
        <time>2019-08-17T15:55:49Z</time>
      </trkpt>
      <trkpt lat="59.164729" lon="18.131247">
        <ele>40</ele>
        <time>2019-08-17T15:55:50Z</time>
      </trkpt>
      <trkpt lat="59.164722" lon="18.131306">
        <ele>40</ele>
        <time>2019-08-17T15:55:51Z</time>
      </trkpt>
      <trkpt lat="59.164714" lon="18.131363">
        <ele>40</ele>
        <time>2019-08-17T15:55:52Z</time>
      </trkpt>
      <trkpt lat="59.164706" lon="18.131416">
        <ele>40</ele>
        <time>2019-08-17T15:55:53Z</time>
      </trkpt>
      <trkpt lat="59.164697" lon="18.131466">
        <ele>40</ele>
        <time>2019-08-17T15:55:54Z</time>
      </trkpt>
      <trkpt lat="59.16469" lon="18.131514">
        <ele>40</ele>
        <time>2019-08-17T15:55:55Z</time>
      </trkpt>
      <trkpt lat="59.164683" lon="18.131561">
        <ele>40</ele>
        <time>2019-08-17T15:55:56Z</time>
      </trkpt>
      <trkpt lat="59.164676" lon="18.131606">
        <ele>40</ele>
        <time>2019-08-17T15:55:57Z</time>
      </trkpt>
      <trkpt lat="59.164668" lon="18.131651">
        <ele>40</ele>
        <time>2019-08-17T15:55:58Z</time>
      </trkpt>
      <trkpt lat="59.164659" lon="18.131695">
        <ele>40</ele>
        <time>2019-08-17T15:55:59Z</time>
      </trkpt>
      <trkpt lat="59.164649" lon="18.131738">
        <ele>40</ele>
        <time>2019-08-17T15:56:00Z</time>
      </trkpt>
      <trkpt lat="59.164639" lon="18.13178">
        <ele>40</ele>
        <time>2019-08-17T15:56:01Z</time>
      </trkpt>
      <trkpt lat="59.164631" lon="18.131822">
        <ele>40</ele>
        <time>2019-08-17T15:56:02Z</time>
      </trkpt>
      <trkpt lat="59.164624" lon="18.131861">
        <ele>40</ele>
        <time>2019-08-17T15:56:03Z</time>
      </trkpt>
      <trkpt lat="59.164617" lon="18.131899">
        <ele>40</ele>
        <time>2019-08-17T15:56:04Z</time>
      </trkpt>
      <trkpt lat="59.164613" lon="18.131938">
        <ele>40</ele>
        <time>2019-08-17T15:56:05Z</time>
      </trkpt>
      <trkpt lat="59.164612" lon="18.13198">
        <ele>40</ele>
        <time>2019-08-17T15:56:06Z</time>
      </trkpt>
      <trkpt lat="59.164619" lon="18.132028">
        <ele>40</ele>
        <time>2019-08-17T15:56:07Z</time>
      </trkpt>
      <trkpt lat="59.164635" lon="18.132094">
        <ele>40</ele>
        <time>2019-08-17T15:56:08Z</time>
      </trkpt>
      <trkpt lat="59.164654" lon="18.132174">
        <ele>40</ele>
        <time>2019-08-17T15:56:09Z</time>
      </trkpt>
      <trkpt lat="59.164672" lon="18.132254">
        <ele>40</ele>
        <time>2019-08-17T15:56:10Z</time>
      </trkpt>
      <trkpt lat="59.164686" lon="18.132329">
        <ele>40</ele>
        <time>2019-08-17T15:56:11Z</time>
      </trkpt>
      <trkpt lat="59.164702" lon="18.132407">
        <ele>40</ele>
        <time>2019-08-17T15:56:12Z</time>
      </trkpt>
      <trkpt lat="59.164714" lon="18.132485">
        <ele>40</ele>
        <time>2019-08-17T15:56:13Z</time>
      </trkpt>
      <trkpt lat="59.164728" lon="18.132558">
        <ele>40</ele>
        <time>2019-08-17T15:56:14Z</time>
      </trkpt>
      <trkpt lat="59.164746" lon="18.132612">
        <ele>40</ele>
        <time>2019-08-17T15:56:15Z</time>
      </trkpt>
      <trkpt lat="59.164769" lon="18.132647">
        <ele>40</ele>
        <time>2019-08-17T15:56:16Z</time>
      </trkpt>
      <trkpt lat="59.164797" lon="18.13267">
        <ele>41</ele>
        <time>2019-08-17T15:56:17Z</time>
      </trkpt>
      <trkpt lat="59.164824" lon="18.132689">
        <ele>41</ele>
        <time>2019-08-17T15:56:18Z</time>
      </trkpt>
      <trkpt lat="59.164853" lon="18.132706">
        <ele>41</ele>
        <time>2019-08-17T15:56:19Z</time>
      </trkpt>
      <trkpt lat="59.164881" lon="18.132721">
        <ele>41</ele>
        <time>2019-08-17T15:56:20Z</time>
      </trkpt>
      <trkpt lat="59.16491" lon="18.132737">
        <ele>41</ele>
        <time>2019-08-17T15:56:21Z</time>
      </trkpt>
      <trkpt lat="59.164935" lon="18.13275">
        <ele>41</ele>
        <time>2019-08-17T15:56:22Z</time>
      </trkpt>
      <trkpt lat="59.164957" lon="18.132763">
        <ele>41</ele>
        <time>2019-08-17T15:56:23Z</time>
      </trkpt>
      <trkpt lat="59.164981" lon="18.132745">
        <ele>41</ele>
        <time>2019-08-17T15:56:24Z</time>
      </trkpt>
      <trkpt lat="59.164999" lon="18.132727">
        <ele>41</ele>
        <time>2019-08-17T15:56:25Z</time>
      </trkpt>
      <trkpt lat="59.165033" lon="18.13272">
        <ele>42</ele>
        <time>2019-08-17T15:56:27Z</time>
      </trkpt>
      <trkpt lat="59.165057" lon="18.132732">
        <ele>42</ele>
        <time>2019-08-17T15:56:28Z</time>
      </trkpt>
      <trkpt lat="59.165076" lon="18.132764">
        <ele>42</ele>
        <time>2019-08-17T15:56:29Z</time>
      </trkpt>
      <trkpt lat="59.165098" lon="18.132802">
        <ele>42</ele>
        <time>2019-08-17T15:56:30Z</time>
      </trkpt>
      <trkpt lat="59.165113" lon="18.132849">
        <ele>42</ele>
        <time>2019-08-17T15:56:32Z</time>
      </trkpt>
      <trkpt lat="59.165101" lon="18.132889">
        <ele>42</ele>
        <time>2019-08-17T15:56:34Z</time>
      </trkpt>
      <trkpt lat="59.165088" lon="18.132926">
        <ele>42</ele>
        <time>2019-08-17T15:56:35Z</time>
      </trkpt>
      <trkpt lat="59.165074" lon="18.132969">
        <ele>41</ele>
        <time>2019-08-17T15:56:36Z</time>
      </trkpt>
      <trkpt lat="59.165058" lon="18.133009">
        <ele>41</ele>
        <time>2019-08-17T15:56:39Z</time>
      </trkpt>
      <trkpt lat="59.165042" lon="18.132961">
        <ele>41</ele>
        <time>2019-08-17T15:56:41Z</time>
      </trkpt>
      <trkpt lat="59.165027" lon="18.132912">
        <ele>42</ele>
        <time>2019-08-17T15:56:42Z</time>
      </trkpt>
      <trkpt lat="59.165021" lon="18.132869">
        <ele>42</ele>
        <time>2019-08-17T15:56:43Z</time>
      </trkpt>
      <trkpt lat="59.16502" lon="18.13283">
        <ele>43</ele>
        <time>2019-08-17T15:56:44Z</time>
      </trkpt>
      <trkpt lat="59.16503" lon="18.132779">
        <ele>44</ele>
        <time>2019-08-17T15:56:45Z</time>
      </trkpt>
      <trkpt lat="59.165044" lon="18.13274">
        <ele>44</ele>
        <time>2019-08-17T15:56:46Z</time>
      </trkpt>
      <trkpt lat="59.165064" lon="18.132714">
        <ele>44</ele>
        <time>2019-08-17T15:56:47Z</time>
      </trkpt>
      <trkpt lat="59.165096" lon="18.132717">
        <ele>45</ele>
        <time>2019-08-17T15:56:49Z</time>
      </trkpt>
      <trkpt lat="59.165125" lon="18.132757">
        <ele>45</ele>
        <time>2019-08-17T15:56:51Z</time>
      </trkpt>
      <trkpt lat="59.165144" lon="18.132814">
        <ele>46</ele>
        <time>2019-08-17T15:56:53Z</time>
      </trkpt>
      <trkpt lat="59.165143" lon="18.132874">
        <ele>46</ele>
        <time>2019-08-17T15:56:55Z</time>
      </trkpt>
      <trkpt lat="59.165133" lon="18.132928">
        <ele>46</ele>
        <time>2019-08-17T15:56:57Z</time>
      </trkpt>
      <trkpt lat="59.165116" lon="18.132949">
        <ele>46</ele>
        <time>2019-08-17T15:56:58Z</time>
      </trkpt>
      <trkpt lat="59.165081" lon="18.132962">
        <ele>46</ele>
        <time>2019-08-17T15:57:00Z</time>
      </trkpt>
      <trkpt lat="59.165059" lon="18.132959">
        <ele>46</ele>
        <time>2019-08-17T15:57:01Z</time>
      </trkpt>
      <trkpt lat="59.165039" lon="18.13295">
        <ele>46</ele>
        <time>2019-08-17T15:57:02Z</time>
      </trkpt>
      <trkpt lat="59.165019" lon="18.132941">
        <ele>46</ele>
        <time>2019-08-17T15:57:03Z</time>
      </trkpt>
      <trkpt lat="59.164998" lon="18.132934">
        <ele>46</ele>
        <time>2019-08-17T15:57:04Z</time>
      </trkpt>
      <trkpt lat="59.164979" lon="18.132924">
        <ele>46</ele>
        <time>2019-08-17T15:57:05Z</time>
      </trkpt>
      <trkpt lat="59.164948" lon="18.132909">
        <ele>47</ele>
        <time>2019-08-17T15:57:07Z</time>
      </trkpt>
      <trkpt lat="59.164924" lon="18.132898">
        <ele>47</ele>
        <time>2019-08-17T15:57:10Z</time>
      </trkpt>
      <trkpt lat="59.1649" lon="18.132907">
        <ele>47</ele>
        <time>2019-08-17T15:57:13Z</time>
      </trkpt>
      <trkpt lat="59.164874" lon="18.132916">
        <ele>47</ele>
        <time>2019-08-17T15:57:16Z</time>
      </trkpt>
      <trkpt lat="59.164851" lon="18.132933">
        <ele>46</ele>
        <time>2019-08-17T15:57:19Z</time>
      </trkpt>
      <trkpt lat="59.164828" lon="18.132966">
        <ele>45</ele>
        <time>2019-08-17T15:57:21Z</time>
      </trkpt>
      <trkpt lat="59.164831" lon="18.133006">
        <ele>45</ele>
        <time>2019-08-17T15:57:23Z</time>
      </trkpt>
      <trkpt lat="59.16485" lon="18.133184">
        <ele>45</ele>
        <time>2019-08-17T15:57:27Z</time>
      </trkpt>
      <trkpt lat="59.16485" lon="18.133248">
        <ele>45</ele>
        <time>2019-08-17T15:57:28Z</time>
      </trkpt>
      <trkpt lat="59.164849" lon="18.133287">
        <ele>45</ele>
        <time>2019-08-17T15:57:29Z</time>
      </trkpt>
      <trkpt lat="59.164845" lon="18.133327">
        <ele>45</ele>
        <time>2019-08-17T15:57:30Z</time>
      </trkpt>
      <trkpt lat="59.164834" lon="18.133365">
        <ele>45</ele>
        <time>2019-08-17T15:57:31Z</time>
      </trkpt>
      <trkpt lat="59.164827" lon="18.133405">
        <ele>45</ele>
        <time>2019-08-17T15:57:32Z</time>
      </trkpt>
      <trkpt lat="59.164769" lon="18.133569">
        <ele>44</ele>
        <time>2019-08-17T15:57:37Z</time>
      </trkpt>
      <trkpt lat="59.16474" lon="18.133764">
        <ele>43</ele>
        <time>2019-08-17T15:57:41Z</time>
      </trkpt>
      <trkpt lat="59.164737" lon="18.133934">
        <ele>43</ele>
        <time>2019-08-17T15:57:43Z</time>
      </trkpt>
      <trkpt lat="59.164732" lon="18.13398">
        <ele>43</ele>
        <time>2019-08-17T15:57:44Z</time>
      </trkpt>
      <trkpt lat="59.16473" lon="18.133941">
        <ele>48</ele>
        <time>2019-08-17T15:57:53Z</time>
      </trkpt>
      <trkpt lat="59.164746" lon="18.133922">
        <ele>49</ele>
        <time>2019-08-17T15:57:56Z</time>
      </trkpt>
      <trkpt lat="59.164766" lon="18.133904">
        <ele>50</ele>
        <time>2019-08-17T15:57:59Z</time>
      </trkpt>
      <trkpt lat="59.164785" lon="18.133875">
        <ele>51</ele>
        <time>2019-08-17T15:58:02Z</time>
      </trkpt>
      <trkpt lat="59.164802" lon="18.133855">
        <ele>52</ele>
        <time>2019-08-17T15:58:05Z</time>
      </trkpt>
      <trkpt lat="59.164796" lon="18.133818">
        <ele>53</ele>
        <time>2019-08-17T15:58:09Z</time>
      </trkpt>
      <trkpt lat="59.164789" lon="18.133785">
        <ele>53</ele>
        <time>2019-08-17T15:58:13Z</time>
      </trkpt>
      <trkpt lat="59.164792" lon="18.133759">
        <ele>52</ele>
        <time>2019-08-17T15:58:18Z</time>
      </trkpt>
      <trkpt lat="59.164818" lon="18.1337">
        <ele>0</ele>
        <time>2019-08-17T15:58:24Z</time>
      </trkpt>
      <trkpt lat="59.16486" lon="18.133687">
        <ele>48</ele>
        <time>2019-08-17T15:58:25Z</time>
      </trkpt>
      <trkpt lat="59.164888" lon="18.133685">
        <ele>48</ele>
        <time>2019-08-17T15:58:26Z</time>
      </trkpt>
      <trkpt lat="59.164919" lon="18.133687">
        <ele>47</ele>
        <time>2019-08-17T15:58:27Z</time>
      </trkpt>
      <trkpt lat="59.164953" lon="18.133695">
        <ele>47</ele>
        <time>2019-08-17T15:58:28Z</time>
      </trkpt>
      <trkpt lat="59.164987" lon="18.133708">
        <ele>47</ele>
        <time>2019-08-17T15:58:29Z</time>
      </trkpt>
      <trkpt lat="59.165021" lon="18.133723">
        <ele>47</ele>
        <time>2019-08-17T15:58:30Z</time>
      </trkpt>
      <trkpt lat="59.165058" lon="18.133741">
        <ele>47</ele>
        <time>2019-08-17T15:58:31Z</time>
      </trkpt>
      <trkpt lat="59.165097" lon="18.133763">
        <ele>47</ele>
        <time>2019-08-17T15:58:32Z</time>
      </trkpt>
      <trkpt lat="59.165135" lon="18.133787">
        <ele>47</ele>
        <time>2019-08-17T15:58:33Z</time>
      </trkpt>
      <trkpt lat="59.165174" lon="18.133808">
        <ele>47</ele>
        <time>2019-08-17T15:58:34Z</time>
      </trkpt>
      <trkpt lat="59.165214" lon="18.13383">
        <ele>46</ele>
        <time>2019-08-17T15:58:35Z</time>
      </trkpt>
      <trkpt lat="59.165255" lon="18.133856">
        <ele>46</ele>
        <time>2019-08-17T15:58:36Z</time>
      </trkpt>
      <trkpt lat="59.165295" lon="18.133883">
        <ele>46</ele>
        <time>2019-08-17T15:58:37Z</time>
      </trkpt>
      <trkpt lat="59.165335" lon="18.133909">
        <ele>46</ele>
        <time>2019-08-17T15:58:38Z</time>
      </trkpt>
      <trkpt lat="59.165376" lon="18.133929">
        <ele>46</ele>
        <time>2019-08-17T15:58:39Z</time>
      </trkpt>
      <trkpt lat="59.165418" lon="18.133948">
        <ele>46</ele>
        <time>2019-08-17T15:58:40Z</time>
      </trkpt>
      <trkpt lat="59.165462" lon="18.133979">
        <ele>46</ele>
        <time>2019-08-17T15:58:41Z</time>
      </trkpt>
      <trkpt lat="59.165505" lon="18.13402">
        <ele>46</ele>
        <time>2019-08-17T15:58:42Z</time>
      </trkpt>
      <trkpt lat="59.165549" lon="18.134069">
        <ele>46</ele>
        <time>2019-08-17T15:58:43Z</time>
      </trkpt>
      <trkpt lat="59.165594" lon="18.134128">
        <ele>46</ele>
        <time>2019-08-17T15:58:44Z</time>
      </trkpt>
      <trkpt lat="59.165635" lon="18.134182">
        <ele>46</ele>
        <time>2019-08-17T15:58:45Z</time>
      </trkpt>
      <trkpt lat="59.165678" lon="18.134229">
        <ele>46</ele>
        <time>2019-08-17T15:58:46Z</time>
      </trkpt>
      <trkpt lat="59.165725" lon="18.134263">
        <ele>46</ele>
        <time>2019-08-17T15:58:47Z</time>
      </trkpt>
      <trkpt lat="59.165774" lon="18.134291">
        <ele>46</ele>
        <time>2019-08-17T15:58:48Z</time>
      </trkpt>
      <trkpt lat="59.165822" lon="18.134318">
        <ele>47</ele>
        <time>2019-08-17T15:58:49Z</time>
      </trkpt>
      <trkpt lat="59.165871" lon="18.134344">
        <ele>47</ele>
        <time>2019-08-17T15:58:50Z</time>
      </trkpt>
      <trkpt lat="59.165917" lon="18.134365">
        <ele>47</ele>
        <time>2019-08-17T15:58:51Z</time>
      </trkpt>
      <trkpt lat="59.165962" lon="18.134388">
        <ele>47</ele>
        <time>2019-08-17T15:58:52Z</time>
      </trkpt>
      <trkpt lat="59.16601" lon="18.134407">
        <ele>47</ele>
        <time>2019-08-17T15:58:53Z</time>
      </trkpt>
      <trkpt lat="59.166059" lon="18.134431">
        <ele>47</ele>
        <time>2019-08-17T15:58:54Z</time>
      </trkpt>
      <trkpt lat="59.166108" lon="18.134461">
        <ele>47</ele>
        <time>2019-08-17T15:58:55Z</time>
      </trkpt>
      <trkpt lat="59.166157" lon="18.134499">
        <ele>47</ele>
        <time>2019-08-17T15:58:56Z</time>
      </trkpt>
      <trkpt lat="59.166206" lon="18.134535">
        <ele>47</ele>
        <time>2019-08-17T15:58:57Z</time>
      </trkpt>
      <trkpt lat="59.166253" lon="18.134566">
        <ele>48</ele>
        <time>2019-08-17T15:58:58Z</time>
      </trkpt>
      <trkpt lat="59.166299" lon="18.134596">
        <ele>48</ele>
        <time>2019-08-17T15:58:59Z</time>
      </trkpt>
      <trkpt lat="59.166347" lon="18.134629">
        <ele>48</ele>
        <time>2019-08-17T15:59:00Z</time>
      </trkpt>
      <trkpt lat="59.166394" lon="18.134658">
        <ele>48</ele>
        <time>2019-08-17T15:59:01Z</time>
      </trkpt>
      <trkpt lat="59.166438" lon="18.134683">
        <ele>48</ele>
        <time>2019-08-17T15:59:02Z</time>
      </trkpt>
      <trkpt lat="59.166485" lon="18.1347">
        <ele>48</ele>
        <time>2019-08-17T15:59:03Z</time>
      </trkpt>
      <trkpt lat="59.166533" lon="18.134719">
        <ele>48</ele>
        <time>2019-08-17T15:59:04Z</time>
      </trkpt>
      <trkpt lat="59.166585" lon="18.134731">
        <ele>48</ele>
        <time>2019-08-17T15:59:05Z</time>
      </trkpt>
      <trkpt lat="59.166636" lon="18.134723">
        <ele>48</ele>
        <time>2019-08-17T15:59:06Z</time>
      </trkpt>
      <trkpt lat="59.166684" lon="18.13471">
        <ele>49</ele>
        <time>2019-08-17T15:59:07Z</time>
      </trkpt>
      <trkpt lat="59.166737" lon="18.134714">
        <ele>49</ele>
        <time>2019-08-17T15:59:08Z</time>
      </trkpt>
      <trkpt lat="59.166788" lon="18.134735">
        <ele>49</ele>
        <time>2019-08-17T15:59:09Z</time>
      </trkpt>
      <trkpt lat="59.166836" lon="18.134763">
        <ele>49</ele>
        <time>2019-08-17T15:59:10Z</time>
      </trkpt>
      <trkpt lat="59.166888" lon="18.134794">
        <ele>49</ele>
        <time>2019-08-17T15:59:11Z</time>
      </trkpt>
      <trkpt lat="59.166944" lon="18.134826">
        <ele>48</ele>
        <time>2019-08-17T15:59:12Z</time>
      </trkpt>
      <trkpt lat="59.167" lon="18.134861">
        <ele>48</ele>
        <time>2019-08-17T15:59:13Z</time>
      </trkpt>
      <trkpt lat="59.167058" lon="18.134897">
        <ele>48</ele>
        <time>2019-08-17T15:59:14Z</time>
      </trkpt>
      <trkpt lat="59.167119" lon="18.134933">
        <ele>48</ele>
        <time>2019-08-17T15:59:15Z</time>
      </trkpt>
      <trkpt lat="59.16718" lon="18.13497">
        <ele>48</ele>
        <time>2019-08-17T15:59:16Z</time>
      </trkpt>
      <trkpt lat="59.167243" lon="18.135004">
        <ele>48</ele>
        <time>2019-08-17T15:59:17Z</time>
      </trkpt>
      <trkpt lat="59.167304" lon="18.135038">
        <ele>48</ele>
        <time>2019-08-17T15:59:18Z</time>
      </trkpt>
      <trkpt lat="59.167362" lon="18.135076">
        <ele>48</ele>
        <time>2019-08-17T15:59:19Z</time>
      </trkpt>
      <trkpt lat="59.167419" lon="18.135113">
        <ele>48</ele>
        <time>2019-08-17T15:59:20Z</time>
      </trkpt>
      <trkpt lat="59.167476" lon="18.135149">
        <ele>48</ele>
        <time>2019-08-17T15:59:21Z</time>
      </trkpt>
      <trkpt lat="59.16753" lon="18.135186">
        <ele>48</ele>
        <time>2019-08-17T15:59:22Z</time>
      </trkpt>
      <trkpt lat="59.167584" lon="18.135219">
        <ele>48</ele>
        <time>2019-08-17T15:59:23Z</time>
      </trkpt>
      <trkpt lat="59.167637" lon="18.135254">
        <ele>48</ele>
        <time>2019-08-17T15:59:24Z</time>
      </trkpt>
      <trkpt lat="59.167687" lon="18.135291">
        <ele>48</ele>
        <time>2019-08-17T15:59:25Z</time>
      </trkpt>
      <trkpt lat="59.167733" lon="18.135327">
        <ele>48</ele>
        <time>2019-08-17T15:59:26Z</time>
      </trkpt>
      <trkpt lat="59.167786" lon="18.135362">
        <ele>48</ele>
        <time>2019-08-17T15:59:27Z</time>
      </trkpt>
      <trkpt lat="59.167841" lon="18.135397">
        <ele>48</ele>
        <time>2019-08-17T15:59:28Z</time>
      </trkpt>
      <trkpt lat="59.167893" lon="18.135439">
        <ele>48</ele>
        <time>2019-08-17T15:59:29Z</time>
      </trkpt>
      <trkpt lat="59.167945" lon="18.135474">
        <ele>48</ele>
        <time>2019-08-17T15:59:30Z</time>
      </trkpt>
      <trkpt lat="59.167998" lon="18.135503">
        <ele>48</ele>
        <time>2019-08-17T15:59:31Z</time>
      </trkpt>
      <trkpt lat="59.168051" lon="18.135534">
        <ele>48</ele>
        <time>2019-08-17T15:59:32Z</time>
      </trkpt>
      <trkpt lat="59.168104" lon="18.135566">
        <ele>48</ele>
        <time>2019-08-17T15:59:33Z</time>
      </trkpt>
      <trkpt lat="59.168157" lon="18.135599">
        <ele>48</ele>
        <time>2019-08-17T15:59:34Z</time>
      </trkpt>
      <trkpt lat="59.168212" lon="18.135631">
        <ele>48</ele>
        <time>2019-08-17T15:59:35Z</time>
      </trkpt>
      <trkpt lat="59.168272" lon="18.135664">
        <ele>48</ele>
        <time>2019-08-17T15:59:36Z</time>
      </trkpt>
      <trkpt lat="59.168329" lon="18.1357">
        <ele>48</ele>
        <time>2019-08-17T15:59:37Z</time>
      </trkpt>
      <trkpt lat="59.168387" lon="18.135733">
        <ele>48</ele>
        <time>2019-08-17T15:59:38Z</time>
      </trkpt>
      <trkpt lat="59.168444" lon="18.135764">
        <ele>48</ele>
        <time>2019-08-17T15:59:39Z</time>
      </trkpt>
      <trkpt lat="59.1685" lon="18.135798">
        <ele>48</ele>
        <time>2019-08-17T15:59:40Z</time>
      </trkpt>
      <trkpt lat="59.168555" lon="18.135832">
        <ele>48</ele>
        <time>2019-08-17T15:59:41Z</time>
      </trkpt>
      <trkpt lat="59.168611" lon="18.135864">
        <ele>48</ele>
        <time>2019-08-17T15:59:42Z</time>
      </trkpt>
      <trkpt lat="59.168666" lon="18.135896">
        <ele>48</ele>
        <time>2019-08-17T15:59:43Z</time>
      </trkpt>
      <trkpt lat="59.168721" lon="18.135929">
        <ele>48</ele>
        <time>2019-08-17T15:59:44Z</time>
      </trkpt>
      <trkpt lat="59.16878" lon="18.135962">
        <ele>48</ele>
        <time>2019-08-17T15:59:45Z</time>
      </trkpt>
      <trkpt lat="59.168838" lon="18.135993">
        <ele>48</ele>
        <time>2019-08-17T15:59:46Z</time>
      </trkpt>
      <trkpt lat="59.168893" lon="18.136022">
        <ele>48</ele>
        <time>2019-08-17T15:59:47Z</time>
      </trkpt>
      <trkpt lat="59.168948" lon="18.136048">
        <ele>48</ele>
        <time>2019-08-17T15:59:48Z</time>
      </trkpt>
      <trkpt lat="59.169002" lon="18.136077">
        <ele>48</ele>
        <time>2019-08-17T15:59:49Z</time>
      </trkpt>
      <trkpt lat="59.169056" lon="18.136102">
        <ele>48</ele>
        <time>2019-08-17T15:59:50Z</time>
      </trkpt>
      <trkpt lat="59.169111" lon="18.136125">
        <ele>48</ele>
        <time>2019-08-17T15:59:51Z</time>
      </trkpt>
      <trkpt lat="59.169166" lon="18.136154">
        <ele>48</ele>
        <time>2019-08-17T15:59:52Z</time>
      </trkpt>
      <trkpt lat="59.169219" lon="18.136181">
        <ele>48</ele>
        <time>2019-08-17T15:59:53Z</time>
      </trkpt>
      <trkpt lat="59.169272" lon="18.136208">
        <ele>48</ele>
        <time>2019-08-17T15:59:54Z</time>
      </trkpt>
      <trkpt lat="59.169326" lon="18.136233">
        <ele>48</ele>
        <time>2019-08-17T15:59:55Z</time>
      </trkpt>
      <trkpt lat="59.169381" lon="18.136257">
        <ele>48</ele>
        <time>2019-08-17T15:59:56Z</time>
      </trkpt>
      <trkpt lat="59.169434" lon="18.136284">
        <ele>48</ele>
        <time>2019-08-17T15:59:57Z</time>
      </trkpt>
      <trkpt lat="59.169487" lon="18.13631">
        <ele>48</ele>
        <time>2019-08-17T15:59:58Z</time>
      </trkpt>
      <trkpt lat="59.169539" lon="18.136333">
        <ele>48</ele>
        <time>2019-08-17T15:59:59Z</time>
      </trkpt>
      <trkpt lat="59.169592" lon="18.136359">
        <ele>48</ele>
        <time>2019-08-17T16:00:00Z</time>
      </trkpt>
      <trkpt lat="59.169645" lon="18.136383">
        <ele>47</ele>
        <time>2019-08-17T16:00:01Z</time>
      </trkpt>
      <trkpt lat="59.169698" lon="18.136407">
        <ele>47</ele>
        <time>2019-08-17T16:00:02Z</time>
      </trkpt>
      <trkpt lat="59.169753" lon="18.13643">
        <ele>47</ele>
        <time>2019-08-17T16:00:03Z</time>
      </trkpt>
      <trkpt lat="59.169808" lon="18.136455">
        <ele>47</ele>
        <time>2019-08-17T16:00:04Z</time>
      </trkpt>
      <trkpt lat="59.169862" lon="18.136483">
        <ele>47</ele>
        <time>2019-08-17T16:00:05Z</time>
      </trkpt>
      <trkpt lat="59.169915" lon="18.136511">
        <ele>47</ele>
        <time>2019-08-17T16:00:06Z</time>
      </trkpt>
      <trkpt lat="59.169968" lon="18.13654">
        <ele>46</ele>
        <time>2019-08-17T16:00:07Z</time>
      </trkpt>
      <trkpt lat="59.170023" lon="18.136566">
        <ele>46</ele>
        <time>2019-08-17T16:00:08Z</time>
      </trkpt>
      <trkpt lat="59.17008" lon="18.136589">
        <ele>46</ele>
        <time>2019-08-17T16:00:09Z</time>
      </trkpt>
      <trkpt lat="59.170136" lon="18.136619">
        <ele>46</ele>
        <time>2019-08-17T16:00:10Z</time>
      </trkpt>
      <trkpt lat="59.17019" lon="18.136648">
        <ele>46</ele>
        <time>2019-08-17T16:00:11Z</time>
      </trkpt>
      <trkpt lat="59.170246" lon="18.136674">
        <ele>46</ele>
        <time>2019-08-17T16:00:12Z</time>
      </trkpt>
      <trkpt lat="59.170301" lon="18.136705">
        <ele>45</ele>
        <time>2019-08-17T16:00:13Z</time>
      </trkpt>
      <trkpt lat="59.170357" lon="18.136738">
        <ele>45</ele>
        <time>2019-08-17T16:00:14Z</time>
      </trkpt>
      <trkpt lat="59.170412" lon="18.13677">
        <ele>45</ele>
        <time>2019-08-17T16:00:15Z</time>
      </trkpt>
      <trkpt lat="59.170468" lon="18.1368">
        <ele>45</ele>
        <time>2019-08-17T16:00:16Z</time>
      </trkpt>
      <trkpt lat="59.170525" lon="18.136829">
        <ele>45</ele>
        <time>2019-08-17T16:00:17Z</time>
      </trkpt>
      <trkpt lat="59.170581" lon="18.136854">
        <ele>45</ele>
        <time>2019-08-17T16:00:18Z</time>
      </trkpt>
      <trkpt lat="59.170638" lon="18.136885">
        <ele>45</ele>
        <time>2019-08-17T16:00:19Z</time>
      </trkpt>
      <trkpt lat="59.170695" lon="18.136916">
        <ele>45</ele>
        <time>2019-08-17T16:00:20Z</time>
      </trkpt>
      <trkpt lat="59.170751" lon="18.136943">
        <ele>45</ele>
        <time>2019-08-17T16:00:21Z</time>
      </trkpt>
      <trkpt lat="59.170809" lon="18.136972">
        <ele>44</ele>
        <time>2019-08-17T16:00:22Z</time>
      </trkpt>
      <trkpt lat="59.170866" lon="18.137002">
        <ele>44</ele>
        <time>2019-08-17T16:00:23Z</time>
      </trkpt>
      <trkpt lat="59.170922" lon="18.137031">
        <ele>44</ele>
        <time>2019-08-17T16:00:24Z</time>
      </trkpt>
      <trkpt lat="59.170978" lon="18.137058">
        <ele>44</ele>
        <time>2019-08-17T16:00:25Z</time>
      </trkpt>
      <trkpt lat="59.171033" lon="18.137081">
        <ele>44</ele>
        <time>2019-08-17T16:00:26Z</time>
      </trkpt>
      <trkpt lat="59.171087" lon="18.137107">
        <ele>44</ele>
        <time>2019-08-17T16:00:27Z</time>
      </trkpt>
      <trkpt lat="59.171139" lon="18.137139">
        <ele>44</ele>
        <time>2019-08-17T16:00:28Z</time>
      </trkpt>
      <trkpt lat="59.171192" lon="18.137169">
        <ele>44</ele>
        <time>2019-08-17T16:00:29Z</time>
      </trkpt>
      <trkpt lat="59.171244" lon="18.137201">
        <ele>44</ele>
        <time>2019-08-17T16:00:30Z</time>
      </trkpt>
      <trkpt lat="59.171295" lon="18.137237">
        <ele>44</ele>
        <time>2019-08-17T16:00:31Z</time>
      </trkpt>
      <trkpt lat="59.171346" lon="18.137278">
        <ele>44</ele>
        <time>2019-08-17T16:00:32Z</time>
      </trkpt>
      <trkpt lat="59.171396" lon="18.13732">
        <ele>44</ele>
        <time>2019-08-17T16:00:33Z</time>
      </trkpt>
      <trkpt lat="59.171445" lon="18.137355">
        <ele>43</ele>
        <time>2019-08-17T16:00:34Z</time>
      </trkpt>
      <trkpt lat="59.171499" lon="18.137386">
        <ele>44</ele>
        <time>2019-08-17T16:00:35Z</time>
      </trkpt>
      <trkpt lat="59.171551" lon="18.137418">
        <ele>44</ele>
        <time>2019-08-17T16:00:36Z</time>
      </trkpt>
      <trkpt lat="59.171603" lon="18.137448">
        <ele>44</ele>
        <time>2019-08-17T16:00:37Z</time>
      </trkpt>
      <trkpt lat="59.171656" lon="18.137477">
        <ele>44</ele>
        <time>2019-08-17T16:00:39Z</time>
      </trkpt>
      <trkpt lat="59.171709" lon="18.137508">
        <ele>44</ele>
        <time>2019-08-17T16:00:39Z</time>
      </trkpt>
      <trkpt lat="59.171759" lon="18.137542">
        <ele>44</ele>
        <time>2019-08-17T16:00:40Z</time>
      </trkpt>
      <trkpt lat="59.17181" lon="18.137574">
        <ele>44</ele>
        <time>2019-08-17T16:00:41Z</time>
      </trkpt>
      <trkpt lat="59.171863" lon="18.137605">
        <ele>44</ele>
        <time>2019-08-17T16:00:42Z</time>
      </trkpt>
      <trkpt lat="59.171916" lon="18.137632">
        <ele>44</ele>
        <time>2019-08-17T16:00:43Z</time>
      </trkpt>
      <trkpt lat="59.171969" lon="18.137656">
        <ele>44</ele>
        <time>2019-08-17T16:00:44Z</time>
      </trkpt>
      <trkpt lat="59.172022" lon="18.13768">
        <ele>44</ele>
        <time>2019-08-17T16:00:45Z</time>
      </trkpt>
      <trkpt lat="59.172075" lon="18.137705">
        <ele>44</ele>
        <time>2019-08-17T16:00:46Z</time>
      </trkpt>
      <trkpt lat="59.172125" lon="18.137731">
        <ele>44</ele>
        <time>2019-08-17T16:00:47Z</time>
      </trkpt>
      <trkpt lat="59.172176" lon="18.137758">
        <ele>44</ele>
        <time>2019-08-17T16:00:48Z</time>
      </trkpt>
      <trkpt lat="59.172226" lon="18.137782">
        <ele>44</ele>
        <time>2019-08-17T16:00:49Z</time>
      </trkpt>
      <trkpt lat="59.172276" lon="18.137803">
        <ele>44</ele>
        <time>2019-08-17T16:00:50Z</time>
      </trkpt>
      <trkpt lat="59.172323" lon="18.137825">
        <ele>44</ele>
        <time>2019-08-17T16:00:51Z</time>
      </trkpt>
      <trkpt lat="59.172367" lon="18.137848">
        <ele>44</ele>
        <time>2019-08-17T16:00:52Z</time>
      </trkpt>
      <trkpt lat="59.172408" lon="18.137868">
        <ele>44</ele>
        <time>2019-08-17T16:00:53Z</time>
      </trkpt>
      <trkpt lat="59.172449" lon="18.137885">
        <ele>44</ele>
        <time>2019-08-17T16:00:54Z</time>
      </trkpt>
      <trkpt lat="59.172489" lon="18.137901">
        <ele>44</ele>
        <time>2019-08-17T16:00:55Z</time>
      </trkpt>
      <trkpt lat="59.172527" lon="18.137918">
        <ele>44</ele>
        <time>2019-08-17T16:00:56Z</time>
      </trkpt>
      <trkpt lat="59.172562" lon="18.137936">
        <ele>44</ele>
        <time>2019-08-17T16:00:57Z</time>
      </trkpt>
      <trkpt lat="59.172596" lon="18.137956">
        <ele>44</ele>
        <time>2019-08-17T16:00:58Z</time>
      </trkpt>
      <trkpt lat="59.172631" lon="18.137973">
        <ele>44</ele>
        <time>2019-08-17T16:00:59Z</time>
      </trkpt>
      <trkpt lat="59.172666" lon="18.137985">
        <ele>44</ele>
        <time>2019-08-17T16:01:00Z</time>
      </trkpt>
      <trkpt lat="59.172698" lon="18.138">
        <ele>45</ele>
        <time>2019-08-17T16:01:01Z</time>
      </trkpt>
      <trkpt lat="59.172732" lon="18.138016">
        <ele>45</ele>
        <time>2019-08-17T16:01:02Z</time>
      </trkpt>
      <trkpt lat="59.172765" lon="18.138033">
        <ele>45</ele>
        <time>2019-08-17T16:01:03Z</time>
      </trkpt>
      <trkpt lat="59.172794" lon="18.138053">
        <ele>45</ele>
        <time>2019-08-17T16:01:04Z</time>
      </trkpt>
      <trkpt lat="59.172826" lon="18.138072">
        <ele>45</ele>
        <time>2019-08-17T16:01:05Z</time>
      </trkpt>
      <trkpt lat="59.172857" lon="18.138091">
        <ele>45</ele>
        <time>2019-08-17T16:01:06Z</time>
      </trkpt>
      <trkpt lat="59.172888" lon="18.138106">
        <ele>45</ele>
        <time>2019-08-17T16:01:07Z</time>
      </trkpt>
      <trkpt lat="59.172916" lon="18.138125">
        <ele>45</ele>
        <time>2019-08-17T16:01:08Z</time>
      </trkpt>
      <trkpt lat="59.172945" lon="18.138146">
        <ele>45</ele>
        <time>2019-08-17T16:01:09Z</time>
      </trkpt>
      <trkpt lat="59.172972" lon="18.138173">
        <ele>46</ele>
        <time>2019-08-17T16:01:10Z</time>
      </trkpt>
      <trkpt lat="59.172998" lon="18.138199">
        <ele>46</ele>
        <time>2019-08-17T16:01:11Z</time>
      </trkpt>
      <trkpt lat="59.173027" lon="18.13822">
        <ele>46</ele>
        <time>2019-08-17T16:01:12Z</time>
      </trkpt>
      <trkpt lat="59.173055" lon="18.138244">
        <ele>46</ele>
        <time>2019-08-17T16:01:13Z</time>
      </trkpt>
      <trkpt lat="59.173085" lon="18.138263">
        <ele>47</ele>
        <time>2019-08-17T16:01:14Z</time>
      </trkpt>
      <trkpt lat="59.173116" lon="18.138279">
        <ele>47</ele>
        <time>2019-08-17T16:01:15Z</time>
      </trkpt>
      <trkpt lat="59.173149" lon="18.138295">
        <ele>47</ele>
        <time>2019-08-17T16:01:16Z</time>
      </trkpt>
      <trkpt lat="59.173178" lon="18.138316">
        <ele>47</ele>
        <time>2019-08-17T16:01:17Z</time>
      </trkpt>
      <trkpt lat="59.173212" lon="18.138334">
        <ele>47</ele>
        <time>2019-08-17T16:01:18Z</time>
      </trkpt>
      <trkpt lat="59.173245" lon="18.138349">
        <ele>47</ele>
        <time>2019-08-17T16:01:19Z</time>
      </trkpt>
      <trkpt lat="59.173281" lon="18.138362">
        <ele>48</ele>
        <time>2019-08-17T16:01:20Z</time>
      </trkpt>
      <trkpt lat="59.173318" lon="18.138383">
        <ele>48</ele>
        <time>2019-08-17T16:01:21Z</time>
      </trkpt>
      <trkpt lat="59.173349" lon="18.13841">
        <ele>48</ele>
        <time>2019-08-17T16:01:22Z</time>
      </trkpt>
      <trkpt lat="59.173381" lon="18.138444">
        <ele>48</ele>
        <time>2019-08-17T16:01:23Z</time>
      </trkpt>
      <trkpt lat="59.173411" lon="18.138473">
        <ele>48</ele>
        <time>2019-08-17T16:01:24Z</time>
      </trkpt>
      <trkpt lat="59.173441" lon="18.138501">
        <ele>49</ele>
        <time>2019-08-17T16:01:25Z</time>
      </trkpt>
      <trkpt lat="59.173472" lon="18.138527">
        <ele>49</ele>
        <time>2019-08-17T16:01:26Z</time>
      </trkpt>
      <trkpt lat="59.173504" lon="18.138552">
        <ele>49</ele>
        <time>2019-08-17T16:01:27Z</time>
      </trkpt>
      <trkpt lat="59.173534" lon="18.138572">
        <ele>49</ele>
        <time>2019-08-17T16:01:28Z</time>
      </trkpt>
      <trkpt lat="59.173563" lon="18.138595">
        <ele>49</ele>
        <time>2019-08-17T16:01:29Z</time>
      </trkpt>
      <trkpt lat="59.173591" lon="18.138617">
        <ele>49</ele>
        <time>2019-08-17T16:01:30Z</time>
      </trkpt>
      <trkpt lat="59.17362" lon="18.13864">
        <ele>49</ele>
        <time>2019-08-17T16:01:31Z</time>
      </trkpt>
      <trkpt lat="59.173647" lon="18.138669">
        <ele>50</ele>
        <time>2019-08-17T16:01:32Z</time>
      </trkpt>
      <trkpt lat="59.173668" lon="18.138711">
        <ele>50</ele>
        <time>2019-08-17T16:01:33Z</time>
      </trkpt>
      <trkpt lat="59.173686" lon="18.138758">
        <ele>50</ele>
        <time>2019-08-17T16:01:34Z</time>
      </trkpt>
      <trkpt lat="59.173703" lon="18.138809">
        <ele>50</ele>
        <time>2019-08-17T16:01:35Z</time>
      </trkpt>
      <trkpt lat="59.173716" lon="18.138862">
        <ele>50</ele>
        <time>2019-08-17T16:01:36Z</time>
      </trkpt>
      <trkpt lat="59.173722" lon="18.138917">
        <ele>50</ele>
        <time>2019-08-17T16:01:37Z</time>
      </trkpt>
      <trkpt lat="59.173723" lon="18.13897">
        <ele>50</ele>
        <time>2019-08-17T16:01:38Z</time>
      </trkpt>
      <trkpt lat="59.173721" lon="18.139026">
        <ele>50</ele>
        <time>2019-08-17T16:01:39Z</time>
      </trkpt>
      <trkpt lat="59.173724" lon="18.139081">
        <ele>50</ele>
        <time>2019-08-17T16:01:40Z</time>
      </trkpt>
      <trkpt lat="59.173733" lon="18.139137">
        <ele>50</ele>
        <time>2019-08-17T16:01:41Z</time>
      </trkpt>
      <trkpt lat="59.173749" lon="18.139188">
        <ele>50</ele>
        <time>2019-08-17T16:01:42Z</time>
      </trkpt>
      <trkpt lat="59.173771" lon="18.139234">
        <ele>50</ele>
        <time>2019-08-17T16:01:43Z</time>
      </trkpt>
      <trkpt lat="59.173794" lon="18.139284">
        <ele>50</ele>
        <time>2019-08-17T16:01:44Z</time>
      </trkpt>
      <trkpt lat="59.17382" lon="18.13933">
        <ele>50</ele>
        <time>2019-08-17T16:01:45Z</time>
      </trkpt>
      <trkpt lat="59.173847" lon="18.139369">
        <ele>50</ele>
        <time>2019-08-17T16:01:46Z</time>
      </trkpt>
      <trkpt lat="59.173874" lon="18.139402">
        <ele>50</ele>
        <time>2019-08-17T16:01:47Z</time>
      </trkpt>
      <trkpt lat="59.173908" lon="18.139427">
        <ele>50</ele>
        <time>2019-08-17T16:01:48Z</time>
      </trkpt>
      <trkpt lat="59.173946" lon="18.139446">
        <ele>50</ele>
        <time>2019-08-17T16:01:49Z</time>
      </trkpt>
      <trkpt lat="59.173983" lon="18.139466">
        <ele>50</ele>
        <time>2019-08-17T16:01:50Z</time>
      </trkpt>
      <trkpt lat="59.17402" lon="18.139486">
        <ele>50</ele>
        <time>2019-08-17T16:01:51Z</time>
      </trkpt>
      <trkpt lat="59.174062" lon="18.139497">
        <ele>50</ele>
        <time>2019-08-17T16:01:52Z</time>
      </trkpt>
      <trkpt lat="59.174102" lon="18.13951">
        <ele>50</ele>
        <time>2019-08-17T16:01:53Z</time>
      </trkpt>
      <trkpt lat="59.174141" lon="18.139526">
        <ele>50</ele>
        <time>2019-08-17T16:01:54Z</time>
      </trkpt>
      <trkpt lat="59.174179" lon="18.139546">
        <ele>49</ele>
        <time>2019-08-17T16:01:55Z</time>
      </trkpt>
      <trkpt lat="59.174219" lon="18.139569">
        <ele>49</ele>
        <time>2019-08-17T16:01:56Z</time>
      </trkpt>
      <trkpt lat="59.174261" lon="18.13959">
        <ele>49</ele>
        <time>2019-08-17T16:01:57Z</time>
      </trkpt>
      <trkpt lat="59.174304" lon="18.139604">
        <ele>49</ele>
        <time>2019-08-17T16:01:58Z</time>
      </trkpt>
      <trkpt lat="59.174349" lon="18.13962">
        <ele>49</ele>
        <time>2019-08-17T16:01:59Z</time>
      </trkpt>
      <trkpt lat="59.174396" lon="18.139642">
        <ele>49</ele>
        <time>2019-08-17T16:02:00Z</time>
      </trkpt>
      <trkpt lat="59.174442" lon="18.139674">
        <ele>48</ele>
        <time>2019-08-17T16:02:01Z</time>
      </trkpt>
      <trkpt lat="59.174488" lon="18.139716">
        <ele>48</ele>
        <time>2019-08-17T16:02:02Z</time>
      </trkpt>
      <trkpt lat="59.174536" lon="18.139758">
        <ele>48</ele>
        <time>2019-08-17T16:02:03Z</time>
      </trkpt>
      <trkpt lat="59.17458" lon="18.139812">
        <ele>49</ele>
        <time>2019-08-17T16:02:04Z</time>
      </trkpt>
      <trkpt lat="59.174611" lon="18.139884">
        <ele>49</ele>
        <time>2019-08-17T16:02:05Z</time>
      </trkpt>
      <trkpt lat="59.174619" lon="18.139964">
        <ele>49</ele>
        <time>2019-08-17T16:02:06Z</time>
      </trkpt>
      <trkpt lat="59.17461" lon="18.14003">
        <ele>49</ele>
        <time>2019-08-17T16:02:07Z</time>
      </trkpt>
      <trkpt lat="59.174593" lon="18.140071">
        <ele>49</ele>
        <time>2019-08-17T16:02:08Z</time>
      </trkpt>
      <trkpt lat="59.174577" lon="18.140096">
        <ele>49</ele>
        <time>2019-08-17T16:02:09Z</time>
      </trkpt>
      <trkpt lat="59.174551" lon="18.140126">
        <ele>48</ele>
        <time>2019-08-17T16:02:11Z</time>
      </trkpt>
      <trkpt lat="59.174528" lon="18.140146">
        <ele>47</ele>
        <time>2019-08-17T16:02:14Z</time>
      </trkpt>
      <trkpt lat="59.174518" lon="18.140168">
        <ele>47</ele>
        <time>2019-08-17T16:02:21Z</time>
      </trkpt>
      <trkpt lat="59.174483" lon="18.140306">
        <ele>0</ele>
        <time>2019-08-17T16:02:53Z</time>
      </trkpt>
      <trkpt lat="59.174472" lon="18.140362">
        <ele>47</ele>
        <time>2019-08-17T16:02:53Z</time>
      </trkpt>
      <trkpt lat="59.174462" lon="18.140422">
        <ele>47</ele>
        <time>2019-08-17T16:02:54Z</time>
      </trkpt>
      <trkpt lat="59.174461" lon="18.140479">
        <ele>47</ele>
        <time>2019-08-17T16:02:55Z</time>
      </trkpt>
      <trkpt lat="59.174472" lon="18.140534">
        <ele>47</ele>
        <time>2019-08-17T16:02:56Z</time>
      </trkpt>
      <trkpt lat="59.174488" lon="18.140586">
        <ele>47</ele>
        <time>2019-08-17T16:02:57Z</time>
      </trkpt>
      <trkpt lat="59.174503" lon="18.140642">
        <ele>47</ele>
        <time>2019-08-17T16:02:58Z</time>
      </trkpt>
      <trkpt lat="59.174516" lon="18.140701">
        <ele>47</ele>
        <time>2019-08-17T16:02:59Z</time>
      </trkpt>
      <trkpt lat="59.174527" lon="18.140762">
        <ele>47</ele>
        <time>2019-08-17T16:03:00Z</time>
      </trkpt>
      <trkpt lat="59.174538" lon="18.140825">
        <ele>47</ele>
        <time>2019-08-17T16:03:01Z</time>
      </trkpt>
      <trkpt lat="59.17455" lon="18.140888">
        <ele>47</ele>
        <time>2019-08-17T16:03:02Z</time>
      </trkpt>
      <trkpt lat="59.174561" lon="18.140957">
        <ele>47</ele>
        <time>2019-08-17T16:03:03Z</time>
      </trkpt>
      <trkpt lat="59.174566" lon="18.141027">
        <ele>47</ele>
        <time>2019-08-17T16:03:04Z</time>
      </trkpt>
      <trkpt lat="59.174566" lon="18.141088">
        <ele>47</ele>
        <time>2019-08-17T16:03:05Z</time>
      </trkpt>
      <trkpt lat="59.174552" lon="18.141149">
        <ele>46</ele>
        <time>2019-08-17T16:03:06Z</time>
      </trkpt>
      <trkpt lat="59.174532" lon="18.141207">
        <ele>46</ele>
        <time>2019-08-17T16:03:07Z</time>
      </trkpt>
      <trkpt lat="59.174515" lon="18.141251">
        <ele>46</ele>
        <time>2019-08-17T16:03:08Z</time>
      </trkpt>
      <trkpt lat="59.174488" lon="18.141279">
        <ele>46</ele>
        <time>2019-08-17T16:03:09Z</time>
      </trkpt>
      <trkpt lat="59.174459" lon="18.141298">
        <ele>46</ele>
        <time>2019-08-17T16:03:10Z</time>
      </trkpt>
      <trkpt lat="59.174432" lon="18.141314">
        <ele>46</ele>
        <time>2019-08-17T16:03:11Z</time>
      </trkpt>
      <trkpt lat="59.174403" lon="18.141332">
        <ele>45</ele>
        <time>2019-08-17T16:03:12Z</time>
      </trkpt>
      <trkpt lat="59.174376" lon="18.141351">
        <ele>46</ele>
        <time>2019-08-17T16:03:13Z</time>
      </trkpt>
      <trkpt lat="59.174349" lon="18.141376">
        <ele>46</ele>
        <time>2019-08-17T16:03:14Z</time>
      </trkpt>
      <trkpt lat="59.17432" lon="18.141406">
        <ele>46</ele>
        <time>2019-08-17T16:03:15Z</time>
      </trkpt>
      <trkpt lat="59.174291" lon="18.141447">
        <ele>46</ele>
        <time>2019-08-17T16:03:16Z</time>
      </trkpt>
      <trkpt lat="59.174271" lon="18.141505">
        <ele>46</ele>
        <time>2019-08-17T16:03:17Z</time>
      </trkpt>
      <trkpt lat="59.174259" lon="18.141577">
        <ele>46</ele>
        <time>2019-08-17T16:03:18Z</time>
      </trkpt>
      <trkpt lat="59.174248" lon="18.141651">
        <ele>46</ele>
        <time>2019-08-17T16:03:19Z</time>
      </trkpt>
      <trkpt lat="59.174235" lon="18.141723">
        <ele>46</ele>
        <time>2019-08-17T16:03:20Z</time>
      </trkpt>
      <trkpt lat="59.174225" lon="18.14179">
        <ele>46</ele>
        <time>2019-08-17T16:03:21Z</time>
      </trkpt>
      <trkpt lat="59.174219" lon="18.141856">
        <ele>46</ele>
        <time>2019-08-17T16:03:22Z</time>
      </trkpt>
      <trkpt lat="59.174216" lon="18.14192">
        <ele>46</ele>
        <time>2019-08-17T16:03:23Z</time>
      </trkpt>
      <trkpt lat="59.174214" lon="18.141981">
        <ele>46</ele>
        <time>2019-08-17T16:03:24Z</time>
      </trkpt>
      <trkpt lat="59.174211" lon="18.142041">
        <ele>46</ele>
        <time>2019-08-17T16:03:25Z</time>
      </trkpt>
      <trkpt lat="59.174211" lon="18.142099">
        <ele>46</ele>
        <time>2019-08-17T16:03:26Z</time>
      </trkpt>
      <trkpt lat="59.174209" lon="18.14216">
        <ele>47</ele>
        <time>2019-08-17T16:03:27Z</time>
      </trkpt>
      <trkpt lat="59.174206" lon="18.142221">
        <ele>47</ele>
        <time>2019-08-17T16:03:28Z</time>
      </trkpt>
      <trkpt lat="59.174203" lon="18.142281">
        <ele>46</ele>
        <time>2019-08-17T16:03:29Z</time>
      </trkpt>
      <trkpt lat="59.174197" lon="18.142341">
        <ele>46</ele>
        <time>2019-08-17T16:03:30Z</time>
      </trkpt>
      <trkpt lat="59.174185" lon="18.142394">
        <ele>47</ele>
        <time>2019-08-17T16:03:31Z</time>
      </trkpt>
      <trkpt lat="59.174166" lon="18.142435">
        <ele>46</ele>
        <time>2019-08-17T16:03:32Z</time>
      </trkpt>
      <trkpt lat="59.174141" lon="18.142466">
        <ele>46</ele>
        <time>2019-08-17T16:03:33Z</time>
      </trkpt>
      <trkpt lat="59.174115" lon="18.142494">
        <ele>47</ele>
        <time>2019-08-17T16:03:34Z</time>
      </trkpt>
      <trkpt lat="59.174089" lon="18.14252">
        <ele>47</ele>
        <time>2019-08-17T16:03:35Z</time>
      </trkpt>
      <trkpt lat="59.174064" lon="18.142544">
        <ele>47</ele>
        <time>2019-08-17T16:03:36Z</time>
      </trkpt>
      <trkpt lat="59.174042" lon="18.142566">
        <ele>47</ele>
        <time>2019-08-17T16:03:37Z</time>
      </trkpt>
      <trkpt lat="59.174027" lon="18.142592">
        <ele>48</ele>
        <time>2019-08-17T16:03:38Z</time>
      </trkpt>
      <trkpt lat="59.17402" lon="18.142627">
        <ele>48</ele>
        <time>2019-08-17T16:03:39Z</time>
      </trkpt>
      <trkpt lat="59.174013" lon="18.142674">
        <ele>48</ele>
        <time>2019-08-17T16:03:40Z</time>
      </trkpt>
      <trkpt lat="59.174008" lon="18.142723">
        <ele>48</ele>
        <time>2019-08-17T16:03:41Z</time>
      </trkpt>
      <trkpt lat="59.173998" lon="18.142774">
        <ele>48</ele>
        <time>2019-08-17T16:03:42Z</time>
      </trkpt>
      <trkpt lat="59.173982" lon="18.142817">
        <ele>48</ele>
        <time>2019-08-17T16:03:43Z</time>
      </trkpt>
      <trkpt lat="59.173965" lon="18.14286">
        <ele>48</ele>
        <time>2019-08-17T16:03:44Z</time>
      </trkpt>
      <trkpt lat="59.17395" lon="18.142906">
        <ele>48</ele>
        <time>2019-08-17T16:03:45Z</time>
      </trkpt>
      <trkpt lat="59.173935" lon="18.142951">
        <ele>48</ele>
        <time>2019-08-17T16:03:46Z</time>
      </trkpt>
      <trkpt lat="59.173919" lon="18.142995">
        <ele>48</ele>
        <time>2019-08-17T16:03:47Z</time>
      </trkpt>
      <trkpt lat="59.173902" lon="18.143038">
        <ele>48</ele>
        <time>2019-08-17T16:03:48Z</time>
      </trkpt>
      <trkpt lat="59.173891" lon="18.143083">
        <ele>48</ele>
        <time>2019-08-17T16:03:49Z</time>
      </trkpt>
      <trkpt lat="59.173887" lon="18.143134">
        <ele>48</ele>
        <time>2019-08-17T16:03:50Z</time>
      </trkpt>
      <trkpt lat="59.173884" lon="18.143189">
        <ele>48</ele>
        <time>2019-08-17T16:03:51Z</time>
      </trkpt>
      <trkpt lat="59.17388" lon="18.143246">
        <ele>48</ele>
        <time>2019-08-17T16:03:52Z</time>
      </trkpt>
      <trkpt lat="59.173871" lon="18.143308">
        <ele>48</ele>
        <time>2019-08-17T16:03:53Z</time>
      </trkpt>
      <trkpt lat="59.173862" lon="18.143368">
        <ele>48</ele>
        <time>2019-08-17T16:03:54Z</time>
      </trkpt>
      <trkpt lat="59.173849" lon="18.143425">
        <ele>49</ele>
        <time>2019-08-17T16:03:55Z</time>
      </trkpt>
      <trkpt lat="59.173826" lon="18.143468">
        <ele>49</ele>
        <time>2019-08-17T16:03:56Z</time>
      </trkpt>
      <trkpt lat="59.1738" lon="18.143493">
        <ele>49</ele>
        <time>2019-08-17T16:03:57Z</time>
      </trkpt>
      <trkpt lat="59.173775" lon="18.143497">
        <ele>49</ele>
        <time>2019-08-17T16:03:58Z</time>
      </trkpt>
      <trkpt lat="59.173752" lon="18.143491">
        <ele>49</ele>
        <time>2019-08-17T16:03:59Z</time>
      </trkpt>
      <trkpt lat="59.173727" lon="18.143481">
        <ele>49</ele>
        <time>2019-08-17T16:04:00Z</time>
      </trkpt>
      <trkpt lat="59.173701" lon="18.143473">
        <ele>49</ele>
        <time>2019-08-17T16:04:01Z</time>
      </trkpt>
      <trkpt lat="59.173677" lon="18.143467">
        <ele>49</ele>
        <time>2019-08-17T16:04:02Z</time>
      </trkpt>
      <trkpt lat="59.173655" lon="18.143459">
        <ele>48</ele>
        <time>2019-08-17T16:04:03Z</time>
      </trkpt>
      <trkpt lat="59.173632" lon="18.143453">
        <ele>48</ele>
        <time>2019-08-17T16:04:04Z</time>
      </trkpt>
      <trkpt lat="59.173609" lon="18.143447">
        <ele>48</ele>
        <time>2019-08-17T16:04:05Z</time>
      </trkpt>
      <trkpt lat="59.173588" lon="18.14344">
        <ele>48</ele>
        <time>2019-08-17T16:04:06Z</time>
      </trkpt>
      <trkpt lat="59.173555" lon="18.143419">
        <ele>48</ele>
        <time>2019-08-17T16:04:08Z</time>
      </trkpt>
      <trkpt lat="59.173522" lon="18.143399">
        <ele>48</ele>
        <time>2019-08-17T16:04:10Z</time>
      </trkpt>
      <trkpt lat="59.173492" lon="18.143385">
        <ele>48</ele>
        <time>2019-08-17T16:04:12Z</time>
      </trkpt>
      <trkpt lat="59.173465" lon="18.143375">
        <ele>48</ele>
        <time>2019-08-17T16:04:14Z</time>
      </trkpt>
      <trkpt lat="59.173442" lon="18.143362">
        <ele>49</ele>
        <time>2019-08-17T16:04:17Z</time>
      </trkpt>
      <trkpt lat="59.173438" lon="18.143358">
        <ele>49</ele>
        <time>2019-08-17T16:04:20Z</time>
      </trkpt>
    </trkseg>
  </trk>
</gpx>